     2.11           OBSERVATION DATA    G (GPS)             RINEX VERSION / TYPE
teqc 2010Oct21 OPUS Account 20111029 19:23:28UTC            PGM / RUN BY / DATE
X 1522                                                      MARKER NAME
1177                                                        MARKER NUMBER
CSMIDDLETON NGS                                             OBSERVER / AGENCY
0220320676 TRIMBLE 5700 1.30                                REC # / TYPE / VERS
12518007 TRM41249.00 NONE                                   ANT # / TYPE
  -742051.6134 -5503845.1269  3126202.0214                  APPROX POSITION XYZ
        2.0000        0.0000        0.0000                  ANTENNA: DELTA H/E/N
     1     1                                                WAVELENGTH FACT L1/2
     5    L1    L2    C1    P1    P2                        # / TYPES OF OBSERV
    15                                                      LEAP SECONDS
  2011     9    25    16    30    0.0000000     GPS         TIME OF FIRST OBS
                                                            END OF HEADER
 11  9 25 16 30  0.0000000  0  8G08G11G07G17G19G24G26G28
   -328509.56658   -254130.47054  20013342.3674                   20013342.3794
    -37307.34457    -31894.35653  21471330.9694                   21471329.8754
    104477.41458     74131.01954  20461039.6954                   20461039.9144
   -660264.28557   -505775.47253  22101732.2664                   22101733.0044
     40804.92256     22520.78853  24378492.0474                   24378488.3674
   -313936.60257   -234202.10653  22041231.8134                   22041233.1054
   -381163.12957   -289067.04353  22799734.4144                   22799735.3094
   -310920.70758   -242065.68653  21815717.9534                   21815716.5394
 11  9 25 16 30 30.0000000  0  8G08G11G07G17G19G24G26G28
   -375325.80948   -290610.69944  20004433.6024                   20004432.7854
    -41169.75848    -34904.11543  21470596.0864                   21470596.0784
    121153.98848     87125.72744  20464213.6334                   20464213.1414
   -755812.53147   -580228.62043  22083550.1724                   22083551.2734
    125740.91046     88704.52742  24394653.5864                   24394654.5944
   -356740.85547   -267556.05043  22033086.4924                   22033088.1054
   -435563.23447   -331456.86343  22789382.6884                   22789385.1414
   -356795.19548   -277812.06444  21806987.5474                   21806987.3014
 11  9 25 16 31  0.0000000  0  8G08G11G07G17G19G24G26G28
   -421815.09848   -326836.12544  19995587.1884                   19995586.9924
    -44587.09848    -37567.00343  21469945.7504                   21469944.3284
    138177.35248    100390.67344  20467453.1884                   20467451.5784
   -851168.52747   -654531.94343  22065404.2664                   22065404.8364
    210574.699 6                  24410797.734
   -399170.52747   -300618.16443  22025012.0784                   22025014.3244
   -489504.27047   -373488.59043  22779117.8444                   22779119.4264
   -402763.78548   -313631.71943  21798240.8204                   21798239.4184
 11  9 25 16 31 30.0000000  0  8G08G11G07G17G19G24G26G28
   -467965.48448   -362797.49944  19986805.2974                   19986804.8284
    -47549.85248    -39875.65143  21469382.0634                   21469380.8204
    155557.51248    113933.57644  20470759.9144                   20470759.1214
   -946321.02747   -728676.69643  22047297.9384                   22047298.6094
    295314.215 6                  24426922.719
   -441213.92647   -333379.21143  22017011.5864                   22017012.4414
   -542975.52747   -415154.51743  22768942.9844                   22768944.0434
   -448816.55948   -349517.01443  21789476.8984                   21789475.7974
 11  9 25 16 32  0.0000000  0  8G08G11G07G17G19G24G26G28
   -513770.50048   -398489.75044  19978088.9304                   19978088.0594
    -50053.96948    -41827.01143  21468905.6334                   21468903.6804
    173298.35248    127757.57844  20474136.2894                   20474135.2384
  -1041265.04747   -802659.05743  22029230.1644                   22029229.5744
    379961.55546    286797.95853  24443030.5474                   24443032.5004
   -482865.45347   -365834.99643  22009085.5234                   22009087.4884
   -595972.363 7                  22758857.203
   -494950.02748   -385465.19243  21780697.9614                   21780697.1024
 11  9 25 16 32 30.0000000  0  8G08G11G07G17G19G24G26G28
   -559204.62548   -433893.00244  19969443.0554                   19969441.8984
    -52076.57848    -43403.04743  21468520.8204                   21468520.0204
    191423.21548    141880.76444  20477584.8914                   20477583.8554
  -1135976.43047   -876460.06843  22011207.4694                   22011207.1884
    464537.504 6                  24459125.539
   -524100.13347   -397965.95543  22001238.3674                   22001239.2424
   -648470.22347   -497358.38053  22748867.8914                   22748868.8404
   -541141.18748   -421458.31543  21771907.8914                   21771907.4104
 11  9 25 16 33  0.0000000  0  8G08G11G07G17G19G24G26G28
   -604239.40648   -468985.02845  19960873.0704                   19960872.2974
    -53591.60948    -44583.60943  21468232.6884                   21468232.4064
    209958.36748    156323.69044  20481112.3364                   20481111.3794
  -1230427.25448   -950058.03943  21993233.9694                   21993233.9224
    549066.160 5                  24475210.414
   -564889.81247   -429750.10943  21993476.6024                   21993476.3954
   -700442.23047   -537855.89443  22738977.4454                   22738979.3484
   -587363.57448   -457475.82043  21763112.5864                   21763111.7624
 11  9 25 16 33 30.0000000  0  8G08G11G07G17G19G24G26G28
   -648858.18048   -503752.95344  19952382.4224                   19952381.4384
    -54584.66448    -45357.45243  21468043.9304                   21468043.2584
    228918.46548    171097.75144  20484720.5864                   20484720.1844
  -1324601.99248  -1023440.93243  21975312.9144                   21975313.3874
    633560.367 6                  24491289.742
   -605218.55547   -461174.94543  21985802.1174                   21985803.7704
   -751872.73047   -577931.46843  22729190.3054                   22729191.9884
   -633602.96548   -493506.47344  21754313.2194                   21754312.0234
 11  9 25 16 34  0.0000000  0  8G08G11G07G17G19G24G26G28
    882375.78948    689416.39944  20243766.3834                   20243766.4734
   1520376.95748   1181885.38643  21767749.1484                   21767748.2194
   1823735.78548   1413812.50944  20788204.0634                   20788203.1054
    156936.68048    131004.74643  22257240.6484                   22257240.7544
   2293448.28146   1777825.82452  24807156.2344                   24807156.1214
    930349.72347    735371.61043  22278011.5234                   22278013.0084
    772673.35247    610026.39443  23019301.6174                   23019303.0594
    895575.03148    698060.78843  22045306.4534                   22045304.8834
 11  9 25 16 34 30.0000000  0  8G08G11G07G17G19G24G26G28
    838630.30948    655328.97644  20235441.9774                   20235441.9264
   1520461.84048   1181951.50943  21767764.9304                   21767763.7894
   1843580.44548   1429275.83344  20791980.5004                   20791979.3954
     63352.55548     58082.16444  22239432.0004                   22239432.2544
                   2377902.449 6                                  24823226.945
    890982.79747    704696.06543  22270519.7424                   22270521.3874
    722362.56347    570823.25643  23009728.2344                   23009729.2344
    849335.84847    662030.27143  22036507.2424                   22036505.3794
 11  9 25 16 35  0.0000000  0  8G08G11G07G17G19G24G26G28
    795331.86748    621589.88844  20227202.2194                   20227201.4804
   1521092.27348   1182442.67543  21767884.6024                   21767884.0704
   1863874.47348   1445089.27644  20795842.1174                   20795841.8054
    -29927.70748    -14603.68843  22221681.3134                   22221681.4804
                   2462340.480 6                                  24839295.773
    852106.39847    674402.88843  22263121.9614                   22263122.9804
    672619.78547    532062.57643  23000261.8754                   23000263.7034
    803103.64548    626005.15544  22027709.3444                   22027708.6804
 11  9 25 16 35 30.0000000  0  8G08G11G07G17G19G24G26G28
    752486.00048    588203.46144  20219049.0474                   20219048.8754
   1522271.61748   1183361.68443  21768109.1254                   21768107.0274
   1884621.31348   1461255.62544  20799790.2504                   20799790.3164
   -122899.21148    -87048.96544  22203989.3444                   22203990.9064
   2546763.94546   1975214.02143  24855360.1884                   24855361.5164
    813725.49247    644495.72143  22255818.2034                   22255818.8284
    623449.46147    493748.02543  22990905.6254                   22990905.6454
    756881.79748    589988.12944  22018913.7974                   22018912.6644
 11  9 25 16 36  0.0000000  0  8G08G11G07G17G19G24G26G28
    710091.57848    555168.86244  20210981.8444                   20210981.2074
   1523995.91848   1184705.20143  21768437.4774                   21768436.4654
   1905817.46948   1477772.05344  20803823.8204                   20803823.5554
   -215564.33648   -159255.55043  22186356.0634                   22186356.6024
   2631167.367 6                                                  24871422.203
    775838.28947    614973.09143  22248609.0554                   22248609.3484
    574848.75447    455877.41743  22981657.1174                   22981659.1374
    710666.63347    553976.31843  22010118.8594                   22010118.7034
 11  9 25 16 36 30.0000000  0  8G08G11G07G17G19G24G26G28
    668152.26648    522488.85644  20203001.3914                   20203000.9304
   1526266.66048   1186474.61743  21768869.4774                   21768868.7384
   1927464.64148   1494639.90644  20807943.1644                   20807942.4924
   -307920.26248   -231221.14744  22168781.3444                   22168780.9614
   2715550.47746   2106735.77752  24887480.0394                   24887479.4494
    738448.18847    585838.04843  22241493.2194                   22241495.6214
    526820.08247    418452.48443  22972518.1414                   22972519.9384
    664460.13348    517971.20044  22001326.2894                   22001325.1024
 11  9 25 16 37  0.0000000  0  8G08G11G07G17G19G24G26G28
    626672.30148    490166.75444  20195107.5394                   20195107.4144
   1529085.87148   1188671.36143  21769406.1724                   21769404.5554
   1949564.85948   1511860.84244  20812148.8054                   20812148.1094
   -399963.65248   -302943.26743  22151265.8364                   22151266.3444
   2799913.664 6                                                  24903534.734
    701558.75047    557092.93143  22234473.5474                   22234475.2624
    479366.55947    381475.53843  22963487.5474                   22963488.4734
    618264.29348    481974.48643  21992535.7504                   21992534.5514
 11  9 25 16 37 30.0000000  0  8G08G11G07G17G19G24G26G28
    585653.14548    458203.78044  20187302.0864                   20187302.0434
   1532452.23048   1191294.48543  21770046.7114                   21770045.7504
   1972117.28148   1529434.06144  20816440.6884                   20816440.1134
   -491694.12148   -374421.48643  22133809.8524                   22133809.8524
   2884254.188 6                                                  24919582.891
    665170.73447    528738.65843  22227550.0784                   22227550.5864
    432487.77347    344946.72643  22954566.0864                   22954567.6844
    572078.08248    445985.20943  21983746.7424                   21983745.0514
 11  9 25 16 38  0.0000000  0  7G08G11G07G17G24G26G28
    545095.10548    426600.09844  20179584.0394                   20179583.8754
   1536363.03148   1194341.79743  21770790.5394                   21770790.1954
   1995120.04748   1547358.27944  20820817.7584                   20820817.4064
   -583112.73048   -445656.75343  22116413.4694                   22116413.1094
    629283.75847    500774.81043  22220720.6954                   22220722.3204
    386182.52047    308864.75843  22945755.2814                   22945756.3284
    525899.53948    410001.96543  21974959.3054                   21974958.3164
 11  9 25 16 38 30.0000000  0  7G08G11G07G17G24G26G28
    505003.85548    395360.10444  20171955.3364                   20171954.1724
   1540821.93447   1197816.23743  21771639.5004                   21771638.4734
   2018576.20348   1565635.69744  20825281.4144                   20825281.1054
   -674214.68048   -516645.25344  22099077.3134                   22099076.7664
    593903.09447    473205.50643  22213987.2344                   22213989.0354
    340454.90247    273232.76043  22937053.3054                   22937054.4224
    479732.32048    374027.45943  21966173.9454                   21966173.0004
 11  9 25 16 39  0.0000000  0  7G08G11G07G17G24G26G28
    465387.16848    364489.93344  20164416.3594                   20164415.6644
   1545834.23848   1201721.88043  21772593.4614                   21772591.4494
   2042491.74648   1584271.16944  20829832.5314                   20829831.2504
   -764992.79348   -587381.48143  22081802.6564                   22081803.5634
    559036.04747    446036.30443  22207352.4844                   22207354.9384
    295311.71547    238056.38743  22928462.9454                   22928464.5004
    433582.39148    338066.44143  21957392.0004                   21957390.8404
 11  9 25 16 39 30.0000000  0  7G08G11G07G17G24G26G28
    426250.49648    333993.81744  20156969.0004                   20156968.2194
   1551402.77048   1206060.96643  21773653.0784                   21773651.3404
   2066869.67648   1603266.89744  20834471.1414                   20834471.5904
   -855443.09848   -657862.15043  22064590.2814                   22064590.5824
    524687.25447    419271.03543  22200816.1954                   22200817.6134
    250756.41047    203337.84543  22919984.2814                   22919983.9454
    387452.51248    302121.05043  21948613.6804                   21948612.1134
 11  9 25 16 40  0.0000000  0  7G08G11G07G17G24G26G28
    387598.05148    303875.00744  20149613.7504                   20149612.7664
   1557529.03947   1210834.65243  21774818.8524                   21774818.1374
   2091712.05148   1622624.53144  20839198.8134                   20839198.5554
   -945562.17248   -728084.77443  22047441.3754                   22047441.8404
    490860.42247    392912.42243  22194379.2734                   22194380.5514
    206791.73847    169079.61143  22911618.5394                   22911619.0004
    341345.36348    266193.44943  21939839.8284                   21939838.3634
 11  9 25 16 40 30.0000000  0  7G08G11G07G17G24G26G28
    349429.78148    274133.46244  20142350.5784                   20142350.3754
   1564210.48047   1216040.87243  21776090.5394                   21776089.4534
   2117016.63348   1642342.36344  20844013.9844                   20844013.2504
  -1035351.09448   -798050.15744  22030355.3054                   22030355.8444
    457554.68047    366959.84143  22188041.3364                   22188041.9774
    163416.16847    135280.47343  22903363.7504                   22903365.4804
    295258.62948    230281.65943  21931069.7814                   21931069.7934
 11  9 25 16 41  0.0000000  0  7G08G11G07G17G24G26G28
    311739.29748    244764.24944  20135178.0314                   20135177.5004
   1571438.21948   1221672.92743  21777465.7344                   21777464.2854
   2142774.66848   1662413.48244  20848915.7274                   20848915.3014
  -1124817.27348   -867764.00544  22013330.5474                   22013330.4144
    424763.00047    341407.81743  22181801.3524                   22181802.4694
    120621.76647    101934.20443  22895220.9844                   22895221.6374
    249183.93847    194379.33243  21922301.8284                   21922301.2464
 11  9 25 16 41 30.0000000  0  7G08G11G07G17G24G26G28
    274531.03548    215770.77544  20128097.5634                   20128097.4614
   1579214.12147   1227731.95643  21778944.8834                   21778943.7074
   2168988.37148   1682839.70844  20853904.2814                   20853903.7464
  -1213957.49248   -937223.91244  21996367.7424                   21996368.1684
    392489.04347    316259.37243  22175659.7734                   22175660.2154
     78411.35547     69042.94942  22887188.2504                   22887188.6054
    203123.59048    158488.15744  21913537.0784                   21913536.1764
 11  9 25 16 42  0.0000000  0  7G08G11G07G17G24G26G28
    237804.85948    187152.96144  20121108.8674                   20121108.5824
   1587535.31647   1234215.96743  21780528.8524                   21780527.2114
   2195655.19548   1703619.04644  20858978.7424                   20858978.1994
  -1302772.61348  -1006430.40744  21979466.5394                   21979467.1644
    360732.04347    291513.64043  22169616.7584                   22169617.4384
     36783.19547     36605.50443  22879266.7664                   22879269.0554
    157075.68448    122606.59043  21904774.6804                   21904773.4144
 11  9 25 16 42 30.0000000  0  7G08G11G07G17G24G26G28
    201564.22348    158913.47944  20114212.7974                   20114212.4574
   1596402.77047   1241125.67343  21782216.4774                   21782214.7584
   2222776.71148   1724752.63444  20864139.7664                   20864139.1884
  -1391259.91448  -1075381.57643  21962628.0554                   21962627.3874
    329494.96547    267173.06943  22163672.4384                   22163673.0394
     -4260.49647      4623.10543  22871456.7894                   22871458.1914
    111041.62548     86735.91243  21896014.4384                   21896013.8364
 11  9 25 16 43  0.0000000  0  7G08G11G07G17G24G26G28
    165810.16048    131053.16444  20107408.7974                   20107408.3134
   1605815.25447   1248460.06743  21784007.3284                   21784006.7704
   2250351.74248   1746239.65744  20869387.3054                   20869386.2894
  -1479419.51648  -1144077.34143  21945851.4774                   21945851.1764
    298778.51247    243238.19243  22157827.4224                   22157829.0904
    -44720.43047    -26903.92043  22863757.7194                   22863757.4844
     65021.03548     50875.70444  21887256.7424                   21887255.5864
 11  9 25 16 43 30.0000000  0  7G08G11G07G17G24G26G28
    130545.82448    103574.43444  20100698.1724                   20100697.5124
   1615772.72347   1256219.08643  21785902.1884                   21785901.6094
   2278380.58248   1768080.28044  20874720.6484                   20874720.2114
  -1567249.65248  -1212516.35243  21929138.5004                   21929138.3444
    268584.39847    219710.35943  22152081.3284                   22152083.0164
    -84595.54747    -57975.42443  22856169.6954                   22856170.6914
     19014.41848     15026.36243  21878502.0474                   21878501.6724
 11  9 25 16 44  0.0000000  0  7G08G11G07G17G24G26G28
     95774.35948     76479.74744  20094081.4614                   20094080.4024
   1626275.75447   1264403.14143  21787901.0554                   21787898.4104
   2306864.45348   1790275.49044  20880141.2114                   20880140.8754
  -1654747.79347  -1280696.71244  21912487.8914                   21912487.8834
    238915.27047    196591.60143  22146435.2664                   22146436.6644
   -123884.14147    -88589.99143  22848692.3364                   22848693.6914
    -26976.82047    -20810.97443  21869750.1174                   21869749.4304
 11  9 25 16 44 30.0000000  0  7G08G11G07G17G24G26G28
     61497.59848     49770.52944  20087558.7734                   20087558.4654
   1637324.15247   1273012.25243  21790003.4924                   21790002.7464
   2335803.37148   1812825.23544  20885647.8834                   20885647.3914
  -1741913.16447  -1348617.72444  21895901.0314                   21895900.8754
    209772.75847    173883.13843  22140890.4144                   22140891.0314
   -162585.41447   -118746.68643  22841328.4614                   22841329.9964
    -72952.25848    -56636.08144  21861001.4304                   21861000.7074
 11  9 25 16 45  0.0000000  0  7G08G11G07G17G24G26G28
     27716.17248     23447.35344  20081130.4924                   20081130.7934
   1648915.52347   1282044.50543  21792209.5474                   21792208.4144
   2365195.07048   1835727.83544  20891241.2504                   20891240.5314
  -1828745.91847  -1416279.62143  21879377.4224                   21879376.7934
    181156.25847    151584.52643  22135444.4614                   22135445.2814
   -200700.75447   -148447.13343  22834074.9224                   22834076.1954
   -118913.29748    -92449.82244  21852255.4304                   21852255.2154
 11  9 25 16 45 30.0000000  0  7G08G11G07G17G24G26G28
     -5567.82048     -2488.26844  20074796.4694                   20074796.1484
   1661049.18047   1291499.23943  21794518.5314                   21794517.5514
   2395039.51648   1858983.14044  20896920.5394                   20896919.5474
  -1915245.09047  -1483681.50943  21862916.7664                   21862916.7034
    153067.30947    129696.97743  22130099.8524                   22130100.3874
   -238229.88347   -177690.51443  22826934.1334                   22826934.8094
   -164859.62948   -128252.14943  21843512.4224                   21843510.4804
 11  9 25 16 46  0.0000000  0  7G08G11G07G17G24G26G28
    -38349.70748    -28032.60544  20068558.5864                   20068558.1724
   1673727.57847   1301378.49243  21796930.6804                   21796930.3364
   2425339.27748   1882593.36244  20902686.6334                   20902685.8324
  -2001406.90247  -1550820.56644  21846520.6334                   21846521.1454
    125509.97747    108223.81443  22124855.0944                   22124856.3094
   -275169.67647   -206474.63143  22819904.3594                   22819904.5394
   -210788.26248   -164040.73344  21834772.2424                   21834770.7154
 11  9 25 16 46 30.0000000  0  7G08G11G07G17G24G26G28
    -70628.80148    -53185.19144  20062415.8284                   20062415.4534
   1686948.52047   1311680.42743  21799446.4224                   21799446.8094
   2456092.92248   1906557.13544  20908538.6644                   20908537.6334
  -2087231.72347  -1617697.00244  21830188.9454                   21830189.2504
     98484.12147     87164.66043  22119712.5474                   22119713.8244
   -311521.035 7                  22812986.711
   -256700.50048   -199816.48943  21826035.5554                   21826033.9924
 11  9 25 16 47  0.0000000  0  7G08G11G07G17G24G26G28
   -102404.98048    -77945.85444  20056369.0634                   20056368.1954
   1700709.43447   1322403.19143  21802065.8984                   21802064.6724
   2487297.88748   1930872.64044  20914476.8134                   20914476.2194
  -2172720.29348  -1684311.43043  21813921.0084                   21813921.6054
     71989.25047     66519.32943  22114670.8834                   22114672.6804
   -347285.73447   -262669.14253  22806180.3444                   22806182.5634
   -302597.62948   -235580.51843  21817301.3524                   21817300.5234
 11  9 25 16 47 30.0000000  0  7G08G11G07G17G24G26G28
   -133677.04748   -102313.75844  20050418.1954                   20050417.6134
   1715009.28547   1333545.85143  21804786.9064                   21804786.1764
   2518953.27348   1955539.13744  20920501.0234                   20920499.7274
  -2257872.16847  -1750663.54744  21797716.5394                   21797716.7894
     46025.86747     46288.11943  22109730.0554                   22109732.2934
   -382463.78947   -290080.49443  22799487.0234                   22799488.5124
   -348480.21148   -271333.15643  21808570.3204                   21808569.5204
 11  9 25 16 48  0.0000000  0  7G08G11G07G17G24G26G28
   -164441.51648   -126286.09644  20044564.2034                   20044563.8014
   1729848.39847   1345108.80643  21807610.7584                   21807609.7464
   2551060.31648   1980557.56644  20926610.9694                   20926610.0004
  -2342685.17648  -1816751.58943  21781577.1484                   21781577.4614
     20596.30547     26472.79443  22104890.5784                   22104892.6094
   -417053.92647   -317033.96543  22792904.6024                   22792905.4734
   -394346.74647   -307073.33043  21799842.2504                   21799841.2704
 11  9 25 16 48 30.0000000  0  7G08G11G07G17G24G26G28
   -194697.10548   -149861.91844  20038807.1484                   20038806.4384
   1745225.86747   1357091.26443  21810537.0394                   21810535.3834
   2583618.48048   2005927.51144  20932806.1954                   20932805.2624
  -2427158.57047  -1882574.98544  21765502.7424                   21765502.3364
     -4298.34447      7074.34343  22100153.3834                   22100155.1884
   -451056.15647   -343529.19843  22786434.2114                   22786437.3404
   -440197.08648   -342800.92643  21791117.0314                   21791116.1804
 11  9 25 16 49  0.0000000  0  7G08G11G07G17G24G26G28
   -224445.93448   -173042.86444  20033145.8444                   20033145.4774
   1761136.41847   1369488.96143  21813564.5234                   21813563.5904
   2616622.87948   2031645.15244  20939086.8284                   20939086.0784
  -2511295.50047  -1948136.17644  21749491.4614                   21749491.5664
    -28661.46147    -11909.88043  22095517.9534                   22095517.9064
   -484474.59447   -369569.51743  22780074.8524                   22780076.3554
   -486035.14848   -378518.87444  21782394.9064                   21782394.3134
 11  9 25 16 49 30.0000000  0  7G08G11G07G17G24G26G28
   -253684.05548   -195825.80644  20027581.9064                   20027581.4184
   1777581.16847   1382303.03443  21816693.4064                   21816692.6254
   2650074.63748   2057711.34744  20945452.1954                   20945452.0044
  -2595093.52747  -2013433.30744  21733545.8524                   21733545.3324
    -52490.23847    -30477.75443  22090983.1564                   22090984.4574
   -517307.50447   -395153.60943  22773827.4384                   22773828.7384
   -531858.91848   -414225.77344  21773674.7814                   21773673.8164
 11  9 25 16 50  0.0000000  0  7G08G11G07G17G24G26G28
   -282408.41448   -218208.52144  20022115.9144                   20022115.7234
   1794560.94948   1395533.94143  21819925.0864                   21819924.6254
   2683975.30948   2084127.42244  20951903.3444                   20951902.8204
  -2678549.92647  -2078464.22243  21717664.4614                   21717664.3014
    -75781.70747    -48626.99743  22086550.7194                   22086552.0314
   -549552.96547   -420280.05443  22767690.4924                   22767692.4924
   -577666.30548   -449919.82243  21764957.6954                   21764956.6764
 11  9 25 16 50 30.0000000  0  7G08G11G07G17G24G26G28
   -310619.35948   -240191.06744  20016747.6804                   20016746.8954
   1812072.66448   1409179.41443  21823257.6024                   21823256.7074
   2718322.07448   2110891.04044  20958439.9064                   20958438.4384
  -2761666.11347  -2143230.09243  21701847.9774                   21701847.6454
    -98536.96547    -66358.24343  22082220.6254                   22082222.2664
   -581213.14147   -444950.41743  22761666.5944                   22761667.9344
   -623459.36348   -485602.74143  21756243.5314                   21756242.6374
 11  9 25 16 51  0.0000000  0  7G08G11G07G17G24G26G28
   -338314.33648   -261771.60944  20011477.6174                   20011476.8674
   1830115.96548   1423239.12143  21826690.9534                   21826690.0084
   2753114.99248   2138002.41244  20965060.6564                   20965059.4924
  -2844440.50847  -2207729.56543  21686096.4454                   21686097.1684
   -120754.54747    -83670.69743  22077992.5004                   22077994.0554
   -612287.35947   -469163.96443  22755752.7894                   22755753.7894
   -669237.13748   -521273.75043  21747532.5084                   21747530.8754
 11  9 25 16 51 30.0000000  0  7G08G11G07G17G24G26G28
   -365489.21148   -282946.83444  20006306.4384                   20006305.2464
   1848692.72748   1437714.44843  21830226.0554                   21830225.5664
   2788356.53948   2165463.26944  20971766.9844                   20971766.1954
  -2926869.51247  -2271959.95943  21670410.9774                   21670411.1604
   -142430.88347   -100561.36943  22073868.2114                   22073868.8674
   -642772.96947   -492919.07842  22749952.1094                   22749952.6914
   -714996.60248   -556930.43943  21738824.6564                   21738823.9304
 11  9 25 16 52  0.0000000  0  7G08G11G07G17G24G26G28
   -392141.19148   -303714.64644  20001234.7504                   20001233.4844
   1867802.81648   1452605.36843  21833862.7344                   21833861.9964
   2824046.87147   2193273.82044  20978558.5164                   20978557.4924
  -3008951.27047  -2335919.71644  21654791.1334                   21654791.1844
   -163563.73847   -117028.63243  22069846.5554                   22069848.1174
   -672669.03547   -516214.74543  22744263.2504                   22744264.2734
   -760736.62148   -592572.05843  21730120.7034                   21730119.2384
 11  9 25 16 52 30.0000000  0  7G08G11G07G17G24G26G28
   -418268.74248   -324073.79844  19996262.7894                   19996262.4184
   1887445.16447   1467911.10043  21837600.0474                   21837599.7854
   2860185.77048   2221433.95844  20985435.5634                   20985435.0554
  -3090685.34847  -2399608.59043  21639237.6094                   21639237.6994
   -184152.63747   -133071.97543  22065928.2194                   22065930.0004
   -701975.88747   -539051.27243  22738685.8984                   22738687.1644
   -806456.94148   -628198.22644  21721420.7424                   21721419.0824
 11  9 25 16 53  0.0000000  0  7G08G11G07G17G24G26G28
   -443870.49248   -344023.23944  19991390.6644                   19991390.0664
   1907618.41848   1483630.49143  21841439.2034                   21841438.6804
   2896771.73047   2249942.43344  20992397.3754                   20992397.0594
  -3172071.24647  -2463026.21344  21623749.8524                   21623750.3594
   -204197.06247   -148690.96543  22062114.0474                   22062115.0944
   -730693.94147   -561428.99743  22733221.3524                   22733221.8594
   -852157.05548   -663808.73143  21712723.8204                   21712722.5744
 11  9 25 16 53 30.0000000  0  7G08G11G07G17G24G26G28
   -468943.95348   -363561.04144  19986619.5084                   19986618.7344
   1928322.19148   1499763.18943  21845379.3204                   21845378.3594
   2933804.85547   2278799.31544  20999444.7194                   20999444.3874
  -3253107.49647  -2526171.27544  21608329.8524                   21608329.3714
   -223695.71147   -163884.80043  22058404.3674                   22058405.1374
   -758822.77747   -583347.71043  22727868.4384                   22727869.6134
   -897837.43448   -699403.80643  21704031.0944                   21704029.6294
 11  9 25 16 54  0.0000000  0  7G08G11G07G17G24G26G28
   -493488.42648   -382686.63844  19981948.6484                   19981948.2154
   1949555.16048   1516308.35043  21849419.4304                   21849418.5944
   2971284.07447   2308003.83344  21006576.9614                   21006576.5514
  -3333793.96947  -2589043.81544  21592975.8524                   21592975.7464
   -242647.92647   -178652.65943  22054797.1484                   22054799.0474
   -786363.16847   -604807.67653  22722627.8284                   22722626.6294
   -943497.30148   -734982.99143  21695342.4614                   21695341.7274
 11  9 25 16 54 30.0000000  0  7G08G11G07G17G24G26G28
   -517500.87948   -401397.66144  19977379.5164                   19977378.7034
   1971317.07848   1533265.57043  21853560.9924                   21853560.1414
   3009209.91047   2337556.39344  21013793.8134                   21013793.5004
  -3414128.48847  -2651642.17144  21577688.2504                   21577688.3014
   -261052.12547   -192993.76243  22051295.2344                   22051296.8054
   -813314.00047   -625808.44543  22717498.7424                   22717500.4734
   -989135.38748   -770545.16044  21686657.8204                   21686656.6684
 11  9 25 16 55  0.0000000  0  7G08G11G07G17G24G26G28
   -540980.96947   -419693.88044  19972911.1884                   19972910.3284
   1993605.48848   1550633.12143  21857802.2034                   21857801.9964
   3047580.35947   2367455.35144  21021095.5314                   21021095.5164
  -3494111.85247  -2713966.83144  21562468.1804                   21562468.1374
   -278908.74247   -206907.96643  22047897.3284                   22047898.1094
   -839676.83247   -646350.78243  22712482.4304                   22712484.1214
  -1034752.48048   -806090.99244  21677977.0004                   21677975.8324
 11  9 25 16 55 30.0000000  0  7G08G11G07G17G24G26G28
   -563925.37948   -437572.66244  19968545.1884                   19968544.7304
   2016421.10548   1568411.49043  21862144.3444                   21862144.5084
   3086396.29747   2397701.46044  21028482.3754                   21028482.3984
  -3573741.48047  -2776015.86244  21547314.8754                   21547314.7194
   -296215.30147   -220393.55843  22044603.5634                   22044604.7974
   -865450.26647   -666433.97643  22707577.3444                   22707579.6644
  -1080346.56648   -841618.82643  21669301.0004                   21669300.2504
 11  9 25 16 56  0.0000000  0  7G08G11G07G17G24G26G28
   -586331.96147   -455032.37944  19964281.6804                   19964281.0594
   2039763.61748   1586600.33543  21866585.6564                   21866585.5394
   3125658.18447   2428295.07644  21035953.7274                   21035953.1954
  -3653015.98847  -2837788.19944  21532229.5634                   21532228.8714
   -312970.19147   -233449.40343  22041415.2664                   22041417.2234
   -890633.63747   -686057.34543  22702785.4064                   22702787.9884
  -1125916.48048   -877127.91543  21660629.3984                   21660628.2934
 11  9 25 16 56 30.0000000  0  7G08G11G07G17G24G26G28
   -608198.68048   -472071.41144  19960120.7034                   19960120.2114
   2063632.70348   1605199.51343  21871128.6414                   21871128.1454
   3165365.93847   2459236.06944  21043509.5394                   21043509.6334
  -3731934.03547  -2899282.76044  21517211.6024                   21517211.9924
   -329172.16047   -246074.34343  22038332.5084                   22038334.1254
   -915226.80947   -705221.01143  22698105.8134                   22698107.4454
  -1171461.29748   -912617.34544  21651962.1954                   21651962.4344
 11  9 25 16 57  0.0000000  0  7G08G11G07G17G24G26G28
   -629525.82048   -488690.01844  19956061.8444                   19956061.6994
   2088025.08248   1624206.57643  21875769.9774                   21875770.2934
   3205516.90247   2490522.47144  21051150.8204                   21051150.0124
  -3810496.60247  -2960500.36344  21502261.9774                   21502262.1804
   -344822.24647   -258269.43543  22035354.2664                   22035355.5474
   -939231.81647   -723926.15543  22693538.2424                   22693539.2194
  -1216982.02348   -948088.11143  21643299.9614                   21643299.4694
 11  9 25 16 57 30.0000000  0  7G08G11G07G17G24G26G28
   -650312.30948   -504887.31344  19952106.4774                   19952105.7234
   2112939.00847   1643619.89443  21880511.1094                   21880510.8484
   3246109.71147   2522153.20644  21058874.7584                   21058875.0004
  -3888703.65247  -3021440.88944  21487379.6564                   21487379.3834
   -359920.49647   -270034.22043  22032481.3204                   22032482.1294
   -962649.64547   -742173.90243  22689081.4694                   22689083.4104
  -1262479.29748   -983540.56743  21634642.1644                   21634641.1134
 11  9 25 16 58  0.0000000  0  7G08G11G07G17G24G26G28
   -670558.98047   -520663.98444  19948253.6094                   19948253.3594
   2138371.02347   1663437.01343  21885350.8834                   21885349.9384
   3287141.19947   2554125.67144  21066682.9694                   21066683.3134
  -3966556.99247  -3082105.81344  21472564.5004                   21472564.9884
   -374468.69947   -281370.49643  22029713.1414                   22029714.3284
   -985483.10947   -759966.26443  22684736.2734                   22684737.2114
  -1307955.08247  -1018976.20544  21625988.8134                   21625988.1454
 11  9 25 16 58 30.0000000  0  7G08G11G07G17G24G26G28
   -690261.78147   -536016.82644  19944504.4694                   19944504.0434
   2164322.53948   1683658.86643  21890288.8834                   21890287.5164
   3328613.17647   2586441.45544  21074574.7194                   21074573.9494
  -4044053.07847  -3142492.34444  21457817.6094                   21457817.4884
   -388463.37547   -292275.54443  22027049.4534                   22027050.5864
  -1007729.89546   -777301.39343  22680502.7894                   22680504.7504
  -1353405.98048  -1054392.51244  21617339.7504                   21617338.9454
 11  9 25 16 59  0.0000000  0  7G08G11G07G17G24G26G28
   -709421.95747   -550946.86044  19940858.3524                   19940858.0514
   2190789.66447   1704282.59243  21895325.8444                   21895324.8444
   3370522.19947   2619097.78344  21082550.2814                   21082550.0204
  -4121194.18047  -3202602.28944  21443137.9614                   21443137.9964
   -401907.08647   -302751.01643  22024491.7274                   22024493.1214
  -1029393.34047   -794182.14143  22676380.7584                   22676381.5904
  -1398834.93047  -1089791.71344  21608694.6254                   21608694.0514
 11  9 25 16 59 30.0000000  0  7G08G11G07G17G24G26G28
   -728037.10547   -565452.20344  19937315.9924                   19937315.3164
   2217771.64148   1725307.32043  21900460.7344                   21900459.1844
   3412868.34447   2652094.68544  21090608.3284                   21090608.0554
  -4197978.64847  -3262434.34444  21428526.5864                   21428526.4884
   -414798.25047   -312796.23643  22022038.5554                   22022039.1334
  -1050473.07047   -810607.83343  22672369.6334                   22672369.9964
  -1444240.00447  -1125172.33643  21600054.3444                   21600053.6884
 11  9 25 17  0  0.0000000  0  7G08G11G07G17G24G26G28
   -746105.92648   -579531.83644  19933877.6954                   19933877.2344
   2245267.40647   1746732.61643  21905692.0704                   21905691.7384
   3455650.92247   2685431.69044  21098749.5784                   21098749.7154
  -4274405.90247  -3321988.01744  21413983.0084                   21413982.8554
   -427136.30947   -322410.35343  22019690.8364                   22019692.9924
  -1070969.05547   -826578.81843  22668469.4304                   22668470.1524
  -1489620.82447  -1160534.03343  21591419.0554                   21591417.5594
 11  9 25 17  0 30.0000000  0  7G08G11G07G17G24G26G28
   -763629.13348   -593186.33444  19930543.2664                   19930542.8324
   2273273.85947   1768555.73943  21911021.6254                   21911022.0904
   3498867.18047   2719106.62144  21106973.2814                   21106973.0784
  -4350477.24647  -3381264.40144  21399506.7424                   21399506.8364
   -438922.45347   -331594.33243  22017447.8524                   22017448.5664
  -1090884.09047   -842097.06843  22664679.7664                   22664681.1214
  -1534978.87547  -1195877.96144  21582787.4844                   21582786.2894
 11  9 25 17  1  0.0000000  0  7G08G11G07G17G24G26G28
   -780605.02048   -606414.32844  19927312.8984                   19927312.4384
   2301789.93448   1790775.84343  21916448.8834                   21916448.1684
   3542516.23447   2753118.85644  21115279.6414                   21115280.0204
  -4426191.89147  -3440262.79144  21385098.8284                   21385098.1214
   -450156.27048   -340347.93843  22015310.5004                   22015311.7974
  -1110218.69147   -857163.09043  22660999.8134                   22661000.8554
  -1580313.38747  -1231203.59143  21574160.4384                   21574159.2424
 11  9 25 17  1 30.0000000  0  7G08G11G07G17G24G26G28
   -797032.54747   -619215.01244  19924186.6804                   19924186.1214
   2330814.12147   1813392.13543  21921971.0634                   21921970.5004
   3586597.23847   2787467.63544  21123668.3754                   21123667.2344
  -4501549.37147  -3498982.93043  21370758.9614                   21370758.7894
   -460837.42247   -348670.93543  22013277.7974                   22013278.3674
  -1128973.44547   -871777.27743  22657431.5864                   22657433.0744
  -1625624.23047  -1266510.71044  21565538.4614                   21565537.3834
 11  9 25 17  2  0.0000000  0  7G08G11G07G17G24G26G28
   -812911.23848   -631588.07344  19921165.0474                   19921164.9774
   2360344.11348   1836402.47643  21927591.4924                   21927590.7544
   3631108.57048   2822151.76944  21132138.2974                   21132138.6254
  -4576550.12147  -3557425.01744  21356486.9384                   21356486.1094
   -470966.21947   -356563.58943  22011349.8284                   22011352.9884
  -1147149.50847   -885940.43343  22653972.7114                   22653974.1454
  -1670911.59848  -1301799.57944  21556920.4534                   21556919.2114
 11  9 25 17  2 30.0000000  0  7G08G11G07G17G24G26G28
   -828238.98848   -643531.81444  19918248.3674                   19918247.7194
   2390379.22748   1859806.33243  21933306.7034                   21933305.4574
   3676049.61747   2857170.62844  21140690.1884                   21140690.2424
  -4651192.90247  -3615588.22444  21342282.5394                   21342282.3484
   -480541.94547   -364025.25243  22009527.9534                   22009529.2234
  -1164747.50847   -899653.02543  22650623.5704                   22650625.2974
  -1716174.86347  -1337069.67043  21548307.1174                   21548305.9384
 11  9 25 17  3  0.0000000  0  7G08G11G07G17G24G26G28
   -843015.09048   -655045.72644  19915436.8054                   19915436.2344
   2420917.81648   1883602.63243  21939118.4844                   21939117.3984
   3721419.55947   2892523.79643  21149324.1644                   21149324.0474
  -4725477.14147  -3673472.02944  21328146.5314                   21328146.6804
   -489564.04347   -371055.38143  22007811.0554                   22007812.2504
  -1181767.68747   -912915.60243  22647384.4534                   22647386.3204
  -1761413.20747  -1372320.39444  21539698.5554                   21539697.3484
 11  9 25 17  3 30.0000000  0  7G08G11G07G17G24G26G28
   -857240.68448   -666130.62844  19912729.4694                   19912729.1094
   2451955.80947   1907788.01243  21945024.5084                   21945023.2034
   3767215.01647   2928208.44544  21158038.5004                   21158038.3054
  -4799404.92247  -3731078.06644  21314078.8284                   21314078.8554
   -498034.62147   -377655.91143  22006199.1334                   22006200.1994
  -1198213.28547   -925730.40743  22644255.2504                   22644257.1254
  -1806628.42247  -1407553.04044  21531094.1724                   21531092.7304
 11  9 25 17  4  0.0000000  0  7G08G11G07G17G24G26G28
   -870912.50448   -676783.97644  19910128.0314                   19910127.2974
   2483494.07447   1932363.29843  21951025.4614                   21951026.4384
   3813436.42647   2964225.06644  21166834.5474                   21166834.0314
  -4872974.05147  -3788404.67544  21300079.0234                   21300078.6914
   -505951.80147   -383825.24043  22004693.1414                   22004693.8204
  -1214083.40647   -938096.81943  22641235.5634                   22641237.2544
  -1851818.27747  -1442765.92143  21522494.8834                   21522493.7034
 11  9 25 17  4 30.0000000  0  7G08G11G07G17G24G26G28
   -884030.30148   -687005.71744  19907632.0554                   19907631.9184
   2515530.23447   1957326.43043  21957122.8134                   21957122.2664
   3860082.16847   3000572.30144  21175710.5554                   21175710.6644
  -4946184.71147  -3845451.94344  21286147.5234                   21286147.2934
   -513316.22347   -389563.71443  22003291.4224                   22003292.4184
  -1229379.72347   -950016.07543  22638325.3284                   22638327.1524
  -1896983.26648  -1477959.39043  21513900.2734                   21513899.4774
 11  9 25 17  5  0.0000000  0  7G08G11G07G17G24G26G28
   -896595.27748   -696796.65944  19905240.9454                   19905240.7074
   2548060.11747   1982674.28943  21963312.0004                   21963311.2504
   3907149.24248   3037247.87644  21184667.4304                   21184667.4264
  -5019038.80147  -3902221.31244  21272284.0474                   21272283.1804
   -520129.61347   -394872.85243  22001995.1174                   22001996.2544
  -1244105.03946   -961490.32243  22635522.8834                   22635524.7814
  -1942124.96547  -1513134.76844  21505310.0554                   21505308.0554
 11  9 25 17  5 30.0000000  0  7G08G11G07G17G24G26G28
   -908605.67248   -706155.44144  19902955.2274                   19902955.6414
   2581083.26647   2008406.50543  21969596.6334                   21969595.9614
   3954636.96148   3074251.18744  21193703.6484                   21193704.1454
  -5091535.14847  -3958711.96144  21258488.5394                   21258488.4384
   -526391.43747   -399752.17543  22000803.2664                   22000804.5274
  -1258259.73047   -972520.00143  22632829.5394                   22632829.9574
  -1987242.37148  -1548291.18244  21496724.6174                   21496722.9804
 11  9 25 17  6  0.0000000  0  7G08G11G07G17G24G26G28
   -920059.84447   -715080.77144  19900775.6644                   19900775.2814
   2614598.43447   2034522.20343  21975974.1484                   21975973.8594
   4002544.90647   3111582.10344  21202820.3914                   21202820.6564
  -5163672.91847  -4014923.22143  21244760.5784                   21244760.6994
   -532100.58647   -404200.92343  21999716.7734                   21999718.8244
  -1271843.87946   -983105.14143  22630244.1174                   22630245.3954
  -2032334.16048  -1583427.64944  21488143.6804                   21488142.7774
 11  9 25 17  6 30.0000000  0  7G08G11G07G17G24G26G28
   -930955.18747   -723570.70444  19898702.2504                   19898702.3324
   2648606.14547   2061021.66743  21982446.0004                   21982446.5864
   4050873.93447   3149240.92644  21212017.3364                   21212016.8524
  -5235449.64547  -4070853.13544  21231102.5314                   21231102.1484
   -537255.29747   -408217.64543  21998735.6954                   21998736.6994
  -1284856.53547   -993244.82143  22627768.0004                   22627769.3554
  -2077398.00448  -1618542.35143  21479568.2974                   21479567.6684
 11  9 25 17  7  0.0000000  0  7G08G11G07G17G24G26G28
   -941292.80948   -731626.02044  19896735.3674                   19896734.9924
   2683102.31647   2087901.83043  21989010.3054                   21989010.0864
   4099620.35247   3187225.10343  21221293.4694                   21221293.7584
  -5306867.61747  -4126503.46144  21217511.6724                   21217512.0434
   -541857.62947   -411803.88643  21997860.4454                   21997861.2154
  -1297301.04346  -1002941.89343  22625399.2194                   22625401.6684
  -2122435.65648  -1653636.70344  21470998.6024                   21470997.2074
 11  9 25 17  7 30.0000000  0  7G08G11G07G17G24G26G28
   -951069.27748   -739244.09344  19894874.5474                   19894874.1564
   2718087.58647   2115162.96743  21995667.9844                   21995667.4264
   4148785.48847   3225535.55244  21230649.3984                   21230649.4534
  -5377923.86347  -4181871.95944  21203990.1094                   21203989.9414
   -545905.52747   -414958.16943  21997090.1174                   21997091.9844
  -1309176.30147  -1012195.38143  22623140.6804                   22623141.1684
  -2167444.44548  -1688708.44044  21462433.3364                   21462432.6024
 11  9 25 17  8  0.0000000  0  7G08G11G07G17G24G26G28
   -960284.94948   -746425.18744  19893121.1024                   19893121.1334
   2753559.25447   2142803.08643  22002417.5394                   22002417.4144
   4198367.23447   3264170.60044  21240084.2974                   21240084.7234
  -5448619.30147  -4236959.30744  21190537.5004                   21190537.1334
   -549400.12547   -417681.25143  21996424.4774                   21996426.7074
  -1320484.35947  -1021006.95543  22620988.0704                   22620988.7894
  -2212425.22348  -1723758.41544  21453873.8984                   21453872.7734
 11  9 25 17  8 30.0000000  0  7G08G11G07G17G24G26G28
    606481.12548    474431.45544  20191266.6954                   20191266.3714
   4364933.91847   3398419.55343  22309052.0314                   22309051.7934
   5823781.57447   4530727.12544  21549390.7734                   21549390.1254
  -3943531.99247  -3064163.97044  21476945.5314                   21476945.9734
   1023078.34847    807626.53943  22295657.6724                   22295660.1094
    244193.84847    198222.78443  22918736.5004                   22918738.3014
   -681956.31248   -531185.24443  21745112.5004                   21745111.0164
 11  9 25 17  9  0.0000000  0  7G08G11G07G17G24G26G28
    598390.07048    468126.71944  20189727.1884                   20189727.1954
   4401373.29347   3426813.86743  22315986.1564                   22315986.4454
   5874192.07847   4570007.90744  21558983.7194                   21558983.2974
  -4013504.97347  -3118688.37644  21463630.3984                   21463630.3444
   1020690.84047    805766.13843  22295202.5864                   22295206.3834
    234017.14547    190292.90343  22916799.7344                   22916801.6134
   -726878.91848   -566189.87244  21736564.0704                   21736563.4844
 11  9 25 17  9 30.0000000  0  7G08G11G07G17G24G26G28
    590861.61748    462260.34344  20188294.6644                   20188294.6884
   4438293.27347   3455582.51243  22323012.5554                   22323012.4064
   5925014.52747   4609609.76544  21568654.9924                   21568654.9614
  -4083116.89148  -3172931.39744  21450383.7504                   21450383.6484
   1018856.00447    804336.35343  22294854.1954                   22294856.1604
    224404.03547    182802.14143  22914970.3754                   22914972.6024
   -771772.30148   -601171.74944  21728021.0944                   21728020.1564
 11  9 25 17 10  0.0000000  0  7G08G11G07G17G24G26G28
    583896.74648    456833.14044  20186969.3984                   20186969.3794
   4475691.97747   3484724.32643  22330129.4304                   22330129.2664
   5976247.59047   4649531.57244  21578404.3204                   21578404.2384
  -4152367.84048  -3226893.15644  21437205.6724                   21437204.9344
   1017573.73447    803337.10943  22294610.2274                   22294612.1134
    215352.93847    175749.32943  22913248.5394                   22913250.3204
   -816635.96148   -636130.47944  21719483.9304                   21719483.4494
 11  9 25 17 10 30.0000000  0  7G08G11G07G17G24G26G28
    577495.46148    451845.07245  20185750.7664                   20185750.8954
   4513566.82047   3514237.09543  22337336.9064                   22337335.6334
   6027889.34047   4689771.81043  21588231.2114                   21588230.7154
  -4221258.21148  -3280573.97144  21424096.1334                   21424096.2934
   1016842.86747    802767.61543  22294471.4694                   22294473.2344
    206862.36747    169133.18243  22911633.2584                   22911634.4804
   -861470.17647   -671066.25244  21710952.0784                   21710950.5984
 11  9 25 17 11  0.0000000  0  7G08G11G07G17G24G26G28
    571657.77048    447296.18244  20184640.3984                   20184639.9024
   4551915.73047   3544119.36043  22344634.0634                   22344633.7424
   6079937.80947   4730328.94244  21598135.7974                   21598136.1884
  -4289788.49248  -3333974.21044  21411055.3204                   21411055.5044
   1016662.71147    802627.12543  22294437.0164                   22294438.0944
    198929.98446    162952.10543  22910123.2114                   22910124.6764
   -906275.28948   -705979.33144  21702426.1644                   21702424.4534
 11  9 25 17 11 30.0000000  0  7G08G11G07G17G24G26G28
    566383.34448    443186.20744  20183636.6804                   20183636.0434
   4590735.28947   3574368.23743  22352021.8134                   22352021.0434
   6132390.24247   4771200.88344  21608117.4384                   21608117.1764
  -4357959.83648  -3387094.71344  21398082.8754                   21398083.1954
   1017031.95747    802914.80743  22294507.5234                   22294508.9414
    191553.39847    157204.10443  22908719.1954                   22908721.4924
   -951051.66848   -740870.02343  21693905.4924                   21693904.3014
 11  9 25 17 12  0.0000000  0  7G08G11G07G17G24G26G28
    561674.50448    439516.94344  20182740.5704                   20182740.7194
   4630025.58647   3604984.02643  22359498.2584                   22359498.3164
   6185247.35947   4812388.05944  21618175.6644                   21618175.7384
  -4425769.91848  -3439933.73644  21385178.8134                   21385178.4414
   1017952.34047    803631.80843  22294682.1564                   22294684.5004
    184733.34047    151889.76543  22907421.8444                   22907423.3714
   -995796.73848   -775736.34044  21685390.7194                   21685389.3754
 11  9 25 17 12 30.0000000  0  7G08G11G07G17G24G26G28
    557529.00448    436286.62944  20181952.0004                   20181951.7384
   4669782.02047   3635963.00443  22367063.6644                   22367063.8524
   6238504.84847   4853887.35144  21628310.2274                   21628310.5904
  -4493221.58648  -3492493.46344  21372343.0634                   21372343.3954
   1019420.73047    804776.09543  22294961.7974                   22294964.1644
    178465.72347    147005.78043  22906229.3914                   22906231.3164
  -1040513.00448   -810580.18944  21676881.5944                   21676881.1684
 11  9 25 17 13  0.0000000  0  7G08G11G07G17G24G26G28
    553949.52048    433497.35444  20181270.8914                   20181270.7194
   4710004.74247   3667305.30143  22374718.4454                   22374716.9844
   6292163.46147   4895699.19344  21638521.4534                   21638520.9964
  -4560312.87147  -3544772.34844  21359576.8284                   21359576.1724
   1021438.70747    806348.48443  22295346.1954                   22295347.5824
    172751.27047    142552.85243  22905141.7194                   22905144.1564
  -1085197.95748   -845399.60844  21668377.9924                   21668377.5824
 11  9 25 17 13 30.0000000  0  7G08G11G07G17G24G26G28
    550933.90648    431147.48244  20180696.7814                   20180696.7734
   4750689.21147   3699007.36743  22382460.2894                   22382460.1024
   6346218.85547   4937820.21844  21648808.1954                   21648807.6334
  -4627046.34047  -3596772.47444  21346877.4384                   21346877.6764
   1024003.09847    808346.56843  22295834.0394                   22295835.5554
    167585.60546    138527.55843  22904159.1884                   22904160.7704
  -1129853.85548   -880196.41844  21659880.6174                   21659879.8404
 11  9 25 17 14  0.0000000  0  7G08G11G07G17G24G26G28
    548488.23048    429241.70144  20180231.3984                   20180231.5474
   4791838.92247   3731072.00243  22390289.9064                   22390291.0554
   6400675.12547   4980253.54644  21659170.6094                   21659170.4804
  -4693416.01647  -3648489.07944  21334247.5784                   21334247.9614
   1027119.28947    810774.72143  22296427.6174                   22296428.7584
    162973.16847    134933.57843  22903280.7814                   22903283.3244
  -1174474.48048   -914965.81144  21651389.6564                   21651388.8984
 11  9 25 17 14 30.0000000  0  7G08G11G07G17G24G26G28
    546610.26248    427778.33144  20179874.2584                   20179874.4064
   4833448.90647   3763495.19843  22398209.2504                   22398207.7504
   6455527.95347   5022995.86743  21669609.2814                   21669608.4264
  -4759424.84847  -3699924.51344  21321686.3284                   21321686.5864
   1030784.26647    813630.50543  22297124.7114                   22297126.3204
    158909.52746    131766.95743  22902508.0784                   22902509.4494
  -1219061.89548   -949709.23644  21642904.5084                   21642903.8984
 11  9 25 17 15  0.0000000  0  7G08G11G07G17G24G26G28
    545296.32048    426754.42244  20179624.1884                   20179624.1954
   4875513.30147   3796272.58043  22406213.4064                   22406211.9414
   6510772.12547   5066043.20544  21680121.7424                   21680121.6174
  -4825077.09048  -3751082.09944  21309193.3284                   21309193.5984
   1034993.35247    816910.26943  22297925.0084                   22297926.8834
    155389.17247    129023.72343  22901837.5784                   22901840.3444
  -1263619.83648   -984429.73844  21634425.7344                   21634424.3094
 11  9 25 17 15 30.0000000  0  7G08G11G07G17G24G26G28
    544553.18848    426175.31744  20179482.8284                   20179482.6454
   4918036.23447   3829407.24043  22414305.0554                   22414304.9024
   6566412.16447   5109398.99043  21690709.5634                   21690710.0864
  -4890366.01648  -3801956.57744  21296769.5234                   21296770.2424
   1039752.10947    820618.26643  22298831.3754                   22298831.5664
    152416.91447    126707.71542  22901272.2194                   22901275.1724
  -1308141.77748  -1019122.21544  21625953.6884                   21625952.5704
 11  9 25 17 16  0.0000000  0  7G08G11G07G17G24G26G28
    544378.69948    426039.28544  20179449.4614                   20179448.7154
   4961012.99647   3862895.52343  22422483.4224                   22422483.0234
   6622443.43047   5153059.58244  21701372.0554                   21701372.1254
  -4955295.18447  -3852550.74044  21284413.5944                   21284413.7854
   1045057.37947    824752.24643  22299840.4774                   22299841.7734
    149988.52746    124815.41643  22900810.3594                   22900812.4804
  -1352629.55948  -1053788.01844  21617488.0004                   21617487.0124
 11  9 25 17 16 30.0000000  0  7G08G11G07G17G24G26G28
    544772.94948    426346.45944  20179524.7814                   20179524.8594
   5004442.08647   3896736.23143  22430747.9614                   22430748.9694
   6678864.70747   5197024.17943  21712108.6564                   21712109.1994
  -5019864.41448  -3902864.39744  21272126.3984                   21272125.7384
   1050908.75047    829311.72443  22300954.4694                   22300956.6134
    148102.29347    123345.57843  22900451.3914                   22900453.7704
  -1397082.70748  -1088426.87844  21609028.4304                   21609027.2894
 11  9 25 17 17  0.0000000  0  7G08G11G07G17G24G26G28
    545735.75048    427096.66344  20179708.4144                   20179708.4104
   5048320.48847   3930927.15143  22439097.6414                   22439097.6294
   6735673.82847   5241290.94343  21722919.2344                   21722920.1604
  -5084073.81648  -3952897.69444  21259907.8284                   21259907.4494
   1057305.12147    834295.95543  22302170.9774                   22302173.0984
    146756.22347    122296.63243  22900195.7974                   22900197.2504
  -1441500.92648  -1123038.50444  21600576.2114                   21600574.4774
 11  9 25 17 17 30.0000000  0  7G08G11G07G17G24G26G28
    547267.89148    428290.46644  20179999.5704                   20179999.4694
   5092646.03947   3965466.41643  22447532.1644                   22447533.0434
   6792869.30947   5285858.72643  21733803.2034                   21733803.7854
  -5147923.23447  -4002650.47844  21247757.6564                   21247757.6414
   1064245.88347    839704.26843  22303492.4534                   22303494.0474
    145948.71147    121667.30443  22900041.5234                   22900044.0664
  -1485883.57448  -1157622.37144  21592130.3054                   21592129.3634
 11  9 25 17 18  0.0000000  0  7G08G11G07G17G24G26G28
    549369.62548    429928.15844  20180399.3054                   20180399.3404
   5137417.34447   4000353.05443  22456052.4774                   22456051.7704
   6850449.82447   5330726.56943  21744760.9304                   21744761.1564
  -5211412.88748  -4052122.95344  21235675.7584                   21235675.3524
   1071730.73047    845536.40643  22304916.1334                   22304918.9344
    145678.14847    121456.52043  22899990.3834                   22899992.6724
  -1530230.19948  -1192178.20543  21583691.5084                   21583690.3524
 11  9 25 17 18 30.0000000  0  7G08G11G07G17G24G26G28
    552043.55148    432011.67644  20180908.4384                   20180908.8914
   5182634.62147   4035587.13343  22464657.6724                   22464656.3714
   6908415.92647   5375894.82444  21755791.3594                   21755791.7974
  -5274540.90647  -4101313.59644  21223663.0314                   21223663.0434
   1079761.24647    851793.88943  22306444.3524                   22306446.2624
    145945.57447    121664.80243  22900041.0164                   22900043.5984
  -1574537.83248  -1226703.67344  21575260.0394                   21575258.8524
 11  9 25 17 19  0.0000000  0  7G08G11G07G17G24G26G28
    555289.56648    434540.97544  20181526.1724                   20181526.4414
   5228294.35547   4071166.05843  22473345.7344                   22473347.2774
   6966765.24247   5421361.73544  21766894.7194                   21766894.8914
  -5337307.72748  -4150222.78544  21211718.8204                   21211719.0314
   1088336.12547    858475.55743  22308076.7034                   22308079.0744
    146748.26647    122290.21443  22900193.6024                   22900196.7234
  -1618806.62548  -1261198.81444  21566835.7734                   21566834.8404
 11  9 25 17 19 30.0000000  0  7G08G11G07G17G24G26G28
    559106.49248    437515.15644  20182252.5314                   20182252.3954
   5274393.62947   4107087.54343  22482118.3054                   22482119.9104
   7025495.34047   5467125.28443  21778070.8984                   21778071.5044
  -5399714.22347  -4198851.23344  21199842.9924                   21199843.2344
   1097454.01647    865580.30943  22309811.6954                   22309814.4734
    148083.92247    123330.87443  22900448.1334                   22900450.7464
  -1663036.53148  -1295663.74044  21558419.4224                   21558418.2194
 11  9 25 17 20  0.0000000  0  7G08G11G07G17G24G26G28
    563495.28948    440934.94344  20183087.6414                   20183087.3134
   5320931.82447   4143350.88343  22490974.8134                   22490974.9734
   7084605.50447   5513185.13143  21789319.0314                   21789318.6764
  -5461759.91447  -4247198.52844  21188036.2114                   21188036.3914
   1107115.02747    873108.40043  22311650.1484                   22311652.0904
    149951.44147    124786.11243  22900804.2814                   22900805.3834
  -1707226.22348  -1330097.29044  21550010.5554                   21550009.7734
 11  9 25 17 20 30.0000000  0  7G08G11G07G17G24G26G28
    568457.47348    444801.54044  20184032.0314                   20184032.7584
   5367907.95747   4179955.66443  22499914.0554                   22499913.9964
   7144095.13347   5559540.65543  21800639.4144                   21800639.9414
  -5523443.48047  -4295263.65744  21176298.4224                   21176298.5824
   1117319.80947    881059.88043  22313592.2974                   22313593.8754
    152350.27047    126655.27743  22901260.4144                   22901262.5474
  -1751373.80148  -1364497.99244  21541609.4384                   21541608.2274
 11  9 25 17 21  0.0000000  0  7G08G11G07G17G24G26G28
    573990.53548    449112.98044  20185085.4694                   20185085.4614
   5415316.40647   4216897.30143  22508935.2584                   22508935.4494
   7203959.44947   5606188.01443  21812031.7584                   21812031.9104
  -5584768.29748  -4343049.18144  21164628.7194                   21164628.2074
   1128064.08647    889432.20143  22315636.9144                   22315638.7704
    155275.81647    128934.83443  22901816.8834                   22901819.4104
  -1795481.84848  -1398867.90344  21533215.9774                   21533214.3754
 11  9 25 17 21 30.0000000  0  7G08G11G07G17G24G26G28
    580093.35248    453868.37344  20186246.3204                   20186246.5164
   5463154.34447   4254173.44543  22518038.7424                   22518039.2114
   7264195.98847   5653125.46943  21823494.5084                   21823494.5164
  -5645735.35947  -4390555.97344  21153026.8364                   21153026.7584
   1139346.78947    898223.90243  22317783.8594                   22317785.9264
    158725.13347    131622.52043  22902472.9614                   22902476.1484
  -1839550.45748  -1433207.07344  21524829.8674                   21524829.3164
 11  9 25 17 22  0.0000000  0  7G08G11G07G17G24G26G28
    586766.46948    459068.14944  20187516.1804                   20187516.5744
   5511420.05947   4291782.95643  22527223.1724                   22527224.4104
   7324803.45747   5700351.86843  21835027.4384                   21835028.0824
  -5706344.41448  -4437783.80344  21141493.8754                   21141493.2424
   1151167.12547    907434.36743  22320033.2894                   22320035.7624
    162697.18047    134717.58443  22903228.8134                   22903232.4694
  -1883578.55948  -1467514.71544  21516451.4534                   21516450.0904
 11  9 25 17 22 30.0000000  0  7G08G11G07G17G24G26G28
    594010.65648    464712.92444  20188894.6954                   20188894.5744
   5560112.14547   4329724.67043  22536489.5314                   22536490.7344
   7385780.77347   5747866.64143  21846631.3054                   21846632.4574
  -5766594.57047  -4484732.02744  21130028.2344                   21130028.2734
   1163525.00047    917063.92643  22322385.3834                   22322387.8554
    167190.52347    138218.82843  22904084.3754                   22904086.5474
  -1927564.60248  -1501789.55844  21508081.5164                   21508080.6954
 11  9 25 17 23  0.0000000  0  7G08G11G07G17G24G26G28
    601826.15248    470802.88944  20190382.0634                   20190382.0984
   5609228.21547   4367996.83543  22545835.9384                   22545835.7074
   7447126.18847   5795668.20143  21858304.8754                   21858304.8054
  -5826486.53547  -4531401.05844  21118631.4924                   21118631.1644
   1176419.61347    927111.62743  22324838.6254                   22324840.8914
    172203.32047    142124.77143  22905038.3984                   22905041.2814
  -1971508.01248  -1536031.12444  21499719.5634                   21499718.4224
 11  9 25 17 23 30.0000000  0  7G08G11G07G17G24G26G28
    610213.43448    477338.35644  20191978.0554                   20191977.9454
   5658766.62947   4406598.16743  22555262.5634                   22555262.3634
   7508838.56647   5843755.68243  21870048.6644                   21870049.1804
  -5886019.72347  -4577790.59844  21107302.5004                   21107302.1414
   1189850.84047    937577.44943  22327394.8984                   22327398.5004
    177734.52047    146434.89153  22906090.6024                   22906090.1484
  -2015407.56648  -1570238.67044  21491365.6724                   21491364.4844
 11  9 25 17 24  0.0000000  0  7G08G11G07G17G24G26G28
    619171.15648    484318.34144  20193683.0554                   20193683.4494
   5708724.12547   4445526.02843  22564768.9774                   22564769.8524
   7570914.82047   5892126.63843  21881861.0394                   21881862.1914
  -5945195.70347  -4623901.73344  21096041.8204                   21096041.3874
   1203816.43847    948459.61143  22330051.6024                   22330054.8054
    183780.81647    151146.09443  22907241.7894                   22907244.1484
  -2059263.48448  -1604412.06844  21483019.9534                   21483018.8244
 11  9 25 17 24 30.0000000  0  8G08G11G07G17G04G24G26G28
    628699.52348    491743.01444  20195495.9304                   20195495.7304
   5759098.59847   4484778.75443  22574355.2504                   22574355.0824
   7633353.41047   5940779.98243  21893742.9534                   21893744.1374
  -6004014.82847  -4669734.79244  21084848.8204                   21084848.5274
   2949806.34416                  24572103.047
   1218315.59847    959757.58243  22332811.4384                   22332813.2664
    190340.15647    156257.08843  22908489.5944                   22908492.5514
  -2103075.37948  -1638551.15644  21474682.7974                   21474681.9494
 11  9 25 17 25  0.0000000  0  8G08G11G07G17G04G24G26G28
    638788.25848    499604.33244  20197416.2344                   20197416.1094
   5809877.61747   4524346.70843  22584017.9454                   22584017.6024
   7696142.43047   5989706.33943  21905691.6414                   21905692.4804
  -6062487.00048  -4715297.53944  21073722.1094                   21073721.6524
   2812878.930 6                  24546046.195
   1233337.52047    971463.00443  22335670.2114                   22335671.5084
    197400.71147    161758.83143  22909833.5084                   22909835.0084
  -2146852.62548  -1672663.34944  21466352.3984                   21466350.7274
 11  9 25 17 25 30.0000000  0  8G08G11G07G17G04G24G26G28
    649432.48848    507898.44344  20199441.2034                   20199441.4454
   5861053.82047   4564224.19143  22593756.5164                   22593756.7814
   7759275.24247   6038900.68143  21917705.6094                   21917706.7074
  -6120617.48847  -4760594.01144  21062659.9144                   21062660.5434
   2675866.648 6                  24519974.031
   1248876.34047    983571.24043  22338627.3594                   22338628.2774
    204955.58247    167645.79543  22911271.0944                   22911273.7974
  -2190599.29348  -1706751.66644  21458027.6954                   21458026.6644
 11  9 25 17 26  0.0000000  0  8G08G11G07G17G04G24G26G28
    660635.96548    516628.39144  20201573.6414                   20201573.0474
   5912629.22747   4604412.66543  22603570.9064                   22603571.6134
   7822753.88747   6088364.36243  21929785.4614                   21929786.0664
  -6178402.58247  -4805621.38144  21051663.8524                   21051663.8134
   2538775.984 5                  24493885.414
   1264934.73847    996083.98243  22341682.7734                   22341685.1764
    213006.89847    173919.52043  22912803.0474                   22912805.1454
  -2234310.53148  -1740812.39444  21449709.6334                   21449708.5354
 11  9 25 17 26 30.0000000  0  8G08G11G07G17G04G24G26G28
    672398.13748    525793.67344  20203811.5234                   20203811.2154
   5964601.08647   4644910.23043  22613461.2894                   22613460.7704
   7886576.05147   6138095.84243  21941929.8984                   21941930.9344
  -6235843.09848  -4850380.20344  21040732.9064                   21040733.3634
   2401609.383 6                  24467783.094
   1281511.33247   1009000.91143  22344837.3834                   22344840.1604
    221552.08247    180577.99043  22914429.8754                   22914430.9884
  -2277986.15648  -1774845.38244  21441398.4384                   21441397.9734
 11  9 25 17 27  0.0000000  0  8G08G11G07G17G04G24G26G28
    684720.89548    535395.74944  20206156.7814                   20206156.7194
   6016968.73847   4685715.91343  22623426.6884                   22623428.2504
   7950741.95747   6188095.09243  21954140.4064                   21954141.7304
  -6292937.31248  -4894869.22044  21029868.7664                   21029868.1254
   2264371.422 6                  24441668.602
   1298607.08247   1022322.16243  22348090.9844                   22348093.3714
    230590.91447    187621.07743  22916149.8284                   22916151.7584
  -2321623.43048  -1808848.48843  21433094.2274                   21433093.7704
 11  9 25 17 27 30.0000000  0  8G08G11G07G17G04G24G26G28
    697605.07048    545435.32944  20208608.5554                   20208608.7384
   6069731.23047   4726829.67043  22633466.8524                   22633468.3954
   8015250.83647   6238361.71843  21966416.5164                   21966416.8914
  -6349684.61348  -4939087.88144  21019070.1804                   21019069.4734
   2127065.926 6                  24415540.156
   1316222.07847   1036048.09243  22351442.5784                   22351444.7114
    240122.58647    195048.37543  22917962.9304                   22917965.5784
  -2365220.52348  -1842820.24943  21424798.1094                   21424797.4144
 11  9 25 17 28  0.0000000  0  8G08G11G07G17G04G24G26G28
    711050.93848    555912.60544  20211167.0554                   20211167.6294
   6122886.98847   4768249.52443  22643582.5084                   22643583.4804
   8080100.95747   6288894.14043  21978756.6414                   21978757.4184
  -6406084.41448  -4983035.80144  21008337.4694                   21008337.2854
   1989696.074 6                  24389398.633
   1334355.87147   1050178.20743  22354894.1414                   22354894.8914
    250145.34847    202858.22743  22919871.2974                   22919873.7934
  -2408776.29348  -1876759.85544  21416509.8754                   21416509.4064
 11  9 25 17 28 30.0000000  0  8G08G11G07G17G04G24G26G28
    725058.46948    566827.45344  20213832.7814                   20213833.0904
   6176433.58647   4809974.07043  22653772.5234                   22653774.6484
   8145290.82847   6339691.37843  21991162.1884                   21991162.8594
  -6462137.41848  -5026713.49044  20997671.0004                   20997670.9104
   1852264.656 6                  24363245.805
   1353007.39547   1064711.83443  22358442.9694                   22358444.7664
    260657.35547    211049.41343  22921871.6254                   22921874.0944
  -2452289.60548  -1910666.32744  21408229.5314                   21408229.4064
 11  9 25 17 29  0.0000000  0  8G08G11G07G17G04G24G26G28
    739626.69148    578179.31944  20216605.1644                   20216605.5394
   6230368.10247   4852000.84243  22664035.6024                   22664036.6174
   8210817.80547   6390751.17243  22003631.9304                   22003633.0744
  -6517844.41047  -5070121.50844  20987070.1094                   20987069.9454
   1714773.41846   1352253.53152  24337081.5864                   24337094.6414
   1372174.80947   1079647.41943  22362090.0164                   22362091.3714
    271655.82847    219619.48543  22923964.1724                   22923965.7234
  -2495760.48448  -1944539.71344  21399957.5084                   21399956.8754
 11  9 25 17 29 30.0000000  0  8G08G11G07G17G04G24G26G28
    754753.19147    589966.10944  20219483.3364                   20219484.3244
   6284686.09847   4894326.48442  22674372.4144                   22674372.0004
   8276678.07847   6442070.70343  22016164.3524                   22016165.7664
  -6573207.79347  -5113261.85344  20976534.9144                   20976535.3914
   1577223.699 6                  24310907.656
   1391855.03147   1094982.58143  22365835.4384                   22365837.7304
    283136.57447    228565.37443  22926149.3364                   22926149.4614
  -2539189.93047  -1978380.90144  21391693.1644                   21391691.4614
 11  9 25 17 30  0.0000000  0  8G08G11G07G17G04G24G26G28
    770438.48848    602188.36844  20222468.5474                   20222468.4614
   6339386.05947   4936949.84943  22684781.3444                   22684781.3984
   8342870.75047   6493649.32043  22028760.6024                   22028762.1054
  -6628227.15647  -5156134.02644  20966065.0084                   20966065.1294
   1439618.80146   1137847.75852  24284722.0164                   24284731.3524
   1412047.71547   1110717.12843  22369678.0164                   22369680.2774
    295098.35247    237886.26843  22928425.5004                   22928426.6174
  -2582576.45348  -2012188.64044  21383436.8284                   21383436.2034
 11  9 25 17 30 30.0000000  0  8G08G11G07G17G04G24G26G28
    786682.76248    614846.15744  20225559.8364                   20225559.9734
   6394466.31347   4979869.14243  22695263.1094                   22695263.0204
   8409394.20347   6545485.64443  22041419.8524                   22041420.8984
  -6682902.41047  -5198738.16444  20955661.0784                   20955660.8834
   1301962.05146   1030583.14152  24258525.8834                   24258528.8834
   1432752.09047   1126850.33643  22373618.1884                   22373620.4964
    307539.60247    247580.68043  22930793.6334                   22930794.9844
  -2625918.78148  -2045961.87644  21375189.1954                   21375188.6914
 11  9 25 17 31  0.0000000  0  8G08G11G07G17G04G24G26G28
    803484.98848    627938.76544  20228757.2894                   20228757.8244
   6449923.43447   5023082.56253  22705816.5234                   22705825.1604
   8476245.50047   6597577.43343  22054141.8054                   22054143.2464
  -6737234.85947  -5241075.16244  20945321.8984                   20945321.3444
   1164254.996 6                  24232320.727
   1453966.21547   1143380.74543  22377654.6024                   22377657.0084
    320456.75847    257645.97643  22933250.9384                   22933253.5004
  -2669216.93448  -2079700.73644  21366949.8134                   21366948.3244
 11  9 25 17 31 30.0000000  0  8G08G11G07G17G04G24G26G28
    820845.61348    641466.46644  20232060.8594                   20232060.9844
   6505756.36747   5066588.61353  22716440.7664                   22716443.0044
   8543424.09047   6649924.19343  22066925.1174                   22066925.2734
  -6791223.53547  -5283144.24844  20935047.7424                   20935047.9024
   1026501.910 6                  24206107.422
   1475690.11747   1160308.40743  22381788.9454                   22381790.3634
    333849.34447    268081.55443  22935799.7974                   22935801.8204
  -2712468.87948  -2113403.55944  21358719.1804                   21358718.3834
 11  9 25 17 32  0.0000000  0  8G08G11G07G17G04G24G26G28
    838763.48848    655428.41544  20235470.4384                   20235470.8594
   6561962.09047   5110385.31843  22727136.3204                   22727137.8094
   8610927.12547   6702523.82343  22079771.0164                   22079771.1844
  -6844869.59447  -5324946.34744  20924839.6484                   20924839.1804
    888704.68446    708565.36352  24179884.6954                   24179889.3444
   1497921.85547   1177631.83943  22386019.7664                   22386021.9304
    347714.26647    278885.35743  22938437.9844                   22938439.9654
  -2755674.45747  -2147070.24844  21350497.3984                   21350496.9144
 11  9 25 17 32 30.0000000  0  8G08G11G07G17G04G24G26G28
    857235.00048    669821.71544  20238985.1884                   20238985.7704
   6618534.76647   5154467.62643  22737902.1094                   22737901.8984
   8678749.55947   6755372.39943  22092676.8914                   22092677.7154
  -6898177.03547  -5366484.64444  20914695.2894                   20914695.6994
    750862.688 6                  24153655.320
   1520656.67648   1195347.31543  22390346.4384                   22390347.7624
    362045.64147    290052.59442  22941165.4224                   22941167.1484
  -2798836.05548  -2180702.69544  21342284.0004                   21342283.1484
 11  9 25 17 33  0.0000000  0  8G08G11G07G17G04G24G26G28
    876263.41448    684648.98944  20242606.7274                   20242607.5354
   6675475.54747   5198837.11043  22748737.0314                   22748738.3914
   8746892.55147   6808470.70243  22105644.0634                   22105645.4654
  -6951142.42647  -5407756.39044  20904616.0004                   20904616.7584
    612982.281 6                  24127415.883
   1543896.95747   1213456.48143  22394768.5394                   22394770.6024
    376845.03547    301584.48943  22943981.5784                   22943983.5554
  -2841949.39548  -2214297.53444  21334080.1414                   21334079.9024
 11  9 25 17 33 30.0000000  0  8G08G11G07G17G04G24G26G28
    895847.34448    699909.14844  20246333.4064                   20246333.7114
   6732781.97347   5243491.14543  22759642.7194                   22759642.9494
   8815354.21547   6861817.19243  22118671.5394                   22118673.4884
  -7003766.63748  -5448762.27144  20894602.6564                   20894601.9614
    475066.246 6                  24101171.688
   1567641.09447   1231958.43143  22399286.5634                   22399288.2384
    392109.86347    313479.02243  22946886.7194                   22946887.6524
  -2885013.84848  -2247854.24744  21325885.1094                   21325883.9104
 11  9 25 17 34  0.0000000  0  8G08G11G07G17G04G24G26G28
    915988.91048    715603.81644  20250166.1724                   20250167.1254
   6790453.89847   5288430.55143  22770616.7034                   22770617.5554
   8884134.62147   6915412.30143  22131760.6954                   22131761.1254
  -7056047.97348  -5489500.95344  20884653.7344                   20884653.3164
    337119.305 6                  24074920.758
   1591890.04347   1250853.60743  22403901.1564                   22403903.3634
    407839.80147    325736.05743  22949879.8524                   22949880.7664
  -2928026.30548  -2281370.46044  21317699.9534                   21317698.9924
 11  9 25 17 34 30.0000000  0  8G08G11G07G17G04G24G26G28
    936689.87548    731734.40844  20254105.1334                   20254106.3754
   6848491.06347   5333654.09243  22781662.1724                   22781662.5514
   8953234.02347   6969255.85443  22144910.1254                   22144910.5904
  -7107984.32848  -5529970.87144  20874770.5474                   20874770.6294
    199146.832 6                  24048665.789
   1616644.68847   1270142.82043  22408611.4384                   22408614.0164
    424035.13747    338355.68643  22952960.9384                   22952962.5474
  -2970983.46148  -2314843.60244  21309525.6174                   21309525.2814
 11  9 25 17 35  0.0000000  0  8G08G11G07G17G04G24G26G28
    957946.25848    748297.74844  20258150.5474                   20258151.0514
   6906887.480 7                  22792773.992
   9022647.07447   7023343.80143  22158119.2424                   22158119.2504
  -7159579.85948  -5570175.20144  20864951.7504                   20864951.7814
     61147.734 6                  24022405.422
   1641900.37947   1289822.68943  22413417.8444                   22413420.0124
    440690.09847    351333.55043  22956130.6334                   22956132.1764
  -3013888.03148  -2348275.69344  21301361.2974                   21301360.2114
 11  9 25 17 35 30.0000000  0  8G08G11G07G17G04G24G26G28
    979757.89548    765293.79344  20262301.1804                   20262301.1604
   6965641.37547   5424939.82653  22803954.8524                   22803955.6844
   9092372.20747   7077674.96043  22171387.4454                   22171388.1024
  -7210834.66047  -5610114.00944  20855198.6484                   20855198.9104
    -76874.516 6                  23996140.328
   1667656.05547   1309891.90343  22418319.2274                   22418321.1994
    457802.58647    364667.80643  22959387.5004                   22959389.2234
  -3056738.48448  -2381665.69944  21293207.1334                   21293206.0204
 11  9 25 17 36  0.0000000  0  8G08G11G07G17G04G24G26G28
   1002126.28548    782723.64244  20266558.0084                   20266558.1374
   7024753.02047   5471000.74543  22815202.9454                   22815203.5864
   9162409.93047   7132249.57943  22184715.5084                   22184716.6994
  -7261746.31247  -5649785.42544  20845510.7504                   20845510.8594
   -214914.348 6                  23969871.742
   1693913.12547   1330351.94443  22423315.2194                   22423318.0234
    475373.10547    378359.01243  22962731.6094                   22962733.6884
  -3099531.16048  -2415010.70044  21285063.5864                   21285063.4654
 11  9 25 17 36 30.0000000  0  8G08G11G07G17G04G24G26G28
   1025050.85248    800586.87444  20270920.3054                   20270920.3054
   7084219.78547   5517338.27742  22826519.7114                   22826520.5004
   9232758.14147   7187066.27043  22198101.9384                   22198103.3984
  -7312315.68448  -5689190.15744  20835887.5164                   20835887.5704
   -352969.195 6                  23943601.000
   1720669.78547   1351201.24243  22428407.1334                   22428409.4304
    493398.71947    392404.89643  22966161.0394                   22966164.9884
  -3142265.43748  -2448310.09044  21276931.8284                   21276930.9064
 11  9 25 17 37  0.0000000  0  8G08G11G07G17G04G24G26G28
   1048525.77048    818878.95144  20275387.2114                   20275387.8674
   7144033.87147   5563946.68743  22837901.6094                   22837901.3834
   9303409.11747   7242118.91643  22211546.3754                   22211548.0514
  -7362548.70348  -5728332.77044  20826328.2034                   20826328.0554
   -491041.75846   -366561.25852  23917325.6564                   23917327.6884
   1747919.26247   1372434.43543  22433593.0554                   22433595.1604
    511871.71947    406799.31043  22969676.4924                   22969679.6134
  -3184945.97748  -2481567.67744  21268810.1024                   21268809.1414
 11  9 25 17 37 30.0000000  0  8G08G11G07G17G04G24G26G28
   1072554.54748    837602.58144  20279960.0474                   20279960.9304
   7204196.805 7                  22849350.711
   9374365.17247   7297409.09043  22225049.4384                   22225050.2934
  -7412441.73848  -5767210.46944  20816833.9694                   20816834.2734
   -629125.05546   -474158.43452  23891049.3204                   23891054.6524
   1775664.37547   1394053.96243  22438873.2734                   22438875.0744
    530793.96547    421543.73543  22973277.7584                   22973280.6374
  -3227567.69148  -2514779.45844  21260699.4694                   21260698.5944
 11  9 25 17 38  0.0000000  0  8G08G11G07G17G04G24G26G28
   1097134.10548    856755.42944  20284637.5084                   20284637.4344
   7264703.941 7                  22860865.094
   9445621.94547   7352933.76543  22238609.3284                   22238609.9414
  -7461997.55948  -5805825.39344  20807403.6644                   20807404.3484
   -767218.324 6                  23864770.438
   1803901.53547   1416056.78143  22444245.7734                   22444248.4024
    550160.91847    436634.47443  22976963.1644                   22976966.2624
  -3270131.50848  -2547946.06244  21252600.1334                   21252599.3444
 11  9 25 17 38 30.0000000  0  8G08G11G07G17G04G24G26G28
   1122266.98448    876339.45544  20289420.0784                   20289420.7504
   7325556.246 7                  22872444.859
   9517180.60547   7408693.60243  22252226.3524                   22252227.8324
  -7511213.46548  -5844175.49544  20798038.7814                   20798039.1094
   -905315.27746   -689371.11353  23838491.7504                   23838501.5474
   1832632.29347   1438444.30043  22449713.1414                   22449715.4344
    569973.11747    452072.83843  22980733.1804                   22980735.3054
  -3312633.17648  -2581064.26743  21244512.0394                   21244510.7504
 11  9 25 17 39  0.0000000  0  8G08G11G07G17G04G24G26G28
   1147950.07448    896352.19344  20294307.3834                   20294307.6294
   7386749.195 6                  22884089.172
   9589037.05947   7464685.57643  22265900.3134                   22265901.1094
  -7560092.18448  -5882262.77444  20788737.4384                   20788737.1214
  -1043415.445 6                  23812211.758
   1861853.17247   1461213.82943  22455273.6024                   22455275.9304
    590226.23847    467854.46043  22984587.4224                   22984589.8054
  -3355074.13348  -2614135.15844  21236435.7584                   21236435.0084
 11  9 25 17 39 30.0000000  0  8G08G11G07G17G04G24G26G28
   1174181.19948    916791.96744  20299299.2274                   20299299.8014
   7448278.926 7                  22895798.336
   9661187.52047   7520906.47643  22279630.3444                   22279632.0124
  -7608635.52348  -5920088.75444  20779499.8054                   20779500.1804
  -1181517.301 6                  23785932.383
   1891561.18447   1484362.87043  22460927.2894                   22460929.7544
    610916.48847    483976.73343  22988524.7974                   22988527.0784
  -3397454.56648  -2647158.86344  21228370.7584                   21228370.2424
 11  9 25 17 40  0.0000000  0  8G08G11G07G17G04G24G26G28
   1200964.16448    937661.73144  20304395.8524                   20304396.2584
   7510147.102 7                  22907571.813
   9733634.41447   7577358.40643  22293416.9144                   22293418.9694
  -7656839.98048  -5957650.67944  20770326.6954                   20770327.3014
  -1319613.734 6                  23759653.367
   1921758.93447   1507893.57443  22466673.7034                   22466677.1524
    632045.21547    500440.43643  22992545.8444                   22992546.9064
  -3439769.45348  -2680131.48444  21220319.0084                   21220318.2274
 11  9 25 17 40 30.0000000  0  8G08G11G07G17G04G24G26G28
   1228296.96148    958959.95944  20309596.8364                   20309597.7464
   7572350.508 7                  22919408.453
   9806374.73847   7634038.99843  22307259.0084                   22307260.5434
  -7704706.91048  -5994949.54544  20761218.0554                   20761217.6644
  -1457702.58246  -1119802.40153  23733375.2584                   23733377.8984
   1952443.99647   1531804.10943  22472513.4534                   22472515.3284
    653609.25047    517243.51743  22996649.6174                   22996650.6454
  -3482018.42648  -2713052.78144  21212278.7814                   21212278.5904
 11  9 25 17 41  0.0000000  0  8G08G11G07G17G04G24G26G28
   1256178.68848    980685.90644  20314902.6334                   20314903.0044
   7634886.422 7                  22931308.117
   9879406.16447   7690946.48243  22321155.9384                   22321158.0784
  -7752237.02748  -6031986.07244  20752173.3284                   20752173.5234
  -1595781.29346  -1227395.91943  23707100.3594                   23707102.1254
   1983614.80147   1556092.86543  22478444.5084                   22478448.7384
    675605.85547    534383.71753  23000835.3364                   23000832.4574
  -3524200.66448  -2745922.06644  21204251.9774                   21204251.4804
 11  9 25 17 41 30.0000000  0  8G08G11G07G17G04G24G26G28
   1284606.04348   1002836.99644  20320312.4064                   20320312.7894
   7697750.184 7                  22943271.125
   9952724.23847   7748077.26243  22335108.3054                   22335110.8244
  -7799433.28548  -6068762.35744  20743192.3054                   20743191.9414
  -1733849.355 6                  23680826.281
   2015267.43847   1580757.09042  22484467.5554                   22484471.4104
    698030.25447    551857.29953  23005102.3674                   23005104.3874
  -3566317.35248  -2778740.28144  21196237.5474                   21196236.6454
 11  9 25 17 42  0.0000000  0  8G08G11G07G17G04G24G26G28
   2889000.56648   2253014.53844  20625618.4614                   20625618.4964
   9336360.813 7                  23255088.297
  11601748.01647   9033030.70743  22648907.0944                   22648909.1484
  -6270871.25048  -4877675.07244  21034067.7344                   21034067.2894
   -296475.44146   -214949.25852  23954349.3674                   23954355.4614
   3622822.58647   2833397.35943  22790375.0394                   22790378.2774
   2296302.57847   1797263.94443  23309242.9614                   23309245.1994
  -2032942.77748  -1583902.96044  21488028.6254                   21488028.0704
 11  9 25 17 42 30.0000000  0  8G08G11G07G17G04G24G26G28
   2918523.41448   2276019.23744  20631236.3834                   20631237.2934
   9399879.72347   7321747.28953  23267176.3054                   23267181.0824
  11675640.19547   9090608.69243  22662968.6334                   22662970.8834
  -6317394.64548  -4913927.08344  21025215.0164                   21025214.4224
   -434506.01647   -322505.34254  23928083.0314                   23928086.1374
   3655440.85547   2858814.10243  22796582.5704                   22796585.1764
   2319581.98047   1815403.66543  23313672.7344                   23313676.0164
  -2074918.59048  -1616611.36944  21480041.1954                   21480040.5044
 11  9 25 17 43  0.0000000  0  8G08G11G07G17G04G24G26G28
   2948590.39548   2299448.00844  20636958.2194                   20636958.5744
   9463720.117 7                  23279324.477
  11749814.00047   9148406.41943  22677083.2344                   22677085.2234
  -6363584.82048  -4949919.40644  21016424.9614                   21016424.6764
   -572516.08647   -430045.68553  23901820.7814                   23901825.0164
   3688537.19147   2884603.37353  22802880.9844                   22802881.5594
   2343282.53547   1833871.45743  23318183.1414                   23318185.4964
  -2116824.58248  -1649265.43244  21472066.4844                   21472065.8204
 11  9 25 17 43 30.0000000  0  8G08G11G07G17G04G24G26G28
   2979200.55148   2323299.98244  20642783.3594                   20642783.9414
   9527879.605 7                  23291533.938
  11824266.94947   9206421.50943  22691251.5474                   22691253.2974
  -6409442.58648  -4985652.71244  21007698.2664                   21007698.3014
   -710502.531 6                  23875562.148
   3722109.95747   2910763.90443  22809269.9384                   22809269.4494
   2367401.62547   1852665.61243  23322772.9144                   23322775.4574
  -2158659.82848  -1681864.31744  21464105.5784                   21464105.2814
 11  9 25 17 44  0.0000000  0  8G08G11G07G17G04G24G26G28
   3010351.93448   2347573.81144  20648710.7734                   20648711.2704
   9592354.934 7                  23303803.328
  11898995.91447   9264651.61043  22705472.0634                   22705474.5704
  -6454969.12548  -5021127.97744  20999035.1334                   20999034.6884
   -848463.297 6                  23849309.539
   3756156.93447   2937294.10343  22815748.3834                   22815750.3054
   2391936.22347   1871783.40153  23327441.5164                   23327441.7854
  -2200423.72348  -1714407.64944  21456158.5164                   21456157.1374
 11  9 25 17 44 30.0000000  0  8G08G11G07G17G04G24G26G28
   3042046.48848   2372270.74644  20654742.5784                   20654742.4924
   9657146.281 6                  23316132.281
  11974001.79347   9323097.56743  22719745.3674                   22719748.1644
  -6500162.60948  -5056343.68644  20990435.2734                   20990434.3594
   -986392.898 6                  23823062.172
   3790678.71547   2964193.95543  22822317.7734                   22822320.7384
   2416885.984 7                  23332189.742
  -2242112.77748  -1746892.68444  21448225.2734                   21448224.6134
 11  9 25 17 45  0.0000000  0  8G08G11G07G17G04G24G26G28
   3074281.78148   2397389.06544  20660876.5784                   20660878.2934
   9722250.35247   7572944.50053  23328521.2274                   23328514.4024
  12049281.44547   9381756.87043  22734070.4064                   22734072.2974
  -6545024.56648  -5091301.08244  20981898.1094                   20981898.1604
  -1124289.234 6                  23796820.891
   3825672.80547   2991462.02443  22828977.1334                   22828980.6294
   2442247.426 7                  23337016.109
  -2283726.78148  -1779319.15644  21440306.5474                   21440305.8554
 11  9 25 17 45 30.0000000  0  8G08G11G07G17G04G24G26G28
   3107055.11348   2422926.69344  20667113.3914                   20667114.5164
   9787662.895 7                  23340969.477
  12124830.85947   9440626.47143  22748447.1954                   22748449.7854
  -6589557.50848  -5126002.07044  20973424.0864                   20973423.6724
  -1262150.96546   -967422.59453  23770586.3364                   23770590.1414
   3861135.85247   3019095.52843  22835725.7504                   22835728.7344
   2468016.227 7                  23341919.977
  -2325266.53948  -1811687.83344  21432401.8914                   21432401.0004
 11  9 25 17 46  0.0000000  0  8G08G11G07G17G04G24G26G28
   3140368.34448   2448884.95044  20673452.7504                   20673453.0514
   9853384.078 7                  23353476.047
  12200650.87947   9499706.84443  22762876.2274                   22762877.4304
  -6633759.11748  -5160444.91344  20965013.0004                   20965012.2734
  -1399972.30147  -1074815.75453  23744359.8914                   23744361.9144
   3897068.85547   3047095.21843  22842563.2424                   22842566.6604
   2494192.637 7                  23346901.008
  -2366727.96548  -1843995.41544  21424511.9224                   21424510.9694
 11  9 25 17 46 30.0000000  0  8G08G11G07G17G04G24G26G28
   3174221.68048   2475264.14044  20679894.8594                   20679895.2344
   9919413.262 7                  23366041.055
  12276740.75047   9558997.43643  22777355.1884                   22777357.9344
  -6677628.34448  -5194628.72244  20956664.5164                   20956664.3834
  -1537748.73446  -1182173.83242  23718141.6414                   23718146.2114
   3933471.93847   3075461.16755  22849490.7274                   22849498.6564
   2520775.82047   1972177.43554  23351959.4694                   23351958.3244
  -2408108.00448  -1876239.62343  21416637.5554                   21416636.8874
 11  9 25 17 47  0.0000000  0  8G08G11G07G17G04G24G26G28
   3208613.05148   2502062.52644  20686439.4774                   20686440.1844
   9985746.859 6                  23378664.102
  12353097.14147   9618495.78843  22791885.5554                   22791887.6884
  -6721167.19148  -5228555.07844  20948379.6334                   20948379.2424
  -1675478.48446  -1289495.50543  23691932.7974                   23691938.3054
   3970341.828 6                  22856507.438
   2547761.387 7                  23357095.289
  -2449406.87948  -1908420.60344  21408778.2114                   21408777.6684
 11  9 25 17 47 30.0000000  0  8G08G11G07G17G04G24G26G28
   3243542.87548   2529280.45144  20693086.2114                   20693087.4964
  10052383.402 6                  23391343.609
  12429719.23047   9678201.07043  22806466.4454                   22806468.3754
  -6764375.19948  -5262223.67144  20940157.2734                   20940157.1174
  -1813157.22747  -1396777.60553  23665733.6804                   23665738.6804
   4007678.152 7                  22863612.055
   2575148.574 7                  23362307.023
  -2490622.31248  -1940536.50344  21400935.9304                   21400934.6604
 11  9 25 17 48  0.0000000  0  8G08G11G07G17G04G24G26G28
   3279007.23448   2556914.98844  20699835.1254                   20699835.4304
  10119318.082 6                  23404082.258
  12506602.16047   9738109.60443  22821096.7114                   22821099.8444
  -6807255.37148  -5295636.84644  20931997.3284                   20931997.4694
  -1950784.79347  -1504019.67242  23639543.0474                   23639547.3054
   4045476.55547   3162737.11953  22870805.0944                   22870808.4264
   2602931.449 7                  23367593.688
  -2531755.53148  -1972588.42444  21393108.0634                   21393107.9964
 11  9 25 17 48 30.0000000  0  8G08G11G07G17G04G24G26G28
   3315004.63348   2584964.81344  20706684.9774                   20706685.1644
  10186547.770 6                  23416875.320
  12583743.39547   9798219.56843  22835776.2894                   22835779.2074
  -6849809.06648  -5328795.57444  20923899.5234                   20923899.4064
  -2088358.14847  -1611219.65843  23613363.7344                   23613368.8754
   4083734.97747   3192548.62743  22878085.0554                   22878088.2664
   2631107.582 7                  23372955.227
  -2572805.83648  -2004575.71844  21385296.2584                   21385295.7274
 11  9 25 17 49  0.0000000  0  8G08G11G07G17G04G24G26G28
   3351536.59848   2613431.16044  20713637.1024                   20713638.2734
  10254073.027 6                  23429725.313
  12661143.75447   9858531.47043  22850505.0704                   22850508.0744
  -6892033.77748  -5361697.92144  20915864.3834                   20915864.5204
  -2225871.82047  -1718372.67653  23587196.0554                   23587199.2424
   4122454.45347   3222719.70143  22885453.0314                   22885455.7934
   2659676.80947   2080411.20853  23378392.0164                   23378399.5234
  -2613769.21548  -2036495.22544  21377501.4534                   21377500.8754
 11  9 25 17 49 30.0000000  0  8G08G11G07G17G04G24G26G28
   3388599.42648   2642311.22844  20720689.9774                   20720690.4304
  10321889.156 6                  23442629.898
  12738798.87947   9919041.69443  22865282.3594                   22865285.1564
  -6933932.56648  -5394346.32744  20907891.6174                   20907891.6054
  -2363324.52747  -1825478.69542  23561039.4144                   23561043.2344
   4161630.91447   3253246.62643  22892908.4224                   22892909.9064
   2688634.28147   2102975.48842  23383903.2504                   23383907.0274
  -2654646.42648  -2068347.59844  21369722.8984                   21369722.9224
 11  9 25 17 50  0.0000000  0  8G08G11G07G17G04G24G26G28
   3426192.40648   2671604.39644  20727844.1884                   20727844.2854
  10389994.039 6                  23455589.672
  12816706.27747   9979748.59543  22880108.3754                   22880110.1374
  -6975506.13748  -5426741.33244  20899980.2424                   20899980.6524
  -2500713.39147  -1932534.74242  23534895.1804                   23534898.6134
   4201262.99247   3284128.66743  22900450.4534                   22900453.7704
   2717977.598 7                  23389486.648
  -2695436.18748  -2100131.86544  21361960.8284                   21361959.8984
 11  9 25 17 50 30.0000000  0  8G08G11G07G17G04G24G26G28
   3464315.54748   2701310.66244  20735098.3204                   20735099.3164
  10458386.359 6                  23468604.734
  12894865.37547  10040651.57843  22894981.7424                   22894984.0044
  -7016753.73848  -5458882.35144  20892131.2974                   20892130.9844
  -2638034.25847  -2039537.87152  23508764.1644                   23508770.4414
   4241350.07447   3315365.35242  22908078.4844                   22908080.4494
   2747705.05547   2149004.33553  23395143.9454                   23395148.0944
  -2736136.04348  -2131846.07244  21354215.7974                   21354215.2544
 11  9 25 17 51  0.0000000  0  8G08G11G07G17G04G24G26G28
   3502969.11748   2731430.19744  20742454.2194                   20742454.5204
  10527065.645 6                  23481673.797
  12973275.84847  10101750.31443  22909903.2894                   22909905.9534
  -7057674.44148  -5490768.64444  20884344.3914                   20884344.5904
  -2775281.910 7                  23482646.742
   4281891.74647   3346956.12243  22915792.8364                   22915795.9414
   2777815.67647   2172467.17443  23400873.5634                   23400876.5664
  -2776742.87548  -2163487.76144  21346488.6564                   21346487.8164
 11  9 25 17 51 30.0000000  0  8G08G11G07G17G04G24G26G28
   3542150.41448   2761961.02844  20749910.0864                   20749910.9454
  10596027.504 6                  23494797.063
  13051933.39847  10163041.84343  22924871.0634                   22924873.7074
  -7098270.55948  -5522401.94244  20876619.3054                   20876619.2504
  -2912455.39547  -2253372.08053  23456542.4384                   23456548.4264
   4322884.46947   3378898.46543  22923594.0394                   22923597.4924
   2808305.18847   2196225.00343  23406675.5004                   23406679.1994
  -2817257.21948  -2195057.40544  21338778.9694                   21338778.5594
 11  9 25 17 52  0.0000000  0  8G08G11G07G17G04G24G26G28
   3581858.52348   2792902.32443  20757466.1334                   20757466.9494
  10665269.883 6                  23507972.906
  13130836.44547  10224524.53543  22939885.8364                   22939888.1564
  -7138542.32448  -5553782.56544  20868955.3914                   20868955.1484
  -3049550.97746  -2360199.73052  23430454.3834                   23430459.5474
   4364327.06347   3411191.25843  22931481.3054                   22931483.5204
   2839171.45747   2220276.57843  23412549.4064                   23412553.1414
  -2857677.36748  -2226553.64644  21331087.3364                   21331087.0864
 11  9 25 17 52 30.0000000  0  8G08G11G07G17G04G24G26G28
   3622094.55948   2824255.02444  20765123.2974                   20765123.3914
  10734793.023 6                  23521203.141
  13209985.63347  10286199.04843  22954947.4924                   22954949.7074
  -7178487.87548  -5584908.96444  20861353.8674                   20861354.1214
  -3186563.02747  -2466962.22742  23404381.4144                   23404385.6214
   4406220.10947   3443835.14543  22939452.7114                   22939454.8284
   2870414.15247   2244621.51143  23418495.0084                   23418498.2624
  -2897999.41848  -2257973.45144  21323414.4924                   21323413.5984
 11  9 25 17 53  0.0000000  0  8G08G11G07G17G04G24G26G28
   3662854.17648   2856015.68344  20772879.1174                   20772880.3594
  10804591.535 6                  23534485.422
  13289375.60547  10348061.23043  22970055.3594                   22970057.4844
  -7218110.86748  -5615784.02444  20853814.1644                   20853814.6684
  -3323491.28546  -2573659.52042  23378324.0314                   23378327.4534
   4448559.15247   3476826.52953  22947509.7504                   22947510.5044
   2902027.82447   2269255.19043  23424511.1174                   23424515.2034
  -2938224.64148  -2289317.79244  21315759.9614                   21315758.8794
 11  9 25 17 53 30.0000000  0  8G08G11G07G17G04G24G26G28
   3704135.84048   2888183.12044  20780735.2504                   20780735.9494
  10874662.637 6                  23547819.492
  13369003.41047  10410108.59543  22985208.0394                   22985210.1134
  -7257412.56648  -5646408.71944  20846335.5234                   20846335.1914
  -3460333.35947  -2680289.50953  23352284.3984                   23352288.8714
   4491341.62547   3510163.53943  22955650.5864                   22955653.7624
   2934009.10247   2294175.64943  23430597.2734                   23430600.8094
  -2978352.67248  -2320586.41544  21308123.8054                   21308123.4454
 11  9 25 17 54  0.0000000  0  8G08G11G07G17G04G24G26G28
   3745937.78148   2920755.92744  20788689.7584                   20788690.1374
  10945003.551 6                  23561205.430
  13448867.10547  10472339.78943  23000405.3594                   23000407.6954
  -7296393.92248  -5676783.82544  20838917.4924                   20838918.0864
  -3597086.28947  -2786850.17642  23326261.8204                   23326265.4414
   4534565.52047   3543844.21843  22963876.8834                   22963878.1684
   2966354.941 7                  23436752.242
  -3018382.40648  -2351778.43844  21300506.2894                   21300505.3014
 11  9 25 17 54 30.0000000  0  8G08G11G07G17G04G24G26G28
   3788257.59448   2953732.35044  20796743.1644                   20796743.7154
  11015611.16447   8580757.59653  23574640.8364                   23574632.9654
  13528963.43447  10534752.22543  23015647.7894                   23015650.5944
  -7335056.25048  -5706910.32144  20831560.1334                   20831560.8164
  -3733747.60947  -2893339.37243  23300255.4224                   23300259.6094
   4578228.03547   3577866.86043  22972184.3754                   22972186.9184
   2999061.656 7                  23442976.281
  -3058313.04348  -2382893.23544  21292908.1724                   21292907.0824
 11  9 25 17 55  0.0000000  0  8G08G11G07G17G04G24G26G28
   3831093.47747   2987110.87144  20804894.3754                   20804895.6994
  11086482.270 7                  23588127.852
  13609289.61747  10597343.87543  23030933.7194                   23030937.1484
  -7373401.05948  -5736789.39844  20824263.5784                   20824263.4534
  -3870315.09847  -2999755.70843  23274267.7584                   23274271.2734
   4622326.41846   3612229.15543  22980576.2114                   22980579.4224
   3032125.93447   2370630.12953  23449267.7734                   23449270.4734
  -3098144.13748  -2413930.45544  21285328.0554                   21285326.7664
 11  9 25 17 55 30.0000000  0  8G08G11G07G17G04G24G26G28
   3874444.87548   3020891.10944  20813144.0004                   20813145.1844
  11157615.684 7                  23601664.805
  13689844.64147  10660113.84243  23046262.5784                   23046265.7464
  -7411428.28548  -5766421.03644  20817027.1484                   20817027.4694
  -4006784.48846  -3106094.94243  23248297.4844                   23248301.3404
   4666859.96147   3646930.60743  22989051.3134                   22989053.7194
   3065546.07847   2396671.51843  23455627.8674                   23455631.0984
  -3137872.98848  -2444888.02344  21277767.9064                   21277766.9454
 11  9 25 17 56  0.0000000  0  8G08G11G07G17G04G24G26G28
   3918306.39548   3055068.83843  20821490.3204                   20821491.7504
  11229004.965 7                  23615249.656
  13770622.45347  10723057.51243  23061634.0634                   23061637.2894
  -7449142.45748  -5795808.68044  20809850.3834                   20809850.1914
  -4143156.62147  -3212358.89753  23222347.3754                   23222350.8914
   4711822.84047   3681966.66643  22997607.4454                   22997609.4494
   3099315.57447   2422985.32243  23462054.5004                   23462058.8674
  -3177502.00048  -2475767.75843  21270227.0314                   21270226.4844
 11  9 25 17 56 30.0000000  0  8G08G11G07G17G04G24G26G28
   3962677.68448   3089643.76443  20829933.8914                   20829934.7154
  11300648.816 6                  23628882.531
  13851621.29746  10786173.35643  23077047.9224                   23077051.3794
  -7486543.27048  -5824952.19844  20802733.3984                   20802733.0904
  -4279427.37946  -3318543.93742  23196415.8594                   23196419.0274
   4757214.00847   3717336.19343  23006245.0864                   23006247.4694
   3133432.24646   2449569.65843  23468546.4224                   23468549.5354
  -3217029.43448  -2506568.37344  21262705.1564                   21262705.0664
 11  9 25 17 57  0.0000000  0  8G08G11G07G17G04G24G26G28
   4007555.84448   3124613.70144  20838474.2894                   20838475.0984
  11372542.930 7                  23642564.766
  13932837.55147  10849458.46643  23092503.1334                   23092505.7584
  -7523632.77748  -5853853.12544  20795675.0084                   20795675.7734
  -4415595.02746  -3424648.32842  23170503.3134                   23170507.3794
   4803030.17646   3753037.02042  23014963.0474                   23014966.4534
   3167892.11346   2476421.42043  23475103.8754                   23475107.9224
  -3256455.20748  -2537289.78144  21255202.5864                   21255201.7544
 11  9 25 17 57 30.0000000  0  8G08G11G07G17G04G24G26G28
   4052938.97748   3159977.08144  20847110.4224                   20847111.6954
  11444684.707 7                  23656292.109
  14014268.85247  10912911.27643  23107999.3364                   23108002.3364
  -7560412.57448  -5882512.70544  20788676.0704                   20788676.6094
  -4551657.01247  -3530670.63753  23144611.8134                   23144614.9144
   4849268.87146   3789067.17543  23023762.5554                   23023765.6254
   3202691.91447   2503537.96243  23481726.6414                   23481729.1054
  -3295778.23448  -2567931.10644  21247720.1094                   21247718.4184
 11  9 25 17 58  0.0000000  0  8G08G11G07G17G04G24G26G28
   4098825.60248   3195732.80844  20855842.5864                   20855843.6174
  11517071.973 7                  23670067.352
  14095912.85946  10976529.71843  23123535.7194                   23123539.1024
  -7596883.32848  -5910931.50044  20781736.1174                   20781735.7584
  -4687610.00447  -3636607.90243  23118740.2734                   23118745.7194
   4895928.07047   3825424.81543  23032641.9064                   23032643.3134
   3237828.80547   2530917.32743  23488412.8984                   23488416.6764
  -3334996.94948  -2598491.13944  21240256.8914                   21240255.9344
 11  9 25 17 58 30.0000000  0  8G08G11G07G17G04G24G26G28
   4145212.77748   3231878.57344  20864669.8284                   20864670.7814
  11589701.258 6                  23683887.984
  14177766.44147  11040311.54943  23139112.2424                   23139116.5474
  -7633046.54348  -5939110.61244  20774854.5394                   20774854.5514
  -4823451.76247  -3742458.37542  23092890.3754                   23092895.4144
   4943005.12147   3862108.14153  23041599.9224                   23041599.3524
   3273299.02347   2558556.25353  23495163.0084                   23495164.1454
  -3374110.98848  -2628969.65744  21232813.3204                   21232812.8444
 11  9 25 17 59  0.0000000  0  8G08G11G07G17G04G24G26G28
   4192097.92248   3268412.38843  20873591.8054                   20873592.6604
  11662568.672 6                  23697753.875
  14259826.02347  11104253.84943  23154727.2894                   23154731.6844
  -7668904.35948  -5967051.76544  20768031.1094                   20768031.3404
  -4959180.67247  -3848221.12243  23067062.8984                   23067067.5514
   4990496.34847   3899114.18143  23050636.8754                   23050640.4414
   3309098.223 6                  23501974.883
  -3413120.14848  -2659366.40944  21225390.5234                   21225390.0704
 11  9 25 17 59 30.0000000  0  8G08G11G07G17G04G24G26G28
   4239476.31648   3305330.51643  20882607.1254                   20882608.7464
  11735668.602 6                  23711665.156
  14342086.19547  11168352.47943  23170381.3834                   23170384.8794
  -7704460.96548  -5994758.20044  20761264.8054                   20761265.0824
  -5094796.99247  -3953896.06853  23041254.7974                   23041257.0864
   5038396.57047   3936438.94942  23059752.2894                   23059755.9454
   3345220.324 6                  23508847.867
  -3452026.70748  -2689683.17744  21217986.7114                   21217985.9804
 11  9 25 18  0  0.0000000  0  8G08G11G07G17G04G24G26G28
   4287347.44548   3342632.60844  20891717.2194                   20891718.7544
  11809000.090 6                  23725619.789
  14424545.73847  11232606.33343  23186072.4304                   23186076.0824
  -7739716.30148  -6022229.92644  20754555.8054                   20754555.4264
  -5230296.00047  -4059479.52042  23015471.1804                   23015471.6334
   5086704.96147   3974081.85543  23068945.2424                   23068948.9734
   3381663.895 6                  23515783.148
  -3490827.91848  -2719917.92744  21210603.4614                   21210601.4884
 11  9 25 18  0 30.0000000  0  8G08G11G07G17G04G24G26G28
   4335709.81348   3380317.46343  20900920.2194                   20900921.5314
  11882560.660 6                  23739617.625
  14507202.71147  11297014.25443  23201802.3204                   23201805.6134
  -7774670.16048  -6049466.68644  20747904.4064                   20747904.3594
  -5365674.43047  -4164969.11443  22989708.3674                   22989711.8444
   5135419.91447   4012041.36343  23078215.2814                   23078219.9614
   3418426.453 6                  23522779.414
  -3529521.75448  -2750068.94744  21203240.0164                   21203238.6024
 11  9 25 18  1  0.0000000  0  8G08G11G07G17G04G24G26G28
   4384560.30148   3418382.67444  20910216.0704                   20910217.1844
  11956346.715 6                  23753659.133
  14590053.59046  11361572.93543  23217568.3594                   23217573.5004
  -7809325.16048  -6076470.57944  20741310.0944                   20741309.8914
  -5500930.45347  -4270363.41443  22963970.8674                   22963973.1914
   5184537.87147   4050315.06143  23087561.6804                   23087567.1454
   3455503.629 7                  23529835.945
  -3568108.25048  -2780136.38144  21195896.9534                   21195896.7464
 11  9 25 18  1 30.0000000  0  8G08G11G07G17G04G24G26G28
   4433896.07048   3456826.07144  20919604.7814                   20919606.0234
  12030354.660 7                  23767742.703
  14673094.84847  11426280.39343  23233370.9924                   23233374.5514
  -7843683.13748  -6103243.04544  20734771.8364                   20734771.9144
  -5636062.10547  -4375660.80553  22938256.1884                   22938257.2854
   5234055.72347   4088900.29555  23096985.3674                   23096994.1484
   3492891.301 6                  23536949.594
  -3606587.31248  -2810120.05844  21188574.7344                   21188573.4614
 11  9 25 18  2  0.0000000  0  8G08G11G07G17G04G24G26G28
   4483716.02348   3495646.71044  20929085.2584                   20929086.5864
  12104582.997 6                  23781867.547
  14756325.06347  11491134.82853  23249209.8204                   23249207.6414
  -7877744.09048  -6129784.02044  20728289.8524                   20728290.1804
  -5771065.65247  -4480858.28653  22912564.8674                   22912568.0984
   5283972.08647   4127796.17653  23106484.1644                   23106489.1134
   3530587.332 7                  23544123.508
  -3644956.35548  -2840018.04244  21181273.5634                   21181272.7704
 11  9 25 18  2 30.0000000  0  8G08G11G07G17G04G24G26G28
   4534019.02347   3534843.77243  20938657.8134                   20938659.1914
  12179029.207 6                  23796035.133
  14839741.96547  11556134.48453  23265082.8674                   23265088.0234
  -7911509.03548  -6156094.39244  20721864.7424                   20721865.1414
  -5905937.62147  -4585953.09842  22886899.8054                   22886902.2584
   5334285.07847   4167000.83243  23116059.4454                   23116062.2234
   3568589.086 7                  23551355.289
  -3683214.12147  -2869829.30244  21173993.0634                   21173992.6524
 11  9 25 18  3  0.0000000  0  8G08G11G07G17G04G24G26G28
   4584808.41447   3574419.76944  20948322.5394                   20948323.3164
  12253696.055 6                  23810243.141
  14923348.61747  11621282.53543  23280992.7114                   23280997.2584
  -7944973.51248  -6182170.63144  20715496.9064                   20715496.8204
  -6040669.91847  -4690939.26443  22861261.8134                   22861264.6214
   5384997.56647   4206517.07243  23125709.0784                   23125711.5354
   3606898.906 7                  23558644.883
  -3721354.04348  -2899548.72944  21166735.7344                   21166735.3914
 11  9 25 18  3 30.0000000  0  8G08G11G07G17G04G24G26G28
   4636075.27348   3614367.86843  20958078.4304                   20958080.0594
  12328573.805 7                  23824491.922
  15007135.50847  11686570.69753  23296937.1024                   23296937.7304
  -7978145.77348  -6208019.10144  20709184.2974                   20709184.5124
  -6175266.60247  -4795819.66243  22835648.2734                   22835651.9774
   5436100.070 7                  23135433.789
   3645506.215 7                  23565992.336
  -3759382.29348  -2929181.14944  21159498.8204                   21159498.3404
 11  9 25 18  4  0.0000000  0  8G08G11G07G17G04G24G26G28
   4687820.81348   3654689.04043  20967925.4144                   20967927.1524
  12403663.414 7                  23838781.984
  15091103.05147  11751999.74043  23312915.7974                   23312920.2894
  -8011023.49648  -6233638.13244  20702928.0944                   20702927.9024
  -6309721.35247  -4900589.54943  22810062.6024                   22810065.4264
   5487593.84847   4286461.77154  23145232.7504                   23145241.3364
   3684411.379 7                  23573394.930
  -3797293.69148  -2958722.53744  21152284.7664                   21152284.1844
 11  9 25 18  4 30.0000000  0  8G08G11G07G17G04G24G26G28
   4740046.37148   3695384.09543  20977863.4224                   20977864.5824
  12478965.859 6                  23853110.703
  15175252.37147  11817570.29943  23328929.6094                   23328934.3284
  -8043604.05548  -6259025.56444  20696727.9844                   20696727.7544
  -6444027.62547  -5005243.74543  22784504.4534                   22784508.4774
   5539480.063 7                  23155106.367
   3723615.008 7                  23580854.914
  -3835083.50848  -2988169.15844  21145093.3364                   21145092.5124
 11  9 25 18  5  0.0000000  0  8G08G11G07G17G04G24G26G28
   4792747.08247   3736449.54343  20987892.1954                   20987893.7074
  12554475.668 7                  23867480.148
  15259578.48846  11883278.98443  23344976.0314                   23344980.2424
  -8075891.33248  -6284184.47744  20690584.0784                   20690583.7734
  -6578185.16447  -5109781.96142  22758974.5944                   22758979.2074
   5591753.62947   4367625.38953  23165053.5634                   23165028.2234
   3763111.24247   2940228.64854  23588371.6484                   23588370.2774
  -3872753.23448  -3017522.16744  21137925.3754                   21137925.0904
 11  9 25 18  5 30.0000000  0  8G08G11G07G17G04G24G26G28
   4845920.34448   3777883.14843  20998010.9384                   20998013.1174
  12630189.566 6                  23881888.906
  15344078.21546  11949122.64743  23361056.5314                   23361060.0634
  -8107887.06248  -6309116.21144  20684495.2504                   20684495.3364
  -6712191.73847  -5214202.64843  22733473.7584                   22733477.2074
   5644411.441 6                  23175074.328
   3802896.29346   2971229.91653  23595942.5004                   23595947.0984
  -3910302.28148  -3046781.21344  21130779.7504                   21130778.7154
 11  9 25 18  6  0.0000000  0  8G08G11G07G17G04G24G26G28
   4899565.37947   3819684.42643  21008218.9614                   21008220.8094
  12706105.914 6                  23896334.508
  15428750.26247  12015100.51443  23377169.1334                   23377172.6884
  -8139590.85548  -6333820.49144  20678462.6174                   20678462.4774
  -6846043.25847  -5318502.38743  22708003.8284                   22708006.6644
   5697452.336 6                  23185167.891
   3842967.578 7                  23603568.375
  -3947728.39547  -3075944.48144  21123657.8054                   21123657.0944
 11  9 25 18  6 30.0000000  0  8G08G11G07G17G04G24G26G28
   4953680.89547   3861852.28843  21018517.3674                   21018519.2704
  12782222.684 6                  23910819.242
  15513592.32446  12081211.10043  23393314.0474                   23393317.8484
  -8171004.07048  -6358298.32644  20672485.0084                   20672484.8524
  -6979736.52747  -5422678.93442  22682562.7424                   22682565.1484
   5750874.535 6                  23195333.383
   3883323.133 7                  23611247.547
  -3985029.74248  -3105010.45044  21116559.7734                   21116558.3054
 11  9 25 18  7  0.0000000  0  8G08G11G07G17G04G24G26G28
   5008265.23447   3904385.39944  21028904.6884                   21028905.9024
  12858538.230 6                  23925341.492
  15598602.738 6                  23409491.438
  -8202126.77748  -6382549.78644  20666562.1644                   20666562.4264
  -7113267.74647  -5526729.12253  22657151.9224                   22657156.9264
   5804676.324 6                  23205572.602
   3923960.262 7                  23618980.695
  -4022204.34848  -3133977.67944  21109485.9304                   21109484.5124
 11  9 25 18  7 30.0000000  0  8G08G11G07G17G04G24G26G28
   5063314.82047   3947281.06843  21039380.1174                   21039381.3524
  12935048.664 6                  23939900.641
  15683777.723 7                  23425699.914
  -8232961.28948  -6406576.66244  20660694.5234                   20660694.9614
  -7246634.93047  -5630651.48042  22631773.4304                   22631775.1724
   5858854.06346   4575755.86352  23215882.0084                   23215883.3524
   3964874.70747   3097446.09853  23626766.6484                   23626773.2814
  -4059251.92248  -3162845.95544  21102435.4064                   21102435.3554
 11  9 25 18  8  0.0000000  0  8G08G11G07G17G04G24G26G28
   5118826.92647   3990537.14243  21049943.0784                   21049945.4454
  13011750.422 6                  23954497.102
  15769114.172 6                  23441938.484
  -8263509.45348  -6430380.44644  20654881.6414                   20654881.9104
  -7379835.99247  -5734444.46743  22606425.8914                   22606428.9064
   5913404.51246   4618262.56342  23226262.2114                   23226266.8164
   4006062.324 7                  23634604.297
  -4096171.96948  -3191614.80644  21095410.1564                   21095409.9694
 11  9 25 18  8 30.0000000  0  8G08G11G07G17G04G24G26G28
   5174798.78148   4034151.52243  21060594.9844                   21060596.7274
  13088640.695 6                  23969129.242
  15854609.16047  12346937.41953  23458207.6644                   23458211.8524
  -8293772.62948  -6453962.09444  20649122.5234                   20649122.6214
  -7512868.65247  -5838106.30843  22581110.3054                   22581113.5314
   5968324.836 6                  23236713.297
   4047519.754 7                  23642493.313
  -4132963.73048  -3220283.78144  21088408.8984                   21088407.8914
 11  9 25 18  9  0.0000000  0  8G08G11G07G17G04G24G26G28
   5231230.12148   4078123.87143  21071333.9384                   21071334.8014
  13165718.848 6                  23983796.594
  15940261.72347  12413679.37943  23474507.5704                   23474512.8324
  -8323750.19148  -6477321.25044  20643418.3444                   20643417.9574
  -7645727.93447  -5941632.79743  22555827.4224                   22555830.3054
   6023614.44546   4704140.26652  23247234.4224                   23247238.5234
   4089245.33247   3194358.18853  23650433.4384                   23650430.6134
  -4169624.06648  -3248850.28244  21081432.7114                   21081432.0394
 11  9 25 18  9 30.0000000  0  8G08G11G07G17G04G24G26G28
   5288118.39548   4122452.30243  21082159.0164                   21082160.4384
  13242981.484 6                  23998499.367
  16026068.80147  12480541.77043  23490836.6564                   23490841.7704
  -8353444.03148  -6500459.32944  20637767.6414                   20637767.7814
  -7778411.21947  -6045022.35743  22530578.8984                   22530582.3324
   6079270.47746   4747508.53143  23257825.7344                   23257829.0784
   4131235.738 7                  23658424.375
  -4206152.00848  -3277313.60244  21074481.5394                   21074480.9264
 11  9 25 18 10  0.0000000  0  8G08G11G07G17G04G24G26G28
   5345457.10948   4167131.69843  21093070.1254                   21093071.1294
  13320422.031 6                  24013236.008
  16112023.71947  12547519.38943  23507193.2734                   23507197.8324
  -8382859.32848  -6523380.32844  20632169.7664                   20632169.8244
  -7910920.19947  -6148275.85443  22505363.3364                   22505367.0234
   6135286.25847   4791157.10542  23268485.6564                   23268489.5124
   4173483.156 7                  23666464.320
  -4242550.50048  -3305676.09444  21067555.2114                   21067554.4264
 11  9 25 18 10 30.0000000  0  8G08G11G07G17G04G24G26G28
   5403246.72748   4212162.47343  21104067.6954                   21104068.0594
  13398040.340 6                  24028005.609
  16198126.46146  12614611.86643  23523578.1884                   23523583.9884
  -8411994.62948  -6546083.13244  20626625.8914                   20626625.7854
  -8043249.39147  -6251389.44543  22480182.1334                   22480186.7274
   6191661.85547   4835086.09452  23279213.6724                   23279213.0944
   4215987.148 7                  23674552.664
  -4278816.02348  -3333934.94044  21060654.0864                   21060653.2234
 11  9 25 18 11  0.0000000  0  8G08G11G07G17G04G24G26G28
   5461483.34848   4257541.54743  21115149.5784                   21115150.8794
  13475832.137 6                  24042808.930
  16284373.152 6                  23539990.203
  -8440852.56648  -6568569.87344  20621134.5084                   20621133.9224
  -8175397.04347  -6354361.64943  22455035.6334                   22455038.8714
   6248393.35947   4879292.43143  23290009.3524                   23290011.4694
   4258743.207 7                  23682687.977
  -4314948.50048  -3362090.13144  21053778.2114                   21053777.6884
 11  9 25 18 11 30.0000000  0  8G08G11G07G17G04G24G26G28
   5520166.67648   4303268.74843  21126316.6024                   21126319.1374
  13553796.820 6                  24057645.273
  16370763.12146  12749133.46453  23556430.6644                   23556434.3914
  -8469432.43047  -6590839.88844  20615695.5394                   20615695.7194
  -8307358.62147  -6457188.54143  22429924.1334                   22429926.9304
   6305480.10947   4923775.41954  23300873.1484                   23300874.1454
   4301749.87547   3359945.24853  23690872.4064                   23690878.6724
  -4350944.48848  -3390138.94844  21046928.6954                   21046928.1604
 11  9 25 18 12  0.0000000  0  8G08G11G07G17G04G24G26G28
   5579295.55548   4349343.02643  21137568.6724                   21137570.4654
  13631933.310 6                  24072515.188
  16457295.37147  12816560.90543  23572897.3524                   23572900.3284
  -8497733.89848  -6612892.99344  20610310.0474                   20610310.0354
  -8439129.60547  -6559867.26543  22404848.2114                   22404851.5824
   6362921.05147   4968534.55952  23311803.4924                   23311805.4774
   4345005.184 7                  23699103.977
  -4386801.57048  -3418079.53544  21040105.0784                   21040104.8794
 11  9 25 18 12 30.0000000  0  8G08G11G07G17G04G24G26G28
   5638868.25848   4395763.13043  21148905.2504                   21148906.7464
  13710239.559 6                  24087415.883
  16543967.40247  12884097.23842  23589390.4454                   23589395.0394
  -8525757.97348  -6634729.90944  20604977.1724                   20604977.4804
  -8570706.75447  -6662394.74543  22379809.3524                   22379812.6764
   6420714.00446   5013567.79343  23322800.9614                   23322805.8554
   4388506.547 7                  23707382.250
  -4422517.90248  -3445910.43244  21033308.4844                   21033307.9694
 11  9 25 18 13  0.0000000  0  8G08G11G07G17G04G24G26G28
   5698883.35948   4442528.08543  21160325.3834                   21160327.5164
  13788713.438 6                  24102349.180
  16630777.44946  12951740.50043  23605909.4924                   23605917.9024
  -8553505.31248  -6656351.24944  20599697.0234                   20599696.7154
  -8702086.35247  -6764768.29443  22354809.4774                   22354811.8404
   6478857.18446   5058874.14542  23333865.3524                   23333871.6604
   4432251.172 7                  23715706.578
  -4458091.49648  -3473630.17444  21026539.1174                   21026537.8714
 11  9 25 18 13 30.0000000  0  8G08G11G07G17G04G24G26G28
   5759341.65247   4489638.31143  21171830.6484                   21171832.1884
  13867355.965 6                  24117314.156
  16717726.19947  13019493.02052  23622455.9534                   23622459.5354
  -8580973.42648  -6677754.95744  20594470.0634                   20594470.1484
  -8833262.20747  -6866983.30443  22329846.9534                   22329849.8984
   6537351.23846   5104453.80952  23344996.1804                   23344995.7304
   4476239.363 7                  23724076.992
  -4493517.83648  -3501235.02944  21019797.4534                   21019796.2624
 11  9 25 18 14  0.0000000  0  8G08G11G07G17G04G24G26G28
   7395656.78547   5764688.91843  21483211.2274                   21483212.6334
  15521580.15246  12091893.86352  24432103.6174                   24432110.3244
  18380226.40247  14314947.48042  23938819.3914                   23938824.7464
  -7032744.42248  -5471342.77744  20889088.4924                   20889088.5314
  -7388808.85247  -5741434.99543  22604717.7114                   22604720.4614
   8171610.14146   6377902.32852  23655985.4924                   23655987.3164
   6095884.535 6                  24032284.609
  -2953375.98848  -2301124.51944  21312876.9774                   21312876.1684
 11  9 25 18 14 30.0000000  0  8G08G11G07G17G04G24G26G28
   7456991.26647   5812481.91243  21494882.3444                   21494884.9144
                                  15600549.195 6                  24447130.375
  18467441.75846  14382907.16943  23955416.6094                   23955422.1764
  -7059660.57848  -5492316.40444  20883966.3754                   20883966.0164
  -7519571.36347  -5843327.79043  22579834.1564                   22579837.0394
   8230795.95746   6424021.16353  23667247.8134                   23667251.3524
   6140346.793 6                  24040746.656
  -2988506.50848  -2328498.98344  21306192.2504                   21306191.7544
 11  9 25 18 15  0.0000000  0  8G08G11G07G17G04G24G26G28
   7518763.14547   5860615.73343  21506637.8444                   21506639.9304
  15679680.45746  12215088.58652  24462188.5864                   24462192.6174
  18554789.95347  14450970.37942  23972038.0314                   23972045.2894
  -7086299.90648  -5513074.32644  20878897.2194                   20878896.9774
  -7650120.10247  -5945053.96243  22554992.1484                   22554994.1334
   8290326.74646   6470408.56943  23678576.7974                   23678580.8554
   6185044.35946   4827447.53952  24049252.3594                   24049257.8524
  -3023484.21548  -2355754.31144  21299535.9844                   21299535.6054
 11  9 25 18 15 30.0000000  0  8G08G11G07G17G04G24G26G28
   7580967.27047   5909086.31144  21518474.7814                   21518477.0394
  15758968.500 6                                                  24477276.539
  18642265.65646  14519132.77052  23988684.7814                   23988690.0084
  -7112666.02747  -5533619.36344  20873879.7114                   20873879.7734
  -7780454.45347  -6046613.11243  22530189.1484                   22530191.7384
   8350197.19547   6517060.71542  23689970.3284                   23689974.1954
   6229971.25046   4862455.21043  24057801.1334                   24057807.0044
  -3058310.40248  -2382891.58344  21292908.7814                   21292907.9104
 11  9 25 18 16  0.0000000  0  8G08G11G07G17G04G24G26G28
   7643604.38747   5957894.34943  21530394.1884                   21530397.4064
  15838413.945 6                                                  24492395.023
  18729868.70746  14587394.64142  24005355.7274                   24005360.6024
  -7138757.33247  -5553950.28544  20868914.6174                   20868914.3244
  -7910569.18447  -6148001.17343  22505429.2894                   22505432.0004
   8410407.813 6                  23701427.422
   6275126.82447   4897641.11353  24066395.0394                   24066398.6644
  -3092980.97748  -2409907.67044  21286311.1024                   21286310.9064
 11  9 25 18 16 30.0000000  0  8G08G11G07G17G04G24G26G28
   7706669.58247   6007035.91743  21542395.1644                   21542397.2464
  15918011.820 6                                                  24507542.742
  18817594.438 6                  24022049.250
  -7164577.50847  -5574069.86544  20864001.2894                   20864001.6414
  -8040463.40247  -6249217.32243  22480711.1804                   22480714.7624
   8470953.62547   6611153.31253  23712948.8594                   23712949.0044
   6320505.66447   4933001.38353  24075030.1804                   24075035.9534
  -3127496.79348  -2436803.13244  21279742.5634                   21279742.6994
 11  9 25 18 17  0.0000000  0  8G08G11G07G17G04G24G26G28
   7770163.02347   6056511.20243  21554477.6094                   21554479.8524
  15997762.523 6                                                  24522718.539
  18905442.87946  14724204.90252  24038766.8204                   24038771.2074
  -7190125.03148  -5593977.06444  20859139.9774                   20859140.0084
  -8170131.53547  -6350257.31743  22456035.7894                   22456039.3164
   8531834.88946   6658593.26953  23724534.4534                   23724537.4694
   6366107.37147   4968534.94753  24083707.6174                   24083701.6454
  -3161853.61748  -2463574.61944  21273205.1724                   21273204.3134
 11  9 25 18 17 30.0000000  0  8G08G11G07G17G04G24G26G28
   7834080.64847   6106317.03543  21566640.7194                   21566642.9144
  16077661.980 6                                                  24537922.859
  18993410.094 6                  24055506.297
  -7215402.46148  -5613673.75044  20854329.8914                   20854330.4494
  -8299571.95747  -6451119.94643  22431404.1414                   22431406.8874
   8593047.285 6                  23736182.539
   6411927.355 6                  24092426.945
  -3196051.71148  -2490222.50144  21266697.5004                   21266696.7114
 11  9 25 18 18  0.0000000  0  8G08G11G07G17G04G24G26G28
   7898420.07847   6156451.50243  21578884.7114                   21578886.4144
  16157707.414 6                                                  24553154.625
  19081493.516 6                  24072267.617
  -7240410.97348  -5633160.88644  20849570.8284                   20849570.9494
  -8428781.93047  -6551802.93543  22406815.9064                   22406819.1334
   8654588.37146   6754245.24953  23747894.3364                   23747895.4694
   6457962.09447   5040109.86553  24101187.6334                   24101186.5594
  -3230089.75848  -2516745.68944  21260220.3834                   21260219.9774
 11  9 25 18 18 30.0000000  0  8G08G11G07G17G04G24G26G28
   7963174.70747   6206909.50343  21591207.0004                   21591208.8874
  16237892.188 6                                                  24568413.414
  19169686.340 6                  24089051.227
  -7265155.89547  -5652442.67244  20844862.0084                   20844862.0234
  -8557762.58247  -6652307.30743  22382272.1644                   22382274.7854
   8716451.22347   6802449.78952  23759665.6484                   23759670.2974
   6504204.37547   5076142.67243  24109987.5314                   24109988.6134
  -3263970.66848  -2543146.40044  21253772.9304                   21253771.9924
 11  9 25 18 19  0.0000000  0  8G08G11G07G17G04G24G26G28
   8028332.59447   6257681.78643  21603606.2344                   21603608.4064
  16318203.934 6                                                  24583696.555
  19257976.07846  14998905.73852  24105852.4924                   24105858.0434
  -7289648.48447  -5671527.79244  20840200.8834                   20840201.3444
  -8686521.08647  -6752638.48643  22357770.1334                   22357772.7974
   8778623.67247   6850895.58553  23771497.1724                   23771500.6294
   6550640.820 7                  24118824.047
  -3297702.80948  -2569431.24844  21247354.0234                   21247352.7344
 11  9 25 18 19 30.0000000  0  8G08G11G07G17G04G24G26G28
   8093886.71147   6308762.78943  21616081.1254                   21616083.9574
  16398635.508 6                                                  24599002.078
  19346356.094 6                  24122670.391
  -7313894.07847  -5690420.47744  20835587.2114                   20835587.5044
  -8815058.72347  -6852797.64943  22333310.3284                   22333311.9024
   8841099.00847   6899577.77042  23783386.4534                   23783390.2894
   6597264.06347   5148656.65953  24127696.3594                   24127697.6414
  -3331289.21148  -2595602.48244  21240962.6094                   21240961.6174
 11  9 25 18 20  0.0000000  0  7G08G07G17G04G24G26G28
   8159834.53547   6360150.51643  21628630.6024                   21628632.3484
  19434823.93446  15136708.35252  24139506.1094                   24139509.8054
  -7337894.06647  -5709121.74644  20831020.3204                   20831020.1644
  -8943372.48847  -6952782.21643  22308892.8914                   22308895.8954
   8903874.55147   6948493.72743  23795332.1484                   23795336.5124
   6644071.02347   5185129.21552  24136603.0554                   24136608.7234
  -3364727.73048  -2621658.48644  21234599.1414                   21234598.6024
 11  9 25 18 20 30.0000000  0  7G08G07G17G04G24G26G28
   8226179.66847   6411847.89843  21641255.7664                   21641257.9414
  19523382.99646  15205715.04342  24156358.3204                   24156362.6604
  -7361643.24248  -5727627.62244  20826501.2504                   20826500.8984
  -9071453.22747  -7052585.36043  22284519.9534                   22284523.4024
   8966953.633 6                  23807334.906
   6691064.50047   5221747.36353  24145545.8984                   24145545.4264
  -3398011.00848  -2647593.50944  21228266.1484                   21228265.5474
 11  9 25 18 21  0.0000000  0  7G08G07G17G04G24G26G28
   8292932.10247   6463862.65743  21653958.4774                   21653961.1604
  19612043.105 6                  24173230.563
  -7385130.69948  -5745929.51645  20822031.8054                   20822031.8164
  -9199285.85247  -7152195.09043  22260194.2344                   22260196.8484
   9030346.20346   7047042.85353  23819398.4144                   23819403.1644
   6738253.24647   5258517.60952  24154525.9614                   24154528.9654
  -3431125.84848  -2673397.26444  21221964.6724                   21221964.1294
 11  9 25 18 21 30.0000000  0  7G08G07G17G04G24G26G28
   8360092.37947   6516195.22143  21666738.7424                   21666741.1414
  19700805.137 6                  24190122.703
  -7408353.91848  -5764025.50344  20817612.1254                   20817612.6174
  -9326863.79347  -7251606.43843  22235916.0554                   22235919.1254
   9094053.293 6                  23831522.031
   6785638.03547   5295440.71952  24163542.6334                   24163546.7584
  -3464067.22348  -2699065.89944  21215695.5084                   21215695.7974
 11  9 25 18 22  0.0000000  0  7G08G07G17G04G24G26G28
   8427657.19147   6568843.00543  21679596.3914                   21679598.4574
  19789665.816 6                  24207032.633
  -7431315.31648  -5781917.53044  20813242.8204                   20813243.4454
  -9454185.31647  -7350817.88143  22211688.1024                   22211690.5434
   9158071.35246   7146568.62952  23843704.5944                   23843710.3134
   6833214.63747   5332513.18653  24172596.1334                   24172599.8364
  -3496834.39548  -2724598.80244  21209460.0864                   21209459.1024
 11  9 25 18 22 30.0000000  0  7G08G07G17G04G24G26G28
   8495618.65647   6621799.79143  21692529.3914                   21692531.0474
  19878617.352 6                  24223958.953
  -7454021.04748  -5799610.29844  20808922.0474                   20808922.0634
  -9581252.42247  -7449831.10743  22187507.8834                   22187510.5474
   9222392.824 6                  23855943.289
   6880974.48447   5369728.46853  24181685.5474                   24181685.1024
  -3529431.24648  -2749998.96944  21203257.5084                   21203256.6414
 11  9 25 18 23  0.0000000  0  7G08G07G17G04G24G26G28
   8563973.21147   6675062.91943  21705536.1564                   21705538.4774
  19967656.277 6                  24240902.453
  -7476473.12948  -5817105.44744  20804649.1724                   20804649.4144
  -9708063.23847  -7548644.72243  22163376.5004                   22163379.3674
   9287013.922 6                  23868240.734
   6928913.56347   5407083.45953  24190808.2424                   24190815.5124
  -3561857.34848  -2775266.09444  21197087.0234                   21197085.5824
 11  9 25 18 23 30.0000000  0  8G08G07G17G04G24G26G28G20
   8632717.23447   6728629.67143  21718617.3834                   21718620.1564
  20056778.551 6                  24257862.602
  -7498674.25048  -5834404.94744  20800424.5634                   20800425.0274
  -9834616.27047  -7647257.32443  22139294.1724                   22139297.2194
   9351930.85547   7297627.78152  23880594.9384                   23880595.7894
   6977027.14547   5444574.30953  24199964.4064                   24199967.2544
  -3594112.31648  -2800399.79644  21190949.1884                   21190948.6604
   6211679.43015                  24582825.172
 11  9 25 18 24  0.0000000  0  8G08G07G17G04G24G26G28G20
   8701848.02347   6782497.63643  21731773.1724                   21731775.7544
  20145981.953 6                  24274837.523
  -7520625.48047  -5851509.84944  20796247.7974                   20796247.4184
  -9960908.44547  -7745666.72743  22115261.3984                   22115263.5204
   9417140.906 6                  23893003.445
   7025312.25447   5482198.97943  24209152.2424                   24209154.7304
  -3626194.64148  -2825399.08344  21184844.1174                   21184843.7624
   6145480.973 5                  24570228.898
 11  9 25 18 24 30.0000000  0  8G08G07G17G04G24G26G28G20
   8771362.27047   6836664.41043  21745000.6724                   21745004.4024
  20235263.320 6                  24291827.969
  -7542328.80547  -5868421.51944  20792118.0554                   20792117.9224
 -10086937.31247  -7843870.96843  22091278.8984                   22091281.3954
   9482641.02746   7399479.59852  23905467.6884                   23905469.1374
   7073765.008 6                  24218372.023
  -3658103.62548  -2850263.22144  21178772.0394                   21178771.3014
   6079554.266 5                  24557682.625
 11  9 25 18 25  0.0000000  0  8G08G07G17G04G24G26G28G20
   8841261.10947   6891130.89743  21758302.8204                   21758304.7464
  20324623.723 6                  24308833.273
  -7563781.84048  -5885138.14744  20788035.5164                   20788035.2774
 -10212696.47348  -7941865.17243  22067348.0084                   22067349.7114
   9548432.31346   7450745.44552  23917988.2734                   23917991.1764
   7122385.637 6                  24227624.555
  -3689834.22348  -2874988.35644  21172734.0394                   21172732.8324
   6013906.00415                  24545191.430
 11  9 25 18 25 30.0000000  0  8G08G07G17G04G24G26G28G20
   8911535.73847   6945890.24943  21771675.8444                   21771678.4264
  20414053.914 6                  24325850.820
  -7584992.14148  -5901665.64444  20783999.0784                   20783999.1914
 -10338189.55548  -8039651.83843  22043467.3444                   22043469.2384
   9614505.758 6                  23930561.531
   7171164.824 6                  24236907.414
  -3721391.64848  -2899578.55944  21166728.9924                   21166729.1994
   5948531.305 5                  24532749.789
 11  9 25 18 26  0.0000000  0  8G08G07G17G04G24G26G28G20
   8982185.40247   7000941.78043  21785119.8914                   21785123.5784
  20503553.684 6                  24342882.742
  -7605958.87548  -5918003.37144  20780009.4224                   20780009.6844
 -10463411.53947  -8137227.35843  22019638.2504                   22019640.4694
   9680860.754 6                  23943188.469
   7220101.371 6                  24246220.008
  -3752771.76248  -2924030.65044  21160757.1334                   21160756.9454
   5883435.44915                  24520363.859
 11  9 25 18 26 30.0000000  0  8G08G07G17G04G24G26G28G20
   9053209.61747   7056285.18843  21798635.5704                   21798638.3164
  20593122.672 6                  24359927.672
  -7626681.05548  -5934150.51944  20776066.0314                   20776066.1644
 -10588357.44548  -8234587.69743  21995861.7194                   21995864.6804
   9747496.61347   7605859.76953  23955868.8834                   23955869.6644
   7269193.78547   5672235.57052  24255562.1174                   24255569.4574
  -3783971.28148  -2948341.98244  21154820.4304                   21154819.2074
   5818623.086 5                  24508029.633
 11  9 25 18 27  0.0000000  0  8G08G07G17G04G24G26G28G20
   9124605.01247   7111917.86343  21812221.7584                   21812223.8984
  20682757.715 5                  24376984.688
  -7647160.41048  -5950108.48944  20772169.1644                   20772169.0234
 -10713024.90648  -8331731.11143  21972138.4304                   21972141.2114
   9814410.62947   7658000.56453  23968602.4534                   23968612.7344
   7318438.64147   5710608.08153  24264933.4064                   24264940.4844
  -3814989.29748  -2972511.80644  21148917.8524                   21148916.9104
   5754096.355 5                  24495750.320
 11  9 25 18 27 30.0000000  0  8G08G07G17G04G24G26G28G20
   9196366.39547   7167835.64843  21825877.8834                   21825879.8484
  20772453.797 5                  24394052.508
  -7667400.72748  -5965880.13844  20768317.4384                   20768317.1414
 -10837413.59447  -8428657.26643  21948467.7194                   21948470.6334
   9881597.35947   7710353.88853  23981388.1414                   23981391.9654
   7367830.27047   5749094.93253  24274332.1884                   24274338.6524
  -3845826.98448  -2996541.18044  21143049.3134                   21143049.4344
   5689855.070 5                  24483525.852
 11  9 25 18 28  0.0000000  0  8G08G07G17G04G24G26G28G20
   9268489.17247   7224035.13143  21839602.2974                   21839604.4224
  20862206.707 6                  24411133.828
  -7687404.98048  -5981467.86244  20764510.7814                   20764510.7734
 -10961522.52048  -8525365.41143  21924851.1954                   21924852.8714
   9949052.39547   7762916.00353  23994224.6884                   23994229.0274
   7417363.54347   5787691.80253  24283758.9614                   24283766.3674
  -3876484.58648  -3020430.28444  21137215.3594                   21137214.5634
   5625900.461 5                  24471354.859
 11  9 25 18 28 30.0000000  0  8G08G07G17G04G24G26G28G20
   9340972.08647   7280515.02343  21853394.9064                   21853398.1954
  20952014.953 6                  24428223.766
  -7707173.04348  -5996871.56044  20760748.9454                   20760748.9804
 -11085347.28548  -8621852.23543  21901287.8134                   21901289.9304
  10016774.47746   7815686.44152  24007110.6334                   24007115.0904
   7467036.40247   5826398.10542  24293210.4064                   24293216.9734
  -3906959.35548  -3044176.87744  21131416.0474                   21131415.8054
   5562235.426 5                  24459239.672
 11  9 25 18 29  0.0000000  0  8G08G07G17G04G24G26G28G20
   9413810.87147   7337272.41743  21867255.8134                   21867259.3834
  21041874.684 5                  24445324.031
  -7726707.90248  -6012093.54544  20757031.3754                   20757031.4804
 -11208886.61748  -8718116.50643  21877778.5944                   21877781.2274
  10084759.609 6                  24020047.742
   7516844.03547   5865208.80253  24302688.7194                   24302690.9844
  -3937251.48848  -3067781.09544  21125651.9144                   21125651.4454
   5498861.44115                  24447180.016
 11  9 25 18 29 30.0000000  0  8G08G07G17G04G24G26G28G20
   9487000.47347   7394303.09443  21881183.4924                   21881185.8634
  21131780.551 5                  24462432.508
  -7746012.91048  -6027136.43644  20753357.5944                   20753357.0234
 -11332140.30948  -8814158.32843  21854324.0784                   21854326.9804
  10153002.773 6                  24033033.953
   7566781.05547   5904120.90843  24312192.0164                   24312196.7894
  -3967361.77048  -3091243.69444  21119922.2974                   21119921.7854
   5435779.06615                  24435178.039
 11  9 25 18 30  0.0000000  0  8G08G07G17G04G24G26G28G20
   9560540.23847   7451606.68643  21895178.1024                   21895180.7304
  21221732.645 5                  24479550.805
  -7765087.34048  -6041999.57744  20749727.7424                   20749727.9694
 -11455103.07448  -8909973.30143  21830925.3984                   21830927.9534
  10221503.512 6                  24046069.742
   7616846.39847   5943132.58753  24321718.6334                   24321721.6294
  -3997286.55948  -3114561.69844  21114227.7504                   21114226.6764
   5372992.324 5                  24423228.094
 11  9 25 18 30 30.0000000  0  8G08G07G17G04G24G26G28G20
   9634429.18047   7509182.37343  21909238.8754                   21909242.1724
  21311730.387 5                  24496675.289
  -7783930.44148  -6056682.56344  20746142.2274                   20746142.3484
 -11577770.12948  -9005557.99043  21807582.2974                   21807584.9844
  10290261.12547   8028789.40953  24059154.6564                   24059155.6414
   7667038.80147   5982243.54153  24331270.1954                   24331274.7974
  -4027022.59848  -3137732.62144  21108568.9924                   21108568.0474
   5310506.08615                  24411338.570
 11  9 25 18 31  0.0000000  0  8G08G07G17G04G24G26G28G20
   9708660.91047   7567025.08443  21923364.5944                   21923367.8594
  21401767.129 5                  24513811.555
  -7802547.36748  -6071189.23144  20742599.5784                   20742599.4884
 -11700142.85247  -9100913.19543  21784295.4614                   21784297.8714
  10359268.77347   8082561.80453  24072286.9774                   24072292.4064
   7717350.88747   6021447.19653  24340844.5554                   24340850.8674
  -4056572.24248  -3160758.39144  21102945.8984                   21102945.0984
   5248318.99615                  24399504.234
 11  9 25 18 31 30.0000000  0  8G08G07G17G04G24G26G28G20
   9783235.22747   7625134.80143  21937555.6564                   21937559.0824
  21491842.906 5                  24530952.672
  -7820936.83248  -6085518.68844  20739100.3984                   20739100.0274
 -11822215.87948  -9196035.04143  21761066.1644                   21761068.2384
  10428526.50047   8136528.66354  24085465.8054                   24085465.3674
   7767782.33247   6060740.52354  24350441.7344                   24350437.9734
  -4085931.55148  -3183635.70344  21097358.8754                   21097358.6844
   5186435.242 5                  24387728.258
 11  9 25 18 32  0.0000000  0  8G08G07G17G04G24G26G28G20
   9858149.47747   7683509.42343  21951811.8524                   21951814.8954
  21581955.512 5                  24548100.031
  -7839099.69148  -6099671.57944  20735644.4774                   20735644.1094
 -11943985.84448  -9290920.56643  21737893.9384                   21737895.8364
  10498032.227 6                  24098692.063
   7818330.219 7                  24360061.094
  -4115098.45348  -3206363.19944  21091809.1644                   21091808.3674
   5124858.535 5                  24376010.586
 11  9 25 18 32 30.0000000  0  7G08G17G04G24G26G28G20
   9933392.01647   7742139.75343  21966130.2114                   21966133.1914
  -7857045.62948  -6113655.43644  20732229.0944                   20732229.2384
 -12065458.84048  -9385574.76343  21714778.2274                   21714779.7774
  10567774.363 6                  24111962.813
   7868982.11747   6139595.78153  24369699.4144                   24369673.0634
  -4144080.54348  -3228946.66044  21086293.6804                   21086292.6454
                                  24364348.039
 11  9 25 18 33  0.0000000  0  7G08G17G04G24G26G28G20
  10008968.09447   7801030.08243  21980511.3364                   21980515.2274
  -7874768.70348  -6127465.63444  20728856.2814                   20728856.5044
 -12186624.18748  -9479989.30643  21691721.1564                   21691722.8364
  10637758.18846   8299565.76553  24125281.4614                   24125285.2304
   7919743.184 6                  24379359.094
  -4172868.36748  -3251378.75244  21080816.0554                   21080815.5394
                                  24352746.789
 11  9 25 18 33 30.0000000  0  7G08G17G04G24G26G28G20
  10084885.68047   7860186.48143  21994958.1254                   21994961.7854
  -7892258.80148  -6141094.26444  20725528.4384                   20725528.7704
 -12307468.11348  -9574153.29443  21668725.0784                   21668727.7854
  10707992.059 6                  24138646.539
   7970620.844 6                  24389040.781
  -4201449.93048  -3273650.09044  21075376.6954                   21075376.7734
                                  24341206.977
 11  9 25 18 34  0.0000000  0  7G08G17G04G24G26G28G20
  10161141.42647   7919606.40643  22009469.5004                   22009473.2974
  -7909517.96948  -6154542.96044  20722243.9304                   20722244.2274
 -12427988.57047  -9668065.27243  21645790.2274                   21645793.0164
  10778472.426 6                  24152058.703
   8021611.230 6                  24398744.086
  -4229824.13748  -3295759.92844  21069977.1954                   21069977.0394
   4881658.00415                  24329730.094
 11  9 25 18 34 30.0000000  0  7G08G17G04G24G26G28G20
  10237729.50447   7979285.30943  22024044.0634                   22024047.0514
  -7926550.55148  -6167815.11844  20719002.9384                   20719002.9064
 -12548185.78148  -9761725.24243  21622917.8984                   21622920.4574
  10849193.758 6                  24165516.469
   8072708.24647   6298342.03053  24408467.7424                   24408476.8404
  -4257992.37547  -3317709.20644  21064617.2344                   21064616.4024
                                  24318314.266
 11  9 25 18 35  0.0000000  0  6G08G17G04G24G26G28
  10314640.23047   8039215.47343  22038679.8054                   22038682.7274
  -7943363.99648  -6180916.50644  20715803.3524                   20715802.9614
 -12668063.44147  -9855136.41743  21600105.7734                   21600108.7704
  10920146.973 6                  24179018.430
   8123902.297 6                  24418210.070
  -4285959.70748  -3339501.94344  21059295.2194                   21059294.6604
 11  9 25 18 35 30.0000000  0  7G08G17G04G24G26G28G20
  10391869.32047   8099393.82043  22053375.9534                   22053380.1174
  -7959961.18748  -6193849.37944  20712644.8674                   20712644.9454
 -12787620.39147  -9948297.59943  21577355.0314                   21577358.2194
  10991327.918 6                  24192564.344
   8175188.141 6                  24427968.664
  -4313726.28548  -3361138.31944  21054011.3914                   21054010.6024
   6231624.35215                  24295665.063
 11  9 25 18 36  0.0000000  0  7G08G17G04G24G26G28G20
  10469412.71947   8159817.14443  22068132.4534                   22068135.6604
  -7976344.92648  -6206615.93644  20709527.5474                   20709527.4614
 -12906855.42647 -10041207.86843  21554665.0634                   21554668.2504
  11062732.652 6                  24206151.469
   8226561.723 6                  24437745.586
  -4341292.16847  -3382618.20844  21048765.9144                   21048765.3364
   6172598.80115                  24284433.188
 11  9 25 18 36 30.0000000  0  7G08G17G04G24G26G28G20
  10547264.12547   8220480.43443  22082946.9774                   22082950.8914
  -7992519.55548  -6219219.56644  20706449.3444                   20706449.1334
 -13025768.81247 -10133867.56044  21532036.5084                   21532039.1334
  11134355.086 6                  24219780.484
   8278016.371 6                  24447537.766
  -4368659.25848  -3403943.23744  21043558.1174                   21043557.8014
   6113895.293 5                  24273262.719
 11  9 25 18 37  0.0000000  0  7G08G17G04G24G26G28G20
  10625421.34447   8281382.05043  22097819.5314                   22097822.8834
  -8008486.11348  -6231661.00044  20703410.8834                   20703411.1294
 -13144357.74647 -10226274.47043  21509469.7584                   21509472.6294
  11206192.961 6                  24233451.680
   8329549.19946   6498476.60853  24457344.3054                   24457350.8794
  -4395825.69947  -3425111.90344  21038388.3674                   21038387.3914
   6055516.371 5                  24262154.359
 11  9 25 18 37 30.0000000  0  7G08G17G04G24G26G28G20
  10703878.94147   8342517.68043  22112749.9144                   22112754.0164
  -8024247.89548  -6243942.91944  20700411.6414                   20700411.4064
 -13262621.28147 -10318427.82443  21486964.6174                   21486968.1214
  11278241.480 6                  24247162.102
   8381155.00046   6538688.64552  24467164.0864                   24467172.5904
  -4422792.10947  -3446124.70144  21033257.3754                   21033256.0824
   5997462.188 5                  24251106.469
 11  9 25 18 38  0.0000000  0  7G08G17G04G24G26G28G20
  10782634.75047   8403885.60343  22127736.8754                   22127740.9494
  -8039805.00848  -6256065.33744  20697451.1334                   20697450.4654
 -13380556.37147 -10410325.11043  21464522.2974                   21464524.3914
  11350498.590 6                  24260911.680
   8432831.266 6                  24476997.969
  -4449556.10947  -3466979.76944  21028163.9844                   21028163.2464
                                  24240120.109
 11  9 25 18 38 30.0000000  0  7G08G17G04G24G26G28G20
  10861683.59847   8465481.99243  22142779.0164                   22142783.4304
  -8055161.97348  -6268031.78344  20694528.6884                   20694528.4654
 -13498162.35247 -10501966.06043  21442142.4534                   21442144.9774
  11422959.070 6                  24274700.984
   8484572.29746   6619273.19552  24486844.1334                   24486849.7424
  -4476118.87547  -3487678.01844  21023109.2034                   21023108.5744
                                  24229197.305
 11  9 25 18 39  0.0000000  0  6G08G17G04G24G26G28
  10941022.19947   8527303.96643  22157877.0704                   22157881.0044
  -8070320.25848  -6279843.46244  20691644.1484                   20691643.9304
 -13615437.46147 -10593349.16843  21419826.0084                   21419827.8204
  11495620.04346   8968026.92553  24288527.7114                   24288527.2584
   8536374.28946   6659638.06553  24496700.8914                   24496707.4574
  -4502479.53148  -3508218.77144  21018092.5864                   21018092.2034
 11  9 25 18 39 30.0000000  0  7G08G17G04G24G26G28G20
  11020650.92647   8589352.11443  22173030.5554                   22173033.5864
  -8085277.44148  -6291498.41944  20688798.0474                   20688798.1804
 -13732375.30547 -10684469.45543  21397573.0784                   21397575.4304
  11568482.363 6                  24302392.945
   8588237.570 6                  24506571.445
  -4528633.20347  -3528598.29444  21013115.9144                   21013115.1994
                                  24207543.414
 11  9 25 18 40  0.0000000  0  7G08G17G04G24G26G28G20
  11100566.29347   8651623.77543  22188237.6024                   22188241.4184
  -8100035.28948  -6302998.04344  20685989.7504                   20685989.6804
 -13848973.68047 -10775325.35343  21375385.1954                   21375387.8754
  11641543.215 6                  24316295.773
   8640158.980 6                  24516452.117
  -4554578.55548  -3548815.44244  21008178.7974                   21008178.7774
   6166889.48815                  24196810.672
 11  9 25 18 40 30.0000000  0  7G08G09G17G04G24G26G28
  11180762.23847   8714113.94143  22203499.0164                   22203501.7974
   6083444.41816                  24069713.813
  -8114598.13748  -6314345.73444  20683218.1724                   20683218.4694
 -13965233.25047 -10865917.10243  21353261.9144                   21353263.7774
  11714796.035 6                  24330235.375
   8692131.422 6                  24526341.625
  -4580317.79347  -3568872.01044  21003280.7814                   21003279.7034
 11  9 25 18 41  0.0000000  0  8G08G09G17G04G24G26G28G20
  11261226.23447   8776812.96543  22218811.1254                   22218814.9574
   5955608.883 6                  24045388.188
  -8128976.94948  -6325550.00644  20680482.3444                   20680482.2114
 -14081161.02047 -10956250.36244  21331201.5164                   21331204.1134
  11788228.875 6                  24344209.477
   8744142.527 6                  24536239.109
  -4605859.05548  -3588774.31544  20998420.1564                   20998419.9304
   6055087.88715                  24175535.617
 11  9 25 18 41 30.0000000  0  7G08G09G17G04G24G26G28
  11341955.64547   8839718.72143  22234173.5394                   22234177.6254
   5828033.840 6                  24021111.078
  -8143172.39148  -6336611.38844  20677781.0474                   20677781.4844
 -14196753.65648 -11046322.44943  21309204.9614                   21309205.9494
  11861839.602 6                  24358217.359
   8796189.738 6                  24546144.766
  -4631200.18047  -3608520.67444  20993598.1414                   20993597.6564
 11  9 25 18 42  0.0000000  0  7G08G09G17G04G24G26G28
  11422952.39147   8902832.85943  22249586.2504                   22249590.6484
   5700726.645 6                  23996885.633
  -8157181.56248  -6347527.65244  20675115.1954                   20675115.8324
 -14312004.23847 -11136128.00643  21287273.3134                   21287275.6804
  11935629.926 6                  24372260.164
   8848273.99246   6902675.50053  24556055.5004                   24556065.5944
  -4656335.23448  -3628106.47144  20988815.3284                   20988815.1884
 11  9 25 18 42 30.0000000  0  7G08G09G17G04G24G26G28
  11504217.27347   8966155.98843  22265050.5634                   22265054.7304
   5573694.625 6                  23972711.992
  -8171001.57048  -6358296.49244  20672485.3054                   20672485.6094
 -14426905.67248 -11225661.50344  21265408.1724                   21265411.5864
  12009601.695 6                  24386335.758
   8900396.402 6                  24565974.102
  -4681258.73847  -3647527.38644  20984072.2974                   20984071.5394
 11  9 25 18 43  0.0000000  0  7G08G09G17G04G24G26G28
  11585749.43847   9029687.29743  22280566.2424                   22280570.4224
   5446942.844 6                  23948591.586
  -8184631.24648  -6368917.06444  20669891.8674                   20669891.6564
 -14541453.57447 -11314919.56644  21243610.5944                   21243612.6884
  12083754.129 6                  24400447.031
   8952555.910 6                  24575899.711
  -4705967.09447  -3666780.67644  20979370.9144                   20979370.5164
 11  9 25 18 43 30.0000000  0  8G08G09G17G04G24G26G28G20
  11667548.13347   9093426.36943  22296132.1024                   22296136.7854
   5320476.807 6                  23924525.945
  -8198069.54748  -6379388.46444  20667334.4774                   20667334.7034
 -14655643.00048 -11403898.23944  21221881.2194                   21221883.4574
  12158086.652 6                  24414591.758
   9004751.555 6                  24585833.438
  -4730456.51248  -3685863.34944  20974710.7734                   20974709.8914
                                  24123476.023
 11  9 25 18 44  0.0000000  0  8G08G09G17G04G24G26G28G20
  11749612.32047   9157372.22943  22311748.7114                   22311753.2544
   5194301.613 6                  23900515.203
  -8211315.89848  -6389710.30444  20664813.5864                   20664813.5434
 -14769469.47748 -11492594.06143  21200220.4224                   21200222.8954
  12232598.707 6                  24428771.430
   9056982.203 6                  24595772.242
  -4754724.01648  -3704773.09844  20970092.3674                   20970091.9734
   6204470.71515                  24113264.344
 11  9 25 18 44 30.0000000  0  8G08G09G17G04G24G26G28G20
  11831935.88347   9221520.25543  22327413.6724                   22327419.1134
   5068417.328 6                  23876560.750
  -8224374.91848  -6399886.15944  20662328.7344                   20662328.0084
 -14882933.62147 -11581007.64543  21178628.5704                   21178630.5164
  12307284.324 6                  24442983.273
   9109241.578 6                  24605716.789
  -4778771.24248  -3723511.27044  20965516.8594                   20965516.5554
   6151164.96915                  24103121.031
 11  9 25 18 45  0.0000000  0  8G08G09G17G04G24G26G28G20
  13489930.15647  10513463.58543  22642920.1414                   22642923.9804
   6518247.648 6                  24152453.516
  -6661830.28148  -5182318.92244  20959671.1724                   20959671.0664
 -13420612.09047 -10441536.24943  21456898.9454                   21456901.8594
  13957555.441 6                  24757019.555
  10736941.719 6                  24915460.141
  -3227178.77348  -2514478.18544  21260774.7974                   21260774.0164
   7673636.105 5                  24392837.664
 11  9 25 18 45 30.0000000  0  8G08G09G17G04G24G26G28G20
  13572761.27347  10578007.20643  22658682.5084                   22658687.2734
   6392951.223 6                  24128610.141
  -6674519.85948  -5192206.90544  20957256.4144                   20957256.3014
 -13533346.22747 -10529381.00344  21435446.4844                   21435448.7234
  14032578.238 6                  24771296.391
  10789246.723 6                  24925412.086
  -3250783.12147  -2532871.18544  21256282.9454                   21256281.9064
                                  24382829.078
 11  9 25 18 46  0.0000000  0  7G08G09G17G04G26G28G20
  13655841.77747  10642744.96443  22674492.1024                   22674496.5514
   6267953.496 6                  24104824.820
  -6687027.03548  -5201952.80144  20954876.3134                   20954876.2774
 -13645711.30547 -10616938.12643  21414064.1174                   21414065.8794
  10841569.770 6                  24935369.227
  -3274164.23047  -2551090.23544  21251833.7114                   21251833.4414
                                  24372889.789
 11  9 25 18 46 30.0000000  0  7G08G09G17G04G26G28G20
  13739175.17647  10707679.98043  22690350.5784                   22690354.2344
   6143264.12947   4805388.37653  24081096.6564                   24081096.4574
  -6699346.35548  -5211552.26344  20952532.0004                   20952532.1414
 -13757698.50447 -10704200.80644  21392754.1094                   21392755.7974
  10893914.523 6                  24945329.648
  -3297313.49248  -2569128.64644  21247428.4534                   21247427.7774
   7516957.74215                  24363022.867
 11  9 25 18 47  0.0000000  0  7G08G09G17G04G26G28G20
  13822768.94547  10772817.66243  22706257.7814                   22706262.6054
   6018896.74246   4708479.02853  24057429.7274                   24057433.3484
  -6711468.37548  -5220997.98544  20950225.5474                   20950225.3674
 -13869294.53547 -10791158.70743  21371517.9454                   21371520.0004
  10946288.262 6                  24955296.289
  -3320219.24248  -2586977.33144  21243069.7584                   21243069.4144
                                  24353225.094
 11  9 25 18 47 30.0000000  0  7G08G09G17G04G26G28G20
  13906623.66047  10838158.80543  22722215.3914                   22722219.5084
   5894858.145 6                  24033826.633
  -6723390.69548  -5230288.13044  20947956.5234                   20947956.9144
 -13980493.46947 -10877807.07643  21350357.4224                   21350358.9844
  10998691.301 6                  24965268.227
  -3342876.55147  -2604632.40244  21238758.5634                   21238758.1374
   7414391.488 5                  24343504.859
 11  9 25 18 48  0.0000000  0  7G08G09G17G04G26G28G20
  13990736.22747  10903700.82643  22738221.6484                   22738226.4614
   5771151.12947   4515430.55552  24010286.3674                   24010288.1484
  -6735114.43748  -5239423.52144  20945725.7974                   20945725.5824
 -14091292.77047 -10964144.13743  21329272.4844                   21329274.4654
  11051120.641 6                  24975245.813
  -3365283.93448  -2622092.70444  21234494.0164                   21234493.5004
   7363692.113 5                  24333856.969
 11  9 25 18 48 30.0000000  0  8G08G09G02G17G04G26G28G20
  14075095.99647  10969435.45843  22754274.2274                   22754280.0864
   5647770.87946   4419290.20352  23986807.4774                   23986808.9534
   7657349.59816                  24830147.398
  -6746648.81648  -5248411.40444  20943530.5704                   20943529.9694
 -14201697.66848 -11050173.83944  21308263.0394                   21308265.0124
  11103565.598 6                  24985225.414
  -3387447.61748  -2639363.14444  21230276.7274                   21230276.6804
   7313376.75815                  24324281.656
 11  9 25 18 49  0.0000000  0  8G08G09G02G17G04G26G28G20
  14159687.68847  11035350.86753  22770372.2974                   22770377.4104
   5524708.629 6                  23963388.727
   7528279.723 6                  24805585.922
  -6758007.22348  -5257262.08444  20941369.4064                   20941370.0784
 -14311718.05948 -11135903.94843  21287327.2734                   21287328.2464
  11156010.621 6                  24995205.891
  -3409378.78948  -2656452.40344  21226103.6174                   21226102.4344
   7263435.426 6                  24314777.719
 11  9 25 18 49 30.0000000  0  8G08G09G02G17G04G26G28G20
  14244503.92647  11101441.07753  22786512.3134                   22786517.9104
   5401962.742 6                  23940030.945
   7399235.727 6                  24781029.367
  -6769195.14848  -5265979.99644  20939240.6024                   20939239.9264
 -14421355.52348 -11221335.64344  21266463.0164                   21266466.0594
  11208448.35546   8741754.71152  25005185.2814                   25005193.2544
  -3431080.35548  -2673362.71644  21221973.8054                   21221972.5274
   7213865.211 6                  24305345.594
 11  9 25 18 50  0.0000000  0  8G08G09G02G17G04G26G28G20
  14329546.33647  11167707.63343  22802695.9144                   22802700.5944
   5279540.813 6                  23916735.250
   7270224.152 6                  24756478.406
  -6780209.20748  -5274562.36744  20937144.5864                   20937143.9384
 -14530603.31648 -11306463.72644  21245674.2814                   21245676.4654
  11260880.13346   8782610.50842  25015162.6644                   25015170.5864
  -3452546.10948  -2690089.31144  21217889.1254                   21217888.1524
   7164672.926 5                  24295985.922
 11  9 25 18 50 30.0000000  0  8G08G09G02G17G04G26G28G20
  14414812.05547  11234148.30943  22818921.6174                   22818924.7704
   5157446.559 6                  23893502.359
   7141247.609 6                  24731935.672
  -6791050.03948  -5283009.74644  20935081.6644                   20935081.1884
 -14639458.37548 -11391285.77743  21224959.7034                   21224961.7974
  11313303.59447   8823459.60552  25025139.2584                   25025145.7664
  -3473774.25848  -2706630.74944  21213849.2344                   21213848.7034
   7115861.320 5                  24286695.813
 11  9 25 18 51  0.0000000  0  8G08G09G02G17G04G26G28G20
  14500300.92247  11300762.87943  22835189.2894                   22835193.9184
   5035685.676 6                  23870331.242
   7012311.078 6                  24707398.992
  -6801716.13348  -5291321.02144  20933051.7504                   20933052.3674
 -14747915.56248 -11475797.76744  21204321.3524                   21204322.9774
  11365718.57446   8864302.13653  25035112.6954                   25035120.6094
  -3494760.50848  -2722983.71044  21209855.9064                   21209855.3284
   7067434.570 5                  24277480.992
 11  9 25 18 51 30.0000000  0  8G08G09G02G17G04G26G28G20
  14586013.80547  11367551.81243  22851500.3594                   22851504.2114
   4914264.918 6                  23847224.930
   6883420.160 6                  24682872.094
  -6812204.94548  -5299494.10344  20931056.1414                   20931055.4414
 -14855968.67648 -11559994.94344  21183759.1334                   21183760.9614
  11418125.60946   8905139.15953  25045085.7814                   25045096.0274
  -3515499.70748  -2739144.14744  21205909.4064                   21205908.8284
   7019398.949 5                  24268340.305
 11  9 25 18 52  0.0000000  0  8G08G09G02G17G04G26G28G20
  14671949.25047  11434514.15743  22867853.2274                   22867857.6604
   4793189.059 6                  23824185.578
   6754578.629 6                  24658354.117
  -6822516.14148  -5307528.81644  20929093.6334                   20929093.5864
 -14963613.56248 -11643873.97444  21163275.2344                   21163277.4224
  11470523.355 6                  25055055.914
  -3535988.94948  -2755109.77944  21202010.5394                   21202009.6884
   6971757.520 6                  24259274.930
 11  9 25 18 52 30.0000000  0  8G08G09G02G17G04G26G28G20
  14758102.74247  11501646.61643  22884247.4774                   22884252.5164
   4672459.50846   3659296.73853  23801211.2894                   23801210.5554
   6625787.051 6                  24633845.992
  -6832652.17648  -5315427.03444  20927164.8284                   20927164.9734
 -15070849.41048 -11727434.31644  21142868.8674                   21142870.3484
  11522907.047 6                  25065024.570
  -3556228.19148  -2770880.69144  21198158.8204                   21198158.2034
   6924510.645 5                  24250281.820
 11  9 25 18 53  0.0000000  0  8G08G09G02G17G04G26G28G20
  14844475.59047  11568949.99953  22900683.7274                   22900680.8554
   4552084.29747   3565497.98253  23778304.6414                   23778305.8714
   6497051.90646   5081221.24053  24609348.1094                   24609356.3674
  -6842610.00448  -5323186.39444  20925269.9694                   20925269.4844
 -15177669.41448 -11810670.61043  21122541.3524                   21122543.2074
  11575278.539 6                  25074991.820
  -3576211.56648  -2786452.15344  21194356.4534                   21194355.6684
   6877665.156 5                  24241367.969
 11  9 25 18 53 30.0000000  0  8G08G09G02G17G04G26G28G20
  14931064.10947  11636421.20854  22917161.6954                   22917169.4884
   4432065.70747   3471977.49443  23755465.6254                   23755468.7664
   6368374.76646   4980953.73943  24584862.1414                   24584867.7664
  -6852391.16048  -5330808.09444  20923409.0634                   20923408.7424
 -15284071.37148 -11893581.21744  21102293.4144                   21102295.2894
  11627634.137 6                  25084954.773
  -3595938.07448  -2801823.47744  21190602.5084                   21190601.3364
   6831222.203 5                  24232530.508
 11  9 25 18 54  0.0000000  0  8G08G09G02G17G04G26G28G20
  15017864.879 7                  22933679.336
   4312405.805 6                  23732695.117
   6239756.930 6                  24560386.180
  -6861997.60948  -5338293.63644  20921580.5864                   20921580.4884
 -15390053.78548 -11976164.80644  21082126.0084                   21082128.4774
  11679970.15646   9109173.95752  25094914.5944                   25094916.8954
  -3615407.23848  -2816994.31544  21186897.2814                   21186897.8244
   6785182.664 6                  24223769.836
 11  9 25 18 54 30.0000000  0  8G08G09G02G17G04G26G28G20
  15104875.72747  11771858.20353  22950237.4534                   22950240.7584
   4193108.44146   3285777.24652  23709993.8054                   23709997.2114
   6111201.37546   4780559.16253  24535923.1564                   24535926.7234
  -6871429.21148  -5345642.93744  20919785.9844                   20919786.0474
 -15495613.64548 -12058419.16744  21062038.7034                   21062040.4384
  11732284.410 6                  25104868.539
  -3634616.75848  -2831962.79644  21183242.1484                   21183241.5314
   6739549.461 5                  24215084.773
 11  9 25 18 55  0.0000000  0  8G08G09G02G17G04G26G28G20
  15192091.65247  11839818.50043  22966834.7814                   22966839.7074
   4074175.03546   3193101.86742  23687361.0944                   23687364.0234
   5982708.16446   4680435.10543  24511471.1564                   24511476.4574
  -6880689.73048  -5352858.94144  20918023.4384                   20918024.1994
 -15600750.62548 -12140344.04644  21042031.7274                   21042033.8014
  11784571.730 6                  25114819.773
  -3653567.14848  -2846729.30744  21179636.1484                   21179635.0514
   6694322.332 6                  24206479.109
 11  9 25 18 55 30.0000000  0  8G08G09G02G17G04G26G28G20
  15279512.33647  11907938.20742  22983470.0944                   22983474.8204
   3955611.203 6                  23664798.344
   5854282.500 6                  24487032.719
  -6889777.05948  -5359940.01844  20916294.7814                   20916293.8554
 -15705459.10548 -12221934.93844  21022106.3284                   21022107.7274
  11836832.125 6                  25124764.008
  -3672254.17248  -2861290.66144  21176080.0784                   21176079.9304
   6649506.098 5                  24197950.523
 11  9 25 18 56  0.0000000  0  8G08G09G02G17G04G26G28G20
  15367133.21547  11976213.94243  23000144.0704                   23000149.0434
   3837418.34046   3008616.31352  23642307.3674                   23642310.4144
   5725924.383 6                  24462606.219
  -6898694.12148  -5366888.36444  20914597.5944                   20914597.6484
 -15809738.86348 -12303191.85844  21002262.4454                   21002263.9964
  11889060.875 6                  25134702.969
  -3690678.19948  -2875647.08544  21172574.5944                   21172573.6764
   6605100.621 5                  24189500.484
 11  9 25 18 56 30.0000000  0  8G08G09G02G17G04G26G28G20
  15454947.56347  12044640.43442  23016855.0314                   23016860.7464
   3719595.797 6                  23619886.359
   5597632.457 6                  24438193.094
  -6907445.61748  -5373707.73044  20912932.4064                   20912932.0864
 -15913590.85248 -12384115.42544  20982500.0314                   20982501.7704
  11941251.492 5                  25144634.273
  -3708841.57848  -2889800.37544  21169117.7504                   21169117.3204
   6561104.195 5                  24181127.328
 11  9 25 18 57  0.0000000  0  7G08G09G02G17G04G28G20
  15542951.63747  12113214.68042  23033602.1724                   23033606.6564
   3602145.930 6                  23597535.891
   5469408.176 6                  24413792.047
  -6916033.33248  -5380399.47344  20911297.9384                   20911297.7544
 -16017013.59848 -12464704.51644  20962819.3364                   20962821.0004
  -3726743.31648  -2903749.79844  21165711.2424                   21165710.2624
   6517518.33616                  24172834.266
 11  9 25 18 57 30.0000000  0  7G08G09G02G17G04G28G20
  15631145.60547  12181937.06143  23050384.5704                   23050390.2074
   3485074.957 6                  23575257.781
   5341256.652 6                  24389405.000
  -6924455.38348  -5386962.13044  20909695.3594                   20909695.9534
 -16120001.82848 -12544954.96544  20943221.3834                   20943223.0824
  -3744378.83648  -2917491.79044  21162355.4774                   21162354.8754
   6474347.164 6                  24164618.742
 11  9 25 18 58  0.0000000  0  7G08G09G02G17G04G28G20
  15719534.30947  12250811.05942  23067204.4774                   23067210.9104
   3368393.930 6                  23553055.445
   5213187.949 6                  24365035.195
  -6932704.70348  -5393390.17644  20908125.8984                   20908126.3094
 -16222544.94148 -12624858.63544  20923707.9144                   20923710.0904
  -3761738.54748  -2931018.86344  21159051.9304                   21159051.2194
   6431600.969 6                  24156485.133
 11  9 25 18 58 30.0000000  0  7G08G09G02G17G04G28G20
  15808114.75847  12319834.43853  23084061.1334                   23084071.3164
   3252105.402 6                  23530926.000
   5085204.086 6                  24340679.734
  -6940782.36748  -5399684.49144  20906588.1094                   20906588.4734
 -16324641.16448 -12704414.06944  20904279.2894                   20904281.4614
  -3778821.62948  -2944330.35843  21155800.9694                   21155800.7504
   6389281.016 6                  24148431.922
 11  9 25 18 59  0.0000000  0  7G08G09G02G17G04G28G20
  15896880.17247  12389001.94753  23100952.4844                   23100957.8674
   3136208.719 6                  23508871.930
   4957303.53946   3881420.36752  24316341.2274                   24316345.8164
  -6948693.31648  -5405848.85944  20905083.2894                   20905082.9574
 -16426291.49248 -12783622.03144  20884935.7194                   20884938.1094
  -3795630.21548  -2957427.98044  21152602.5314                   21152601.8674
   6347385.398 6                  24140459.711
 11  9 25 18 59 30.0000000  0  7G08G09G02G17G04G28G20
  15985821.574 7                  23117878.117
   3020701.08646   2372214.81652  23486891.0314                   23486894.3134
   4829481.94947   3781819.62753  24292018.0704                   24292018.7384
  -6956444.91448  -5411889.11144  20903608.1254                   20903607.8834
 -16527499.95348 -12862485.68644  20865676.4774                   20865677.8984
  -3812169.14148  -2970315.49944  21149455.4064                   21149454.8364
   6305909.688 5                  24132566.156
 11  9 25 19  0  0.0000000  0  7G08G09G02G17G04G28G20
  16074932.47347  12527743.41153  23134835.5004                   23134842.4414
   2905582.15646   2282511.84842  23464984.6414                   23464988.6334
   4701738.35546   3682278.93852  24267708.8594                   24267711.0234
  -6964041.59048  -5417808.58244  20902162.6724                   20902162.8244
 -16628267.77748 -12941006.06344  20846500.9844                   20846502.7464
  -3828440.32848  -2982994.35444  21146358.9534                   21146358.9964
   6264852.352 6                  24124754.039
 11  9 25 19  0 30.0000000  0  7G08G09G02G17G04G28G20
  16164207.383 7                  23151824.172
   2790852.49247   2193112.21953  23443152.7974                   23443155.8794
   4574072.496 6                  24243414.828
  -6971486.56648  -5423609.88044  20900745.6564                   20900745.2154
 -16728595.07848 -13019183.01643  20827409.2894                   20827411.0434
  -3844444.68448  -2995465.28744  21143313.5004                   21143312.2074
   6224212.414 6                  24117020.508
 11  9 25 19  1  0.0000000  0  7G08G09G02G17G04G28G20
  16253641.340 7                  23168843.242
   2676512.80547   2104016.39842  23421393.8914                   23421398.4574
   4446483.97746   3483379.88352  24219134.8834                   24219140.5824
  -6978783.17248  -5429295.57144  20899357.1644                   20899357.5664
 -16828481.78548 -13097016.75044  20808401.1884                   20808403.3634
  -3860183.17648  -3007729.11544  21140318.5084                   21140317.4844
   6183989.51215                  24109365.828
 11  9 25 19  1 30.0000000  0  7G08G09G02G17G04G28G20
  16343230.75447  12736805.91253  23185891.3914                   23185888.1414
   2562565.91847   2015226.60942  23399711.6724                   23399715.2734
   4318974.84846   3384022.42353  24194870.9924                   24194876.5554
  -6985932.57448  -5434866.55544  20897996.5314                   20897997.1254
 -16927925.96548 -13174505.67044  20789477.6954                   20789479.2114
  -3875654.48848  -3019784.70244  21137374.2274                   21137374.3094
   6144184.996 5                  24101791.781
 11  9 25 19  2  0.0000000  0  7G08G09G02G17G04G28G20
  16432972.371 7                  23202969.398
   2449014.09047   1926744.63453  23378102.3914                   23378107.9964
   4191546.637 6                  24170621.867
  -6992936.28948  -5440324.00544  20896664.2194                   20896663.9454
 -17026925.97748 -13251648.47844  20770638.7894                   20770639.8484
  -3890857.80548  -3031631.45744  21134481.5864                   21134480.3054
   6104799.973 5                  24094297.313
 11  9 25 19  2 30.0000000  0  7G08G09G02G17G04G28G20
  16522863.26647  12876779.89044  23220074.9694                   23220071.5594
   2335860.32047   1838573.07042  23356570.1884                   23356574.3444
   4064201.461 6                  24146388.289
  -6999795.46947  -5445668.87444  20895358.7344                   20895358.7304
 -17125479.45348 -13328443.33744  20751884.8134                   20751885.9224
  -3905791.61748  -3043268.25544  21131639.6484                   21131639.8714
   6065836.004 5                  24086881.664
 11  9 25 19  3  0.0000000  0  7G08G09G02G17G04G28G20
  16612904.250 7                  23237209.383
   2223111.58646   1750717.03153  23335114.1954                   23335119.9534
   3936945.625 6                  24122172.547
  -7006507.37547  -5450898.94944  20894081.6724                   20894082.0124
 -17223580.49247 -13404885.63244  20733216.5234                   20733217.9384
  -3920450.21148  -3054690.52044  21128849.9384                   21128849.6294
   6027298.715 5                  24079546.383
 11  9 25 19  3 30.0000000  0  7G08G09G02G17G04G28G20
  16703090.980 6                  23254371.828
   2110769.09047   1663177.56642  23313736.3754                   23313741.6684
   3809779.31346   2987247.51652  24097973.7584                   24097977.5044
  -7013074.37947  -5456016.11444  20892831.8914                   20892832.2814
 -17321228.44147 -13480974.86044  20714634.5704                   20714636.2194
  -3934834.57448  -3065899.13544  21126112.9144                   21126112.1374
   5989188.566 5                  24072296.086
 11  9 25 19  4  0.0000000  0  7G08G09G02G17G04G28G20
  16793421.762 6                  23271560.914
   1998837.44546   1575958.20342  23292436.1884                   23292440.4344
   3682706.00046   2888229.44542  24073791.9534                   24073796.5234
  -7019496.06248  -5461020.03444  20891610.1094                   20891610.0664
 -17418419.79748 -13556708.31244  20696139.9924                   20696141.3834
  -3948941.59448  -3076891.68244  21123428.6484                   21123428.6134
   5951507.613 5                  24065125.500
 11  9 25 19  4 30.0000000  0  7G08G09G02G17G04G28G20
  16883893.020 6                  23288777.852
   1887318.96947   1489060.85453  23271215.2424                   23271221.0824
   3555727.44146   2789285.43353  24049628.6484                   24049632.4454
  -7025773.90248  -5465911.87444  20890415.3364                   20890415.6214
 -17515152.65648 -13632084.50944  20677732.3364                   20677733.4654
  -3962770.51248  -3087667.51744  21120797.0234                   21120795.9224
   5914257.28915                  24058037.781
 11  9 25 19  5  0.0000000  0  7G08G09G02G17G04G28G20
  16974498.63747  13228701.75453  23306019.0864                   23306023.9774
   1776213.66047   1402485.21542  23250072.2894                   23250076.6454
   3428842.57846   2690414.36453  24025483.0864                   24025485.4144
  -7031912.17648  -5470694.96844  20889247.5474                   20889247.1484
 -17611428.35248 -13707104.50444  20659411.1484                   20659412.6914
  -3976322.91848  -3098227.88144  21118218.2734                   21118218.1094
   5877436.223 5                  24051031.055
 11  9 25 19  5 30.0000000  0  7G08G09G02G17G04G28G20
  17065237.62946  13299406.97853  23323287.3984                   23323293.8134
   1665526.078 6                  23229009.313
   3302055.35546   2591619.31943  24001355.7894                   24001358.8444
  -7037909.72748  -5475368.40744  20888105.9064                   20888105.2814
 -17707243.00448 -13781765.16644  20641178.3054                   20641180.1134
  -3989595.74248  -3108570.34844  21115692.3204                   21115691.7074
   5841047.289 5                  24044106.188
 11  9 25 19  6  0.0000000  0  7G08G09G02G17G04G28G20
  17156107.73046  13370214.79753  23340578.7034                   23340585.6954
   1555259.89547   1230313.34253  23208026.6334                   23208025.1484
   3175368.80146   2492902.89753  23977248.9844                   23977254.4534
  -7043767.07048  -5479932.57244  20886991.2814                   20886991.0744
 -17802593.25047 -13856063.98844  20623033.5634                   20623035.5274
  -4002586.67648  -3118693.18944  21113220.2734                   21113220.1094
   5805093.238 5                  24037264.555
 11  9 25 19  6 30.0000000  0  7G08G09G02G17G04G28G20
  17247110.34047  13441125.44254  23357897.0944                   23357902.3054
   1445422.39547   1144725.77553  23187124.4224                   23187129.1804
   3048789.18446   2394269.52742  23953161.3594                   23953166.3054
  -7049480.73047  -5484384.77644  20885904.4064                   20885904.1644
 -17897473.34847 -13929996.47644  20604978.6414                   20604979.6334
  -4015290.52748  -3128592.33744  21110802.5164                   21110802.0594
   5769579.609 5                  24030505.609
 11  9 25 19  7  0.0000000  0  7G08G09G02G17G04G28G20
  17338242.15246  13512136.69952  23375238.6884                   23375246.3284
   1336016.38347   1059474.66853  23166305.7814                   23166304.6564
   2922318.12147   2295720.92242  23929094.3134                   23929098.1564
  -7055051.85547  -5488725.92444  20884843.8134                   20884843.8244
 -17991881.34047 -14003561.12644  20587012.9844                   20587014.9414
  -4027705.63348  -3138266.45744  21108440.1954                   21108440.0744
   5734507.758 5                  24023832.508
 11  9 25 19  7 30.0000000  0  7G08G09G02G17G04G28G20
  17429499.87947  13583246.28653  23392605.6174                   23392615.6564
   1227044.08247    974561.26642  23145568.5554                   23145570.1724
   2795957.25047   2197258.16353  23905048.9454                   23905052.0204
  -7060481.90248  -5492957.14344  20883810.3914                   20883810.7584
 -18085815.38748 -14076756.45043  20569138.1094                   20569139.2624
  -4039831.33248  -3147715.15744  21106132.9224                   21106132.1054
   5699878.379 5                  24017242.539
 11  9 25 19  8  0.0000000  0  7G08G09G02G17G04G28G20
  17520881.16847  13654451.97352  23409995.1484                   23410003.4304
   1118509.30147    889988.74253  23124915.5314                   23124920.0634
   2669709.94546   2098883.83242  23881024.3444                   23881026.7894
  -7065770.91848  -5497078.46244  20882804.5864                   20882804.1054
 -18179272.88348 -14149580.41044  20551353.6564                   20551355.4804
  -4051665.30548  -3156936.41643  21103880.8674                   21103881.0204
   5665693.883 5                  24010736.531
 11  9 25 19  8 30.0000000  0  7G08G09G02G17G04G28G20
  17612386.89547  13725754.91743  23427407.8134                   23427416.2894
   1010418.02747    805761.92443  23104345.3204                   23104350.9264
   2543581.26647   2000601.97352  23857022.2894                   23857027.7814
  -7070916.59848  -5501088.08344  20881824.9844                   20881824.7544
 -18272248.36348 -14222028.77444  20533660.7114                   20533661.8914
  -4063202.77048  -3165926.75644  21101685.5084                   21101685.0514
   5631959.328 5                  24004317.453
 11  9 25 19  9  0.0000000  0  7G08G09G02G17G04G28G20
  17704013.621 6                  23444844.563
    902773.16047    721882.78942  23083861.8754                   23083867.4804
   2417573.31646   1902414.35242  23833043.4224                   23833047.3204
  -7075920.04348  -5504986.90044  20880872.9844                   20880872.8324
 -18364739.90248 -14294100.00644  20516060.3984                   20516061.6524
  -4074442.98448  -3174685.39044  21099546.2814                   21099546.4104
   5598675.418 5                  23997983.336
 11  9 25 19  9 30.0000000  0  7G08G09G02G17G04G28G20
  17795757.633 6                  23462302.602
    795576.91047    638353.34543  23063462.8834                   23063467.7034
   2291687.520 6                  23809088.266
  -7080782.58648  -5508775.90144  20879947.4534                   20879947.8324
 -18456746.20348 -14365793.19344  20498552.0394                   20498553.2194
  -4085384.99648  -3183211.59744  21097464.3984                   21097463.9574
   5565843.313 5                  23991736.203
 11  9 25 19 10  0.0000000  0  7G08G09G02G17G04G28G20
  17887614.84046  13940216.98853  23479783.1334                   23479790.0634
    688831.21947    555174.91443  23043149.5234                   23043154.0634
   2165924.68846   1706324.86953  23785155.9534                   23785161.9344
  -7085506.63748  -5512457.00244  20879049.1094                   20879049.3634
 -18548266.60248 -14437107.71444  20481136.2894                   20481137.7664
  -4096028.65648  -3191505.44644  21095439.1094                   21095438.6804
   5533462.82415                  23985574.281
 11  9 25 19 10 30.0000000  0  7G08G09G02G17G04G28G20
  17979585.49246  14011882.13053  23497284.5634                   23497290.5704
    582541.45747    472351.95843  23022923.7504                   23022927.9414
   2040289.77046   1608427.85453  23761248.1414                   23761252.4024
  -7090090.02348  -5516028.49844  20878176.1254                   20878176.4454
 -18639296.30548 -14508039.91844  20463813.8674                   20463815.1294
  -4106369.60948  -3199563.37444  21093471.2734                   21093471.2304
   5501538.547 6                  23979498.688
 11  9 25 19 11  0.0000000  0  7G08G09G02G17G04G28G20
  18071661.094 6                  23514806.508
    476705.01247    389882.00843  23002783.3834                   23002786.0784
   1914779.62946   1510627.86342  23737364.5704                   23737368.4844
  -7094538.94948  -5519495.16744  20877329.4454                   20877329.4454
 -18729838.75848 -14578592.43044  20446584.1884                   20446585.1254
  -4116412.37948  -3207388.93944  21091559.9614                   21091559.1764
   5470065.992 5                  23973510.914
 11  9 25 19 11 30.0000000  0  7G08G09G02G17G04G28G20
  18163841.09046  14155456.89852  23532347.8204                   23532354.3324
    371327.40247    307769.90043  22982730.8364                   22982733.5864
   1789398.70747   1412928.73943  23713504.8594                   23713509.1684
  -7098851.99648  -5522855.96844  20876509.1564                   20876509.1524
 -18819889.44948 -14648761.70144  20429448.4144                   20429448.8754
  -4126152.98048  -3214979.02043  21089706.2274                   21089707.0944
   5439048.965 5                  23967606.289
 11  9 25 19 12  0.0000000  0  7G08G09G02G17G04G28G20
  18256116.84446  14227359.71542  23549908.0314                   23549915.3204
    266405.98447    226012.90343  22962764.9224                   22962767.1884
   1664143.76246   1315327.64343  23689669.6644                   23689674.8594
  -7103035.62148  -5526115.91044  20875713.1254                   20875713.0124
 -18909452.14548 -14718550.78044  20412404.7034                   20412406.1764
  -4135595.41848  -3222336.80744  21087909.5084                   21087909.8094
   5408483.148 5                  23961790.820
 11  9 25 19 12 30.0000000  0  7G08G09G02G17G04G28G20
  18348488.703 6                  23567485.969
    161946.35947    144615.83243  22942887.1724                   22942889.3874
   1539019.60947   1217828.50543  23665859.2584                   23665862.7424
  -7107087.33248  -5529273.09244  20874941.7424                   20874941.8444
 -18998522.03148 -14787955.88044  20395455.4774                   20395456.4964
  -4144735.61348  -3229459.09744  21086170.3834                   21086170.5084
   5378372.957 5                  23956059.055
 11  9 25 19 13  0.0000000  0  7G08G09G02G17G04G28G20
  18440950.613 6                  23585081.336
     57947.90247     63578.12243  22923096.5474                   22923098.4344
   1414024.92646   1120430.41953  23642073.0634                   23642077.3484
  -7111011.79748  -5532331.17844  20874195.2584                   20874195.3524
 -19087100.32448 -14856977.81144  20378599.5634                   20378600.9534
  -4153575.84048  -3236347.62544  21084488.1954                   21084487.9414
   5348716.49215                  23950416.180
 11  9 25 19 13 30.0000000  0  6G08G09G02G17G04G28
  18533498.512 6                  23602693.203
    -45587.59847    -17098.73443  22903393.6414                   22903396.5704
   1289160.82047   1023133.82843  23618312.4304                   23618316.9144
  -7114810.82448  -5535291.47344  20873472.5004                   20873472.3834
 -19175186.62948 -14925616.48443  20361837.1414                   20361838.1334
  -4162115.47348  -3243001.91643  21082863.3524                   21082862.8204
 11  9 25 19 14  0.0000000  0  6G08G09G02G17G04G28
  18626129.855 6                  23620320.586
   -148656.97347    -97412.46653  22883779.8754                   22883784.9384
   1164429.96947    925941.05343  23594577.1724                   23594581.4144
  -7118484.52748  -5538154.10844  20872773.2664                   20872773.3364
 -19262778.37548 -14993869.70644  20345169.1174                   20345170.0704
  -4170352.84048  -3249420.72444  21081295.7194                   21081295.6564
 11  9 25 19 14 30.0000000  0  7G08G09G02G17G04G28G20
  18718840.738 6                  23637962.805
   -251258.57847   -177361.61153  22864256.2344                   22864258.6564
   1039833.34446    828853.21843  23570866.4614                   23570870.8404
  -7122034.71148  -5540920.49444  20872097.6174                   20872097.7504
 -19349874.88348 -15061737.10344  20328595.2424                   20328596.2854
  -4178287.65648  -3255603.69344  21079785.7894                   21079786.0554
                                  23934006.102
 11  9 25 19 15  0.0000000  0  7G08G09G02G17G04G28G20
  20387045.48846  15887819.68452  23955412.5634                   23955422.7114
   1222034.30147    970658.69743  23144614.6644                   23144617.3054
   2490797.469 7                  23846976.367
  -5550042.20748  -4315991.28444  21171237.5234                   21171238.0124
 -17861051.12948 -13901614.64144  20611908.7424                   20611910.0784
  -2610498.13748  -2033949.64244  21378126.4304                   21378126.0044
   9393905.152 6                  24228502.992
 11  9 25 19 15 30.0000000  0  7G08G09G02G17G04G28G20
                                  20479906.539 6                  23973083.469
   1120376.46947    891444.93853  23125269.9694                   23125269.9414
   2366475.27046   1862600.50452  23823317.4384                   23823319.0824
  -5553348.53548  -4318567.68044  21170608.5704                   21170609.0314
 -17947151.99248 -13968706.18644  20595524.0474                   20595525.5744
  -2617824.59048  -2039658.53544  21376732.2584                   21376732.1684
   9366527.750 5                  24223292.398
 11  9 25 19 16  0.0000000  0  7G08G09G02G17G04G28G20
                                  20572837.227 6                  23990767.859
   1019193.46147    812601.16853  23106015.4534                   23106016.4494
   2242292.45746   1765834.92242  23799686.8204                   23799689.8874
  -5556535.31248  -4321050.88144  21170001.9694                   21170002.5944
 -18032753.48448 -14035408.59144  20579234.8134                   20579236.1334
  -2624846.15648  -2045130.00644  21375396.1094                   21375395.8324
                                  24218170.563
 11  9 25 19 16 30.0000000  0  7G08G09G02G17G04G28G20
                                  20665835.293 6                  24008464.703
    918488.70747    734129.76843  23086851.2584                   23086855.2304
   2118251.35247   1669179.76943  23776081.9844                   23776085.0314
  -5559602.70348  -4323441.08144  21169418.7114                   21169418.3054
 -18117853.37548 -14101720.12644  20563040.8674                   20563042.2504
  -2631560.73448  -2050362.14344  21374118.3284                   21374118.2464
   9313147.730 5                  24213135.000
 11  9 25 19 17  0.0000000  0  7G08G09G02G17G04G28G20
                                  20758900.660 6                  24026174.930
    818267.35947    656035.44643  23067779.8594                   23067783.4064
   1994356.80147   1572638.84842  23752504.8054                   23752506.8634
  -5562548.68048  -4325736.65744  21168857.5704                   21168858.3204
 -18202447.29348 -14167637.44044  20546943.1884                   20546944.1994
  -2637964.50448  -2055352.11044  21372899.5864                   21372899.2344
   9287150.590 5                  24208187.727
 11  9 25 19 17 30.0000000  0  7G08G09G02G17G04G28G20
                                  20852031.191 6                  24043897.984
    718532.79347    578320.32042  23048801.6094                   23048803.1454
   1870611.89146   1476214.35553  23728957.8444                   23728961.6024
  -5565373.32848  -4327937.66144  21168320.7424                   21168320.5234
 -18286532.59448 -14233158.38544  20530942.2424                   20530942.7424
  -2644055.33248  -2060098.23943  21371740.7974                   21371740.9694
   9261618.813 5                  24203331.039
 11  9 25 19 18  0.0000000  0  7G08G09G02G17G04G28G20
                                  20945224.344 6                  24061631.891
    619287.96147    500986.37253  23029915.4454                   23029917.4694
   1747018.79346   1379908.29243  23705438.0314                   23705440.8204
  -5568077.02048  -4330044.48444  21167806.4924                   21167806.4224
 -18370107.31248 -14298281.46344  20515038.4144                   20515039.6334
  -2649831.85548  -2064599.46144  21370641.6094                   21370642.2544
   9236553.355 5                  24198559.188
 11  9 25 19 18 30.0000000  0  7G08G09G02G17G04G28G20
                                  21038479.023 6                  24079379.016
    520537.52047    424038.52543  23011123.3364                   23011126.9104
   1623581.29747   1283723.55443  23681949.0864                   23681951.9184
  -5570658.94148  -4332056.37344  21167314.9534                   21167315.1564
 -18453168.16448 -14363004.18544  20499231.8834                   20499233.9384
  -2655291.15648  -2068853.57244  21369602.5314                   21369602.7664
   9211957.254 6                  24193880.016
 11  9 25 19 19  0.0000000  0  7G08G09G02G17G04G28G20
                                  21131791.668 6                  24097135.672
    422283.68447    347477.11943  22992426.2114                   22992428.4844
   1500301.10547   1187661.24943  23658489.3134                   23658492.2424
  -5573120.25048  -4333974.29744  21166846.7194                   21166846.3674
 -18535713.83648 -14427325.46444  20483524.5234                   20483525.9964
  -2660432.44148  -2072859.85644  21368624.4064                   21368624.4344
   9187830.754 5                  24189288.164
 11  9 25 19 19 30.0000000  0  7G08G09G02G17G04G28G20
                                  21225159.867 6                  24114903.773
    324528.85947    271304.46653  22973824.3754                   22973825.9804
   1377180.30947   1091723.11943  23635060.0084                   23635063.7384
  -5575461.44548  -4335798.63044  21166400.9694                   21166400.8914
 -18617742.85548 -14491244.15344  20467914.8134                   20467915.6604
  -2665254.43748  -2076617.25944  21367706.7584                   21367706.9614
   9164175.160 5                  24184785.969
 11  9 25 19 20  0.0000000  0  7G08G09G02G17G04G28G20
                                  21318580.574 6                  24132681.281
    227275.94547    195523.12743  22955317.2584                   22955321.0124
   1254220.71947    995910.62743  23611661.1484                   23611664.0864
  -5577683.49248  -4337530.08644  21165978.1094                   21165977.7974
 -18699253.46548 -14554758.84744  20452403.7504                   20452404.4774
  -2669755.80148  -2080124.90143  21366850.3754                   21366849.7464
   9140991.625 5                  24180374.859
 11  9 25 19 20 30.0000000  0  7G08G09G02G17G04G28G20
  21412049.98446  16686515.89852  24150468.1174                   24150472.9844
    130526.30947    120133.90143  22936906.9774                   22936910.1214
   1131423.48046    900224.65843  23588293.5084                   23588295.6454
  -5579788.28948  -4339170.25544  21165576.9614                   21165577.2384
 -18780245.27048 -14617869.25344  20436991.1804                   20436992.5784
  -2673936.46548  -2083382.62244  21366055.0554                   21366055.2424
   9118279.473 6                  24176053.328
 11  9 25 19 21  0.0000000  0  7G08G09G02G17G04G28G20
  21505566.473 6                                                  24168263.375
     34283.68047     45139.72743  22918592.2504                   22918595.1604
   1008791.98847    804667.86743  23564957.2344                   23564959.9924
  -5581774.99648  -4340718.35144  21165199.3444                   21165199.8014
 -18860715.14148 -14680573.05344  20421678.9064                   20421679.3914
  -2677793.83648  -2086388.38444  21365321.0164                   21365321.3484
   9096041.195 6                  24171821.047
 11  9 25 19 21 30.0000000  0  8G08G09G02G17G04G10G28G20
  21599125.438 6                                                  24186068.055
    -61451.55147    -29459.08943  22900374.2664                   22900377.4264
    886326.12947    709240.16943  23541652.6804                   23541655.3404
  -5583646.46948  -4342176.64744  21164843.4694                   21164843.6024
 -18940664.09048 -14742870.91044  20406464.7344                   20406465.9534
   9300500.48415                  24696852.250
  -2681329.07848  -2089143.14144  21364648.2274                   21364648.4144
   9074275.672 6                  24167678.922
 11  9 25 19 22  0.0000000  0  8G08G09G02G17G04G10G28G20
  21692712.820 6                                                  24203878.070
   -156687.59047   -103668.98543  22882251.2814                   22882253.6644
    764017.32846    613934.62243  23518377.8444                   23518381.1804
  -5585414.32848  -4343554.22144  21164506.9614                   21164507.4774
 -19020101.11348 -14804769.84144  20391348.3364                   20391349.5314
   9183593.359 6                  24674605.469
  -2684551.87548  -2091654.49744  21364035.0084                   21364034.9694
   9052972.863 5                  24163625.156
 11  9 25 19 22 30.0000000  0  8G08G09G02G17G04G10G28G20
  21786320.746 6                                                  24221691.336
   -251427.39547   -177492.09943  22864222.8674                   22864226.0514
    641862.04747    518749.05553  23495132.6954                   23495137.0234
  -5587084.51648  -4344855.71944  21164189.3754                   21164189.6914
 -19099030.01648 -14866272.81544  20376328.7734                   20376329.6724
   9066524.973 6                  24652327.891
  -2687466.24648  -2093925.47644  21363480.4064                   21363481.0554
   9032129.117 6                  24159659.094
 11  9 25 19 23  0.0000000  0  8G08G09G02G17G04G10G28G20
  21879943.891 6                                                  24239508.117
   -345670.73447   -250928.42143  22846289.8444                   22846291.2034
    519860.02047    423682.70753  23471915.9614                   23471919.7464
  -5588659.94547  -4346083.32644  21163889.6724                   21163889.2154
 -19177451.71148 -14927380.56144  20361405.5474                   20361406.8984
   8949295.980 6                  24630019.594
  -2690073.36347  -2095957.02643  21362984.4454                   21362984.6684
   9011741.766 6                  24155780.125
 11  9 25 19 23 30.0000000  0  8G08G09G02G17G04G10G28G20
  21973585.113 6                                                  24257327.086
   -439409.08646   -323971.31643  22828451.5864                   22828453.2384
    398018.82046    328741.67843  23448730.5004                   23448734.2464
  -5590136.04747  -4347233.53144  21163608.3364                   21163608.5984
 -19255359.07848 -14988087.58644  20346580.1954                   20346581.7074
   8831914.590 6                  24607682.336
  -2692366.60547  -2097744.00743  21362548.1564                   21362548.0004
   8991817.656 6                  24151988.063
 11  9 25 19 24  0.0000000  0  8G08G09G02G17G04G10G28G20
  22067244.949 6                                                  24275150.781
   -532637.23046   -396616.51943  22810710.7664                   22810712.3984
    276343.59046    233929.91643  23425576.4144                   23425579.0394
  -5591510.34047  -4348304.43844  21163346.5084                   21163347.3714
 -19332748.00848 -15048390.63644  20331853.2274                   20331855.0784
   8714386.711 6                  24585318.555
  -2694341.87547  -2099283.25943  21362172.0084                   21362173.0784
   8972360.422 6                  24148285.227
 11  9 25 19 24 30.0000000  0  8G08G09G02G17G04G10G28G20
  22160924.83246  17270057.55552  24292977.9454                   24292990.2304
   -625348.13346   -468858.66053  22793068.6884                   22793067.9494
    154840.78947    139252.72143  23402454.6414                   23402457.8874
  -5592778.50848  -4349292.63744  21163105.7584                   21163106.4844
 -19409612.19548 -15108284.76344  20317226.7504                   20317227.9104
   8596719.707 6                  24562925.633
  -2695993.42648  -2100570.17043  21361857.8594                   21361858.2194
   8953376.035 6                  24144673.078
 11  9 25 19 25  0.0000000  0  8G08G09G02G17G04G10G28G20
  22254622.160 6                                                  24310807.727
   -717539.35247   -540696.00343  22775525.3674                   22775526.9454
     33512.66047     44711.46942  23379366.7034                   23379367.7974
  -5593941.69948  -4350199.03344  21162884.3444                   21162885.1524
 -19485950.12948 -15167768.81344  20302699.9844                   20302700.9024
   8478916.387 5                  24540508.203
  -2697319.79348  -2101603.82943  21361605.2424                   21361604.9774
   8934864.570 6                  24141151.195
 11  9 25 19 25 30.0000000  0  8G08G09G02G17G04G10G28G20
  22348336.813 6                                                  24328642.195
   -809206.01247   -612124.42043  22758081.5234                   22758083.4804
    -87636.41447    -49690.25543  23356312.5944                   23356313.8244
  -5594997.82448  -4351022.03744  21162683.2894                   21162683.5554
 -19561757.99248 -15226839.86544  20288274.4064                   20288275.1414
   8360982.246 5                  24518065.625
  -2698317.53948  -2102381.24144  21361415.4454                   21361415.9104
   8916829.797 6                  24137718.703
 11  9 25 19 26  0.0000000  0  8G08G09G02G17G04G10G28G20
  22442066.238 6                                                  24346478.633
   -900345.54347   -683142.27943  22740737.2814                   22740740.7704
   -208604.09046   -143950.54953  23333292.6644                   23333294.5234
  -5595947.23848  -4351761.81144  21162502.8444                   21162502.8244
 -19637034.22748 -15285496.63944  20273949.7664                   20273950.7424
   8242920.285 5                  24495598.469
  -2698985.42648  -2102901.74643  21361288.5084                   21361287.9224
   8899272.641 5                  24134376.875
 11  9 25 19 26 30.0000000  0  8G08G09G02G17G04G10G28G20
  22535804.363 6                                                  24364317.289
   -990958.57447   -753749.77342  22723494.5864                   22723497.6334
   -329391.62147   -238070.65443  23310308.2664                   23310309.2114
  -5596793.81647  -4352421.50144  21162341.7734                   21162341.3794
 -19711780.64848 -15343740.57044  20259725.7034                   20259727.0904
   8124730.266 5                  24473106.828
  -2699325.39547  -2103166.72443  21361224.2664                   21361224.0704
   8882190.379 5                  24131126.758
 11  9 25 19 27  0.0000000  0  8G08G09G02G17G04G10G28G20
  22629554.758 6                                                  24382156.719
  -1081036.26647   -823940.20243  22706352.9774                   22706356.8324
   -449990.60247   -332043.69843  23287358.7034                   23287359.6484
  -5597531.84847  -4352996.61344  21162201.0704                   21162201.8444
 -19785989.58248 -15401565.63744  20245604.8834                   20245605.3984
   8006421.258 5                  24450594.063
  -2699329.99647  -2103170.38643  21361223.1954                   21361222.7424
   8865590.324 6                  24127967.398
 11  9 25 19 27 30.0000000  0  8G08G09G02G17G04G10G28G20
  22723318.227 6                                                  24400000.234
  -1170573.13346   -893709.05243  22689314.6174                   22689318.0944
   -570396.01247   -425865.93243  23264445.8914                   23264448.9964
  -5598158.14547  -4353484.68644  21162082.1414                   21162081.6374
 -19859656.51648 -15458968.40244  20231586.0864                   20231587.0274
   7887999.473 5                  24428058.625
  -2698995.14847  -2102909.50743  21361286.7274                   21361286.9534
   8849476.109 6                  24124902.602
 11  9 25 19 28  0.0000000  0  8G08G09G02G17G04G10G28G20
  22817094.188 6                                                  24417845.867
  -1259564.53146   -963052.93443  22672380.8594                   22672383.2624
   -690602.98447   -519533.65043  23241571.4924                   23241575.3094
  -5598671.58248  -4353884.70344  21161984.6094                   21161983.9184
 -19932777.84448 -15515946.05244  20217671.1024                   20217672.2464
   7769470.199 5                  24405503.289
  -2698317.10548  -2102381.20443  21361415.7504                   21361415.9494
   8833851.191 5                  24121927.719
 11  9 25 19 28 30.0000000  0  7G09G02G17G04G10G28G20
  -1348008.72347  -1031970.38953  22655550.3364                   22655552.0044
   -810610.42247   -613045.46743  23218734.2194                   23218737.0634
  -5599073.28548  -4354197.75544  21161908.1884                   21161908.3014
 -20005352.69148 -15572497.83944  20203860.8444                   20203861.5354
   7650835.38745   5978437.39653  24382928.1414                   24382935.3594
  -2697295.48048  -2101585.18843  21361610.2194                   21361610.1644
   8818715.180 6                  24119048.266
 11  9 25 19 29  0.0000000  0  7G09G02G17G04G10G28G20
  -1435901.80146  -1100458.42343  22638824.3594                   22638827.3134
   -930414.70347   -706399.47743  23195936.4224                   23195938.9534
  -5599362.26648  -4354422.97044  21161853.0784                   21161852.7704
 -20077378.41048 -15628621.74344  20190155.0164                   20190155.2624
   7532099.941 6                  24360333.180
  -2695927.89548  -2100519.58543  21361870.7814                   21361870.2114
   8804070.855 6                  24116260.891
 11  9 25 19 29 30.0000000  0  7G09G02G17G04G10G28G20
  -1523230.68046  -1168506.78743  22622206.2274                   22622210.1484
  -1050003.12147   -799585.07043  23173179.3524                   23173181.0984
  -5599527.99648  -4354552.13744  21161821.2664                   21161821.5664
 -20148842.91048 -15684308.35444  20176555.6024                   20176556.5634
   7413277.566 6                  24337721.633
  -2694202.10248  -2099174.82743  21362199.1334                   21362199.2384
   8789929.266 6                  24113571.031
 11  9 25 19 30  0.0000000  0  7G09G02G17G04G10G28G20
  -1609986.64847  -1236108.89843  22605697.7734                   22605700.9024
  -1169367.27747   -892595.91343  23150465.1564                   23150467.9884
  -5599564.44547  -4354580.54044  21161814.4694                   21161814.7384
 -20219738.70348 -15739551.77444  20163064.3984                   20163065.0314
   7294377.543 6                  24315095.313
  -2692110.84047  -2097545.36444  21362597.4384                   21362597.5664
   8776297.180 6                  24110975.320
 11  9 25 19 30 30.0000000  0  7G09G02G17G04G10G28G20
  -1696174.79347  -1303268.39243  22589296.4534                   22589299.7504
  -1288512.46547   -985436.20543  23127792.4064                   23127795.4924
  -5599480.06648  -4354514.78444  21161830.5784                   21161830.4184
 -20290071.85248 -15794356.81544  20149680.5474                   20149681.2814
   7175395.348 6                  24292452.445
  -2689660.56647  -2095636.18044  21363063.6174                   21363063.7734
   8763167.805 6                  24108476.805
 11  9 25 19 31  0.0000000  0  7G09G02G17G04G10G28G20
  -1781797.79347  -1369987.61343  22573001.9924                   22573006.6454
  -1407441.66846  -1078108.05143  23105161.2034                   23105163.2584
  -5599279.83248  -4354358.78144  21161868.5234                   21161868.5474
 -20359845.90248 -15848726.10744  20136403.0474                   20136403.7854
   7056329.383 6                  24269795.086
  -2686854.74247  -2093449.83544  21363597.5394                   21363597.8954
   8750537.250 5                  24106074.297
 11  9 25 19 31 30.0000000  0  7G09G02G17G04G10G28G20
  -1866855.44947  -1436266.16643  22556816.5234                   22556819.8324
  -1526154.31247  -1170611.19243  23082570.2974                   23082572.2034
  -5598966.11748  -4354114.31644  21161928.5394                   21161928.3054
 -20429061.70748 -15902660.52344  20123231.7194                   20123232.8244
   6937180.980 5                  24247122.211
  -2683694.41448  -2090987.32543  21364198.6804                   21364199.3094
   8738404.195 6                  24103765.742
 11  9 25 19 32  0.0000000  0  7G09G02G17G04G10G28G20
  -1951352.51247  -1502107.98843  22540737.1954                   22540739.6684
  -1644655.73046  -1262949.81443  23060020.3054                   23060021.9064
  -5598546.43448  -4353787.35344  21162008.4774                   21162009.0394
 -20497725.04748 -15956164.36644  20110165.3284                   20110165.9064
   6817945.727 6                  24224431.781
  -2680185.57048  -2088253.21144  21364866.8054                   21364867.1254
   8726761.848 6                  24101551.078
 11  9 25 19 32 30.0000000  0  7G09G02G17G04G10G28G20
  -2035289.51247  -1567513.36843  22524764.5004                   22524767.0594
  -1762946.90247  -1355124.52643  23037510.0394                   23037510.8054
  -5598024.22348  -4353380.49844  21162107.9614                   21162107.6374
 -20565838.09448 -16009239.41944  20097203.9694                   20097204.6024
   6698623.730 6                  24201725.820
  -2676330.27048  -2085249.15043  21365600.2974                   21365600.2774
   8715607.914 6                  24099427.125
 11  9 25 19 33  0.0000000  0  7G09G02G17G04G10G28G20
  -2118667.43047  -1632483.16543  22508898.0084                   22508900.4494
  -1881028.81647  -1447136.26443  23015039.3054                   23015040.7854
  -5597402.79747  -4352896.32644  21162226.0474                   21162226.1764
 -20633402.21948 -16061886.77544  20084346.9844                   20084347.5744
   6579215.398 5                  24179001.820
  -2672130.25848  -2081976.46443  21366399.7734                   21366399.8324
   8704939.758 6                  24097396.516
 11  9 25 19 33 30.0000000  0  7G09G02G17G04G10G28G20
  -2201484.92647  -1697016.16643  22493138.5944                   22493141.5124
  -1998900.60247  -1538984.18843  22992609.2114                   22992611.4344
  -5596684.06248  -4352336.26044  21162362.9924                   21162362.7894
 -20700417.57048 -16114106.50744  20071594.2894                   20071595.3094
   6459722.242 5                  24156264.266
  -2667585.75848  -2078435.37843  21367264.5164                   21367265.0274
   8694757.082 6                  24095460.898
 11  9 25 19 34  0.0000000  0  7G09G02G17G04G10G28G20
  -2283745.95347  -1761115.48643  22477485.6334                   22477486.8094
  -2116566.22747  -1630671.56243  22970218.1484                   22970220.0904
  -5595874.30148  -4351705.30944  21162516.8914                   21162517.0904
 -20766889.24648 -16165902.59244  20058945.0234                   20058946.0044
   6340141.359 5                  24133507.828
  -2662701.80947  -2074629.74543  21368194.0394                   21368193.5784
   8685053.848 6                  24093613.398
 11  9 25 19 34 30.0000000  0  7G09G02G17G04G10G28G20
  -2365450.13747  -1824781.30542  22461937.7894                   22461940.6294
  -2234025.29747  -1722197.91443  22947865.7664                   22947868.4494
  -5594975.44147  -4351004.96344  21162687.9614                   21162687.8134
 -20832817.67648 -16217275.32744  20046399.3674                   20046400.5354
   6220474.375 6                  24110735.656
  -2657478.82448  -2070559.93844  21369187.7814                   21369188.4264
   8675829.277 6                  24091857.453
 11  9 25 19 35  0.0000000  0  7G09G02G17G04G10G28G20
  -2446592.11747  -1888008.87043  22446496.8364                   22446497.8714
  -2351272.73847  -1813559.37843  22925554.6254                   22925556.2304
  -5593984.64148  -4350232.90444  21162876.3754                   21162877.2854
 -20898198.78148 -16268221.65744  20033957.6884                   20033958.1414
   6100727.703 6                  24087948.695
  -2651912.71148  -2066222.75343  21370246.7424                   21370247.1134
   8667086.902 6                  24090194.273
 11  9 25 19 35 30.0000000  0  7G09G02G17G04G10G28G20
  -2527165.39847  -1950793.13643  22431164.0944                   22431165.5514
  -2468302.10247  -1904750.89443  22903284.3284                   22903285.7274
  -5592897.92648  -4349386.16644  21163083.5394                   21163083.0004
 -20963027.04348 -16318737.14844  20021621.3674                   20021621.8364
   5980908.816 6                  24065146.805
  -2645998.00448  -2061614.00543  21371372.5784                   21371373.0664
   8658831.438 6                  24088622.906
 11  9 25 19 36  0.0000000  0  7G09G02G17G04G10G28G20
  -2607169.621 7                  22415939.563
  -2585113.02347  -1995772.24943  22881056.0314                   22881057.5904
  -5591717.22748  -4348466.18544  21163308.0234                   21163307.9574
 -21027303.12548 -16368822.36044  20009389.8754                   20009390.7624
   5861019.234 6                  24042332.203
  -2639735.41048  -2056734.07843  21372564.3524                   21372564.6024
   8651061.832 6                  24087144.766
 11  9 25 19 36 30.0000000  0  7G09G02G17G04G10G28G20
  -2686606.37147  -2075032.64653  22400823.0554                   22400824.4844
  -2701707.20747  -2086624.61443  22858868.5084                   22858870.2774
  -5590446.70748  -4347476.20844  21163549.6414                   21163549.7624
 -21091029.52348 -16418479.28644  19997263.1484                   19997263.5704
   5741058.352 6                  24019504.664
  -2633127.69548  -2051585.30043  21373821.8754                   21373821.7034
   8643774.566 6                  24085758.078
 11  9 25 19 37  0.0000000  0  7G09G02G17G04G10G28G20
  -2765473.06647  -2136487.23042  22385814.9454                   22385816.7704
  -2818082.02747  -2177306.06643  22836723.1644                   22836725.3284
  -5589086.25048  -4346416.12344  21163808.9844                   21163808.6454
 -21154204.94548 -16467706.86044  19985241.1094                   19985242.3954
   5621029.909 6                  23996663.555
  -2626173.44148  -2046166.49044  21375145.2584                   21375145.7734
   8636970.602 6                  24084463.680
 11  9 25 19 37 30.0000000  0  7G09G02G17G04G10G28G20
  -2843768.13747  -2197496.16443  22370915.8834                   22370917.6484
  -2934236.23447  -2267815.71743  22814619.6564                   22814621.3754
  -5587636.56647  -4345286.55144  21164084.2344                   21164085.2504
 -21216828.98048 -16516504.80344  19973324.2734                   19973325.6414
   5500936.578 6                  23973809.922
  -2618872.16448  -2040477.23543  21376534.5084                   21376534.8794
   8630649.707 6                  24083260.633
 11  9 25 19 38  0.0000000  0  7G09G02G17G04G10G28G20
  -2921489.07847  -2258058.12943  22356126.1334                   22356126.4774
  -3050167.16847  -2358151.35943  22792558.0634                   22792560.0314
  -5586097.51648  -4344087.31844  21164377.4614                   21164377.5514
 -21278899.99248 -16564871.75144  19961512.2034                   19961513.0554
   5380782.176 6                  23950946.531
  -2611222.04748  -2034516.07543  21377990.3834                   21377991.3594
   8624812.813 6                  24082149.602
 11  9 25 19 38 30.0000000  0  7G09G02G17G04G10G28G20
  -2998634.62547  -2318171.39643  22341446.1094                   22341447.8364
  -3165873.37547  -2448311.82443  22770540.1884                   22770541.9454
  -5584470.09048  -4342819.25844  21164687.1954                   21164688.2274
 -21340417.89548 -16612807.77144  19949805.9224                   19949807.1724
   5260569.219 6                  23928069.281
  -2603223.33248  -2028283.38443  21379512.5634                   21379512.3094
   8619459.426 6                  24081130.047
 11  9 25 19 39  0.0000000  0  7G09G02G17G04G10G28G20
  -3075197.44947  -2377830.74443  22326876.2034                   22326878.1724
  -3281347.81647  -2538291.76243  22748565.8524                   22748567.5124
  -5582749.18448  -4341478.29644  21165014.7424                   21165015.0784
 -21401376.51248 -16660307.96644  19938206.1414                   19938206.8014
   5140306.16846   4022167.24652  23905183.6334                   23905193.9694
  -2594869.43048  -2021773.92143  21381102.2974                   21381103.3204
   8614595.387 6                  24080205.961
 11  9 25 19 39 30.0000000  0  7G09G02G17G04G10G28G20
  -3151178.23047  -2437036.66943  22312417.3364                   22312419.1094
  -3396591.34447  -2628091.67043  22726635.5634                   22726637.8244
  -5580937.73047  -4340066.80044  21165359.2114                   21165359.9344
 -21461777.80148 -16707373.90444  19926711.7814                   19926712.3834
   5019993.467 6                  23882289.055
  -2586162.38347  -2014989.26644  21382759.3204                   21382760.1884
   8610218.336 6                  24079371.695
 11  9 25 19 40  0.0000000  0  7G09G02G17G04G10G28G20
  -3226574.69147  -2495786.84943  22298069.7974                   22298073.3484
  -3511601.53947  -2717709.89343  22704749.5704                   22704751.7274
  -5579035.82047  -4338584.83844  21165721.3524                   21165721.5864
 -21521620.24647 -16754004.34844  19915324.3364                   19915324.5434
   4899634.934 6                  23859385.117
  -2577100.71548  -2007928.30243  21384483.8834                   21384483.4184
   8606328.715 6                  24078632.242
 11  9 25 19 40 30.0000000  0  7G09G02G17G04G10G28G20
  -3301385.96947  -2554081.35343  22283833.9924                   22283837.0204
  -3626377.22747  -2807145.29143  22682908.3364                   22682910.1374
  -5577044.84047  -4337033.46044  21166100.3594                   21166100.7734
 -21580904.39548 -16800199.76944  19904043.2274                   19904043.7544
   4779232.535 6                  23836473.742
  -2567684.68048  -2000591.12743  21386275.5234                   21386275.2774
   8602925.613 6                  24077984.805
 11  9 25 19 41  0.0000000  0  7G09G02G17G04G10G28G20
  -3375612.95347  -2611920.58643  22269708.6094                   22269712.0164
  -3740919.26647  -2896398.62443  22661111.6884                   22661113.2344
  -5574967.36747  -4335414.65844  21166495.8284                   21166496.4924
 -21639631.99648 -16845961.51744  19892867.5394                   19892867.9304
   4658787.344 6                  23813553.898
  -2557915.79748  -1992979.06743  21388134.6334                   21388135.3794
   8600006.703 6                  24077429.156
 11  9 25 19 41 30.0000000  0  7G09G02G17G04G10G28G20
  -3449251.39547  -2669301.04243  22255696.3914                   22255698.5084
  -3855223.33647  -2985466.64343  22639360.3984                   22639361.6954
  -5572801.09047  -4333726.67644  21166907.7034                   21166907.8164
 -21697799.45348 -16891286.79044  19881798.7504                   19881798.8834
   4538304.977 6                  23790625.586
  -2547790.86748  -1985089.63143  21390061.0234                   21390061.2774
   8597574.652 6                  24076966.641
 11  9 25 19 42  0.0000000  0  7G09G02G17G04G10G28G20
  -3522295.73047  -2726218.77443  22241796.0004                   22241799.7934
  -3969283.86347  -3074344.77243  22617655.3524                   22617657.2974
  -5570543.15248  -4331967.26844  21167337.5704                   21167337.2464
 -21755402.76248 -16936172.47144  19870836.8204                   19870837.5744
   4417792.242 6                  23767692.805
  -2537305.64848  -1976919.32643  21392056.5944                   21392056.9024
   8595632.945 5                  24076596.414
 11  9 25 19 42 30.0000000  0  7G09G02G17G04G10G28G20
  -3594744.60547  -2782672.41243  22228009.3674                   22228012.2304
  -4083099.07447  -3163031.83043  22595996.9614                   22595998.2464
  -5568193.84047  -4330136.66644  21167784.3524                   21167785.3204
 -21812441.48847 -16980618.19944  19859982.6094                   19859982.9734
   4297251.996 6                  23744753.945
  -2526459.23047  -1968467.69043  21394120.7894                   21394120.5824
   8594181.664 6                  24076321.008
 11  9 25 19 43  0.0000000  0  7G09G02G17G04G10G28G20
  -3666598.56247  -2838662.44443  22214336.0004                   22214339.2854
  -4196669.74647  -3251528.26943  22574384.4774                   22574387.0594
  -5565755.56247  -4328236.72444  21168248.8524                   21168248.6294
 -21868917.23848 -17024625.25044  19849235.7664                   19849236.3984
   4176685.31346   3271297.64552  23721810.6564                   23721817.6334
  -2515253.41448  -1959735.96643  21396253.1564                   21396253.9104
   8593218.730 6                  24076137.398
 11  9 25 19 43 30.0000000  0  7G09G02G17G04G10G28G20
  -3737851.12147  -2894183.90243  22200776.9384                   22200778.9264
  -4309988.88347  -3339828.71243  22552821.0784                   22552821.6954
  -5563223.89147  -4326264.02944  21168730.2114                   21168730.9694
 -21924824.62548 -17068189.40644  19838596.7894                   19838597.5704
   4056100.35247   3177335.60853  23698864.6884                   23698873.6134
  -2503682.38748  -1950719.55943  21398455.6804                   21398455.3364
   8592748.859 6                  24076047.844
 11  9 25 19 44  0.0000000  0  7G09G02G17G04G10G28G20
  -2233084.37547  -1721638.34243  22487125.2034                   22487127.4534
  -2847637.29347  -2200333.92543  22831096.9924                   22831098.0984
  -3985185.60948  -3096623.84744  21469021.0474                   21469021.8014
 -20404747.47748 -15883713.72244  20127857.9534                   20127858.6724
   5510918.01647   4310960.35653  23975706.7814                   23975717.5274
   -916332.25448   -713823.48543  21700517.5164                   21700517.9574
  10168185.828 5                  24375843.078
 11  9 25 19 44 30.0000000  0  7G09G02G17G04G10G28G20
  -2303137.18747  -1776224.93443  22473793.7664                   22473796.8594
  -2960456.29747  -2288244.63043  22809628.0314                   22809629.7304
  -3982476.28148  -3094512.70244  21469536.3364                   21469536.7934
 -20459524.55148 -15926397.12644  20117434.5084                   20117434.8834
   5390297.89147   4216970.96753  23952753.1174                   23952764.1334
   -904037.26648   -704243.04944  21702857.5554                   21702857.3954
  10168693.777 5                  24375940.766
 11  9 25 19 45  0.0000000  0  7G09G02G17G04G10G28G20
  -2372584.13347  -1830339.47743  22460579.0234                   22460581.9694
  -3073019.12547  -2375955.80043  22788208.5944                   22788210.0394
  -3979675.24247  -3092330.09144  21470069.5474                   21470069.7504
 -20513732.29348 -15968636.92544  20107118.9694                   20107119.4694
   5269668.46147   4122974.19952  23929798.5864                   23929805.9774
   -891375.82048   -694377.04743  21705266.5234                   21705267.4144
  10169693.871 5                  24376128.547
 11  9 25 19 45 30.0000000  0  7G09G02G17G04G10G28G20
  -2441425.98047  -1883982.43743  22447478.5474                   22447481.4184
  -3185326.04747  -2463467.57143  22766836.4614                   22766837.7584
  -3976784.56247  -3090077.64644  21470619.6174                   21470620.1844
 -20567372.26248 -16010434.23644  20096911.7344                   20096912.1844
   5149030.74646   4028971.06642  23906841.3134                   23906849.2584
   -878349.28548   -684226.48843  21707745.8284                   21707746.6054
  10171184.203 5                  24376414.836
 11  9 25 19 46  0.0000000  0  7G09G02G17G04G10G28G20
  -2509663.41047  -1937154.38043  22434493.1094                   22434495.5234
  -3297377.66047  -2550780.40643  22745513.7114                   22745515.9264
  -3973806.84048  -3087757.41344  21471186.3984                   21471187.4144
 -20620446.28548 -16051790.61244  20086812.0004                   20086811.4414
   5028385.852 6                  23883883.055
   -864959.00848   -673792.61443  21710294.0634                   21710294.8484
  10173162.094 5                  24376791.555
 11  9 25 19 46 30.0000000  0  7G09G02G17G04G10G28G20
  -2577292.76247  -1989852.57843  22421624.3594                   22421626.7464
  -3409169.61747  -2637890.90743  22724240.2734                   22724242.2154
  -3970740.02048  -3085367.68444  21471769.8674                   21471771.0164
 -20672951.70348 -16092703.87344  20076820.2664                   20076821.1764
   4907739.58246   3840951.56753  23860925.0634                   23860930.8754
   -851202.11348   -663073.00943  21712911.6644                   21712913.3524
  10175630.270 5                  24377259.609
 11  9 25 19 47  0.0000000  0  7G09G02G17G04G10G28G20
  -2644317.56647  -2042079.66643  22408869.4694                   22408871.5204
  -3520705.18447  -2724801.61443  22703016.4064                   22703016.7274
  -3967589.64847  -3082912.83544  21472369.6954                   21472369.9774
 -20724893.01648 -16133177.60944  20066936.5004                   20066937.2504
   4787090.215 6                  23837965.594
   -837082.99248   -652071.17844  21715598.5164                   21715599.4184
  10178583.16416                  24377823.242
 11  9 25 19 47 30.0000000  0  7G09G02G17G04G10G28G20
  -2710732.21547  -2093831.37343  22396231.2814                   22396233.5514
  -3631978.75447  -2811508.11743  22681841.0084                   22681842.5124
  -3964351.58247  -3080389.68844  21472985.7034                   21472985.9494
 -20776265.72348 -16173208.29044  20057160.1334                   20057161.5004
   4666445.12547   3652930.59353  23815007.1334                   23815014.1054
   -822596.94948   -640783.36743  21718355.4384                   21718356.0434
  10182024.555 5                  24378477.977
 11  9 25 19 48  0.0000000  0  7G09G02G17G04G10G28G20
  -2776537.87547  -2145108.50643  22383709.0474                   22383711.6564
  -3742991.02347  -2898011.05743  22660715.9224                   22660716.7504
  -3961028.51248  -3077800.37344  21473618.2034                   21473619.1024
 -20827071.84448 -16212797.43344  20047492.3674                   20047492.6214
   4545804.83646   3558925.44142  23792050.0004                   23792057.1334
   -807746.05548   -629211.33643  21721181.8754                   21721182.0824
  10185952.164 5                  24379224.664
 11  9 25 19 48 30.0000000  0  7G09G02G17G04G10G28G20
  -2841731.46147  -2195908.60043  22371303.2034                   22371305.4774
  -3853738.61347  -2984307.71143  22639641.3834                   22639642.1564
  -3957618.96547  -3075143.62344  21474267.1484                   21474267.7304
 -20877309.65248 -16251943.82544  20037932.2194                   20037932.7344
   4425174.16047   3464928.05353  23769094.4924                   23769100.0864
   -792528.03548   -617353.19043  21724077.5784                   21724078.8094
  10190367.012 6                  24380063.867
 11  9 25 19 49  0.0000000  0  7G09G02G17G04G10G28G20
  -2906310.64147  -2246230.13343  22359014.1804                   22359016.7894
  -3964219.22347  -3070396.42043  22618617.5084                   22618618.1954
  -3954122.82848  -3072419.35344  21474932.6564                   21474932.7424
 -20926978.00048 -16290646.38244  20028480.6334                   20028481.6024
   4304557.29347   3370937.96152  23746141.1414                   23746147.4384
   -776941.41848   -605207.84843  21727043.5864                   21727044.3794
  10195270.043 6                  24380999.047
 11  9 25 19 49 30.0000000  0  7G09G02G17G04G10G28G20
  -2970276.26647  -2296073.28743  22346841.6174                   22346843.7344
  -4074433.03947  -3156277.18743  22597644.4534                   22597645.5554
  -3950541.99648  -3069629.14344  21475613.8834                   21475614.5314
 -20976078.58248 -16328906.57544  20019137.3204                   20019138.0704
   4183955.67646   3276963.06453  23723192.1644                   23723197.4494
   -760987.73448   -592776.46443  21730079.5164                   21730080.1174
  10200658.660 6                  24382023.695
 11  9 25 19 50  0.0000000  0  7G09G02G17G04G10G28G20
  -3033632.09847  -2345441.54143  22334785.3674                   22334788.5084
  -4184383.22347  -3241952.53943  22576721.9694                   22576723.6054
  -3946881.76247  -3066777.03644  21476310.4454                   21476311.0904
 -21024616.21548 -16366728.07944  20009900.6094                   20009901.5164
   4063367.754 6                  23700244.344
   -744671.49248   -580062.54443  21733184.1094                   21733184.9384
  10206527.707 6                  24383140.063
 11  9 25 19 50 30.0000000  0  7G09G02G17G04G10G28G20
  -3096373.77747  -2394331.16843  22322846.1254                   22322849.0204
  -4294065.26247  -3327418.91243  22555850.5084                   22555850.8324
  -3943139.25047  -3063860.83644  21477022.6484                   21477023.3634
 -21072587.56248 -16404108.33344  20000772.0704                   20000772.7424
   3942799.73846   3089049.81553  23677300.7194                   23677306.9734
   -727989.09847   -567063.41943  21736358.6334                   21736359.1374
  10212880.309 6                  24384348.313
 11  9 25 19 51  0.0000000  0  7G09G02G17G04G10G28G20
  -3158507.11347  -2442746.66843  22311022.6954                   22311025.3284
  -4403483.98447  -3412680.05443  22535028.0864                   22535028.5234
  -3939321.24648  -3060885.81244  21477748.9144                   21477749.4414
 -21119999.32848 -16441052.55044  19991750.0314                   19991750.6994
   3822248.20346   2995114.00943  23654360.2974                   23654367.8404
   -710947.07847   -553783.95743  21739601.5084                   21739602.2894
  10219708.598 6                  24385650.078
 11  9 25 19 51 30.0000000  0  7G09G02G17G04G10G28G20
  -3220027.05547  -2490684.20443  22299315.4224                   22299318.2344
  -4512634.15647  -3497732.05243  22514257.8284                   22514257.5784
  -3935424.81648  -3057849.66944  21478490.6024                   21478491.5394
 -21166847.44148 -16477557.56044  19982835.0634                   19982835.6174
   3701720.23046   2901195.96953  23631424.0164                   23631432.8794
   -693540.70347   -540220.63243  21742914.2274                   21742915.6334
  10227015.984 6                  24387039.867
 11  9 25 19 52  0.0000000  0  7G09G02G17G04G10G28G20
  -3280933.23847  -2538143.64143  22287725.5164                   22287728.8244
  -4621515.16047  -3582574.34543  22493537.7114                   22493537.9264
  -3931450.77748  -3054753.02644  21479247.0234                   21479247.6604
 -21213132.72348 -16513623.98844  19974027.0944                   19974027.0234
   3581218.168 6                  23608493.258
   -675770.40647   -526373.69643  21746296.0084                   21746296.4024
  10234801.531 6                  24388521.367
 11  9 25 19 52 30.0000000  0  7G09G02G17G04G10G28G20
  -3341224.37547  -2585123.68043  22276252.6484                   22276254.9104
  -4730125.17247  -3667205.41243  22472869.7504                   22472870.5594
  -3927398.86748  -3051595.82344  21480018.2034                   21480018.6684
 -21258854.91848 -16549251.67544  19965326.4144                   19965326.6994
   3460745.668 6                  23585568.453
   -657635.89547   -512243.00143  21749746.7974                   21749748.0474
  10243064.805 6                  24390092.969
 11  9 25 19 53  0.0000000  0  7G09G02G17G04G10G28G20
  -3400899.77047  -2631623.96243  22264897.2424                   22264899.1914
  -4838462.74647  -3751624.17343  22452253.7274                   22452254.4804
  -3923269.83248  -3048378.34444  21480803.8054                   21480804.9924
 -21304014.19948 -16584440.68744  19956733.0164                   19956733.6294
   3340305.71946   2619575.27352  23562649.1414                   23562653.9964
   -639137.07847   -497828.30443  21753267.2664                   21753268.4454
  10251805.426 6                  24391756.141
 11  9 25 19 53 30.0000000  0  7G09G02G17G04G10G28G20
  -3459958.95747  -2677644.10443  22253658.0944                   22253660.3834
  -4946527.11348  -3835830.08943  22431690.0234                   22431690.9574
  -3919064.41847  -3045101.45344  21481604.0944                   21481603.7504
 -21348611.34848 -16619191.75145  19948246.5704                   19948247.2464
   3219900.78546   2525753.41653  23539736.4694                   23539741.1804
   -620274.17647   -483130.03043  21756856.4304                   21756856.8594
  10261022.020 6                  24393509.828
 11  9 25 19 54  0.0000000  0  7G09G02G17G04G10G28G20
  -3518402.63747  -2723184.53743  22242536.1174                   22242539.0044
  -5054318.23848  -3919823.12843  22411177.9774                   22411177.7194
  -3914784.61348  -3041766.61544  21482418.5704                   21482418.9264
 -21392647.92248 -16653505.90144  19939866.6954                   19939866.8444
   3099532.62146   2431960.35242  23516830.9144                   23516836.9184
   -601048.39147   -468148.96043  21760515.1174                   21760516.2774
  10270712.453 6                  24395354.508
 11  9 25 19 54 30.0000000  0  7G09G02G17G04G10G28G20
  -3576226.93447  -2768242.42543  22231532.5634                   22231535.4024
  -5161831.58248  -4003599.60943  22390719.0474                   22390719.5234
  -3910427.46947  -3038371.37944  21483247.5864                   21483249.0434
 -21436121.03948 -16687381.03944  19931594.2504                   19931594.1454
   2979207.62546   2338200.95742  23493933.3674                   23493939.4264
   -581456.17247   -452882.42543  21764243.8444                   21764244.9454
  10280879.020 6                  24397289.844
 11  9 25 19 55  0.0000000  0  7G09G02G17G04G10G28G20
  -3633433.03147  -2812818.59543  22220646.7194                   22220649.5204
  -5269068.17248  -4087160.47143  22370312.1024                   22370313.3714
  -3905995.75447  -3034918.15743  21484090.7734                   21484091.8594
 -21479033.21548 -16720819.11444  19923428.1334                   19923428.4694
   2858926.39547   2244475.66053  23471044.3284                   23471053.6524
   -561500.37547   -437332.42643  21768041.0004                   21768042.3284
  10291518.703 5                  24399313.883
 11  9 25 19 55 30.0000000  0  7G09G02G17G04G10G28G20
  -3690019.74247  -2856912.18543  22209878.5314                   22209880.6994
  -5376025.77347  -4170503.95843  22349958.8204                   22349959.2734
  -3901488.75048  -3031406.18444  21484948.8834                   21484949.0434
 -21521383.64848 -16753819.41744  19915368.9304                   19915369.6524
   2738693.19147   2150787.56652  23448164.5084                   23448171.3984
   -541179.21548   -421497.96143  21771907.8364                   21771908.9734
  10302631.668 6                  24401428.305
 11  9 25 19 56  0.0000000  0  7G09G02G17G04G10G28G20
  -3745987.19947  -2900523.11443  22199228.5704                   22199231.6024
  -5482704.07848  -4253629.87943  22329658.7424                   22329658.5784
  -3896908.20748  -3027836.99844  21485820.5944                   21485821.8984
 -21563173.89148 -16786383.20944  19907416.8524                   19907417.1374
   2618510.18447   2057138.62653  23425295.1884                   23425298.8484
   -520494.02747   -405379.61243  21775844.5474                   21775845.1374
  10314216.582 6                  24403633.688
 11  9 25 19 56 30.0000000  0  7G09G02G17G04G10G28G20
  -3801333.24247  -2943649.89843  22188696.5474                   22188699.6374
  -5589100.30148  -4336535.78543  22309411.6884                   22309411.8874
  -3892252.59848  -3024209.23744  21486706.4144                   21486707.3054
 -21604402.54348 -16818509.44944  19899570.8754                   19899571.3634
   2498381.85247   1963532.54143  23402435.0474                   23402439.8914
   -499443.18748   -388976.44343  21779850.4064                   21779851.6294
  10326273.219 6                  24405927.477
 11  9 25 19 57  0.0000000  0  7G09G02G17G04G10G28G20
  -3856059.91047  -2986294.05143  22178282.4304                   22178285.4924
  -5695215.89148  -4419223.18643  22289218.8444                   22289218.4734
  -3887525.57047  -3020525.86244  21487605.8914                   21487606.7384
 -21645072.88348 -16850200.60144  19891831.7894                   19891832.0944
   2378308.78547   1869969.00454  23379586.0864                   23379587.5864
   -478028.95347   -372290.10643  21783925.4614                   21783927.1884
  10338798.441 6                  24408312.070
 11  9 25 19 57 30.0000000  0  7G09G02G17G04G10G28G20
  -3910163.71947  -3028452.77643  22167987.1884                   22167989.0274
  -5801046.88748  -4501688.83043  22269079.8364                   22269079.2814
  -3882724.19548  -3016784.55744  21488519.7504                   21488519.6564
 -21685182.31248 -16881454.70244  19884198.8984                   19884199.7974
   2258296.75847   1776453.34653  23356748.3134                   23356752.8834
   -456248.76248   -355318.55443  21788070.4144                   21788071.4654
  10351794.738 6                  24410783.766
 11  9 25 19 58  0.0000000  0  7G09G02G17G04G10G28G20
  -3963645.23847  -3070126.75043  22157809.9694                   22157812.8244
  -5906592.63748  -4583932.22543  22248994.9534                   22248994.0704
  -3877849.72748  -3012986.25844  21489447.3444                   21489447.7504
 -21724732.36348 -16912272.89444  19876673.1174                   19876673.6374
   2138348.19946   1682987.12543  23333922.4064                   23333927.2384
   -434103.70747   -338062.81743  21792284.5784                   21792285.8244
  10365259.438 6                  24413345.664
 11  9 25 19 58 30.0000000  0  7G09G02G17G04G10G28G20
  -4016504.48047  -3111315.82243  22147750.7974                   22147753.4804
  -6011852.72348  -4665952.95943  22228964.4304                   22228963.8834
  -3872903.46148  -3009132.07344  21490388.4694                   21490388.6804
 -21763723.93448 -16942655.92044  19869253.3524                   19869253.3444
   2018465.42246   1589572.41743  23311109.7504                   23311114.3054
   -411594.36747   -320523.19343  21796567.4614                   21796568.8094
  10379191.152 6                  24415997.875
 11  9 25 19 59  0.0000000  0  7G09G02G17G04G10G28G20
  -4068741.99247  -3152020.39343  22137810.4304                   22137812.5124
  -6116826.75848  -4747750.83043  22208989.0164                   22208987.5474
  -3867886.45748  -3005222.73844  21491343.0394                   21491344.1764
 -21802158.55148 -16972604.99044  19861939.6174                   19861939.3324
   1898650.73846   1496210.36352  23288308.7814                   23288313.8874
   -388721.41447   -302700.10943  21800920.6174                   21800921.9024
  10393588.402 5                  24418737.352
 11  9 25 19 59 30.0000000  0  7G09G02G17G04G10G28G20
  -4120354.44147  -3192237.78843  22127988.8524                   22127990.0474
  -6221510.69548  -4829322.61543  22189067.6254                   22189067.6884
  -3862796.17648  -3001256.36944  21492311.7734                   21492312.6524
 -21840033.75848 -17002118.06944  19854731.7344                   19854731.4144
   1778910.12146   1402906.28843  23265522.4614                   23265527.8164
   -365482.33247   -284591.77943  21805342.2194                   21805343.6054
  10408453.117 5                  24421565.719
 11  9 25 20  0  0.0000000  0  7G09G02G17G04G10G28G20
  -4171343.56647  -3231969.63043  22118285.9144                   22118288.4304
  -6325905.30948  -4910668.98043  22169202.2664                   22169202.2074
  -3857634.74248  -2997234.47344  21493293.6954                   21493293.8834
 -21877352.06648 -17031197.27944  19847630.1484                   19847630.8054
   1659244.91847   1309660.73353  23242751.3984                   23242757.5234
   -341878.74647   -266199.57843  21809834.4454                   21809835.2854
  10423781.914 5                  24424482.820
 11  9 25 20  0 30.0000000  0  7G09G02G17G04G10G28G20
  -4221706.87147  -3271213.63043  22108702.0164                   22108704.6024
  -6430007.55147  -4991787.57043  22149391.9064                   22149393.0594
  -3852400.91448  -2993156.13644  21494289.7664                   21494290.0634
 -21914112.16048 -17059841.50544  19840634.9064                   19840635.1954
   1539659.96547   1216477.80943  23219994.6564                   23220000.4414
   -317909.07047   -247521.92143  21814395.2274                   21814397.0864
  10439575.508 6                  24427489.047
 11  9 25 20  1  0.0000000  0  7G09G02G17G04G10G28G20
  -4271444.60547  -3309970.37743  22099236.6724                   22099239.3754
  -6533816.75448  -5072677.79043  22129637.7974                   22129637.6644
  -3847095.89548  -2989022.38844  21495299.5634                   21495299.6724
 -21950315.39148 -17088051.76244  19833745.7424                   19833746.4264
   1420157.79747   1123359.73753  23197254.3364                   23197259.5594
   -293574.07447   -228559.59643  21819026.4454                   21819028.1094
  10455832.473 5                  24430581.984
 11  9 25 20  1 30.0000000  0  7G09G02G17G04G10G28G20
  -4320558.29747  -3348240.80743  22089891.6724                   22089894.3204
  -6637333.78148  -5153340.26243  22109938.6334                   22109938.8134
  -3841721.41048  -2984834.51444  21496322.1484                   21496323.0274
 -21985963.93748 -17115829.83544  19826962.3754                   19826962.6884
   1300740.01646   1030306.80952  23174529.5314                   23174533.9024
   -268875.50047   -209314.19543  21823726.4844                   21823727.8484
  10472550.141 5                  24433763.539
 11  9 25 20  2  0.0000000  0  7G09G02G17G04G10G28G20
  -4369046.65647  -3386023.91543  22080664.5944                   22080667.7424
  -6740556.26248  -5233773.33043  22090296.3524                   22090296.9804
  -3836276.78948  -2980591.95744  21497358.5634                   21497358.5904
 -22021057.38748 -17143175.39244  19820284.2114                   19820284.7894
   1181410.73446    937323.24242  23151822.1174                   23151827.0044
   -243812.48047   -189784.56243  21828495.8054                   21828497.4304
  10489728.445 5                  24437032.180
 11  9 25 20  2 30.0000000  0  7G09G02G17G04G10G28G20
  -4416906.45347  -3423317.28543  22071556.3984                   22071558.8164
  -6843479.94948  -5313973.45943  22070710.2114                   22070710.6024
  -3830759.29348  -2976292.62244  21498408.5234                   21498409.2034
 -22055593.54748 -17170086.64644  19813712.0394                   19813712.5664
   1062175.84846    844413.12142  23129132.4064                   23129136.8164
   -218381.92247   -169968.62843  21833335.2974                   21833336.2624
  10507369.203 5                  24440388.531
 11  9 25 20  3  0.0000000  0  7G09G02G17G04G10G28G20
  -4464139.24647  -3460122.00043  22062568.5004                   22062570.1094
  -6946105.61348  -5393941.39243  22051181.0784                   22051181.7934
  -3825171.30548  -2971938.34843  21499471.6024                   21499472.1804
 -22089574.73448 -17196565.48744  19807245.6724                   19807245.6254
    943036.70746    751577.64843  23106460.2584                   23106465.0164
   -192586.52747   -149868.39743  21838244.2114                   21838245.0594
  10525469.438 5                  24443834.242
 11  9 25 20  3 30.0000000  0  7G09G02G17G04G10G28G20
  -4510741.05547  -3496435.18943  22053700.8204                   22053704.2034
  -7048428.35248  -5473673.34243  22031709.8914                   22031709.3714
  -3819509.02748  -2967526.24944  21500549.1484                   21500550.5704
 -22122997.96548 -17222609.54644  19800885.1804                   19800886.3674
    824000.60546    658822.28143  23083808.8834                   23083813.4884
   -166422.00847   -129480.60343  21843223.6644                   21843223.4774
  10544031.867 5                  24447365.945
 11  9 25 20  4  0.0000000  0  7G09G02G17G04G10G28G20
  -4556710.93047  -3532255.72843  22044952.5394                   22044955.0704
  -7150446.47748  -5553167.90243  22012296.3834                   22012295.9804
  -3813771.94948  -2963055.81544  21501641.1484                   21501641.9884
 -22155863.07848 -17248218.71044  19794631.2664                   19794631.5474
    705071.58247    566150.63653  23061177.0554                   23061183.1484
   -139887.69947   -108804.68743  21848272.7424                   21848273.7854
  10563056.328 5                  24450985.195
 11  9 25 20  4 30.0000000  0  7G09G02G17G04G10G28G20
  -4602051.92247  -3567586.37243  22036324.7274                   22036327.5164
  -7252162.09848  -5632426.75943  21992940.3524                   21992941.3594
  -3807963.98048  -2958530.14344  21502746.2114                   21502746.1684
 -22188174.31248 -17273396.29444  19788482.8134                   19788482.7274
    586249.27747    473561.90943  23038566.0164                   23038569.7894
   -112987.30947    -87843.39743  21853391.5474                   21853393.2114
  10582537.699 6                  24454693.594
 11  9 25 20  5  0.0000000  0  7G09G02G17G04G10G28G20
  -4646760.53147  -3602424.20943  22027816.7194                   22027819.8834
  -7353570.35548  -5711446.07843  21973643.0314                   21973643.9734
  -3802081.69548  -2953946.56244  21503865.9844                   21503865.1764
 -22219928.64848 -17298139.93144  19782440.0784                   19782440.1644
    467540.62947    381061.81743  23015975.9144                   23015981.1214
    -85717.21947    -66594.07543  21858580.9534                   21858582.4924
  10602479.008 6                  24458488.016
 11  9 25 20  5 30.0000000  0  7G09G02G17G04G10G28G20
  -4690837.48047  -3636769.85643  22019428.6484                   22019432.3204
  -7454671.37548  -5790226.02843  21954404.2894                   21954404.5634
  -3796126.06648  -2949305.84544  21504999.0864                   21504999.5124
 -22251128.00448 -17322451.10144  19776502.7114                   19776503.5864
    348947.90647    288652.20043  22993408.5634                   22993413.5314
    -58078.82047    -45057.70343  21863840.4774                   21863841.6844
  10622877.621 6                  24462369.680
 11  9 25 20  6  0.0000000  0  7G09G02G17G04G10G28G20
  -4734278.04347  -3670619.74643  22011162.9774                   22011166.1884
  -7555459.18748  -5868761.91143  21935224.8524                   21935224.9184
  -3790092.82048  -2944604.69843  21506147.0394                   21506148.2114
 -22281768.50048 -17346326.82044  19770672.0474                   19770673.1914
    230478.89146    196338.91643  22970864.7894                   22970870.1454
    -30068.00847    -23231.21343  21869170.7344                   21869171.1374
  10643736.973 6                  24466338.125
 11  9 25 20  6 30.0000000  0  7G09G02G17G04G10G28G20
  -4777084.64547  -3703975.51043  22003016.8984                   22003019.8014
  -7655935.11748  -5947054.75044  21916104.7114                   21916105.0274
  -3783984.51648  -2939844.93844  21507309.4454                   21507309.6024
 -22311853.05548 -17369769.32344  19764947.4454                   19764947.9654
    112134.44146    104122.66843  22948344.1564                   22948350.1684
     -1686.86747     -1116.22843  21874571.5314                   21874573.0634
  10665053.891 5                  24470395.367
 11  9 25 20  7  0.0000000  0  7G09G02G17G04G10G28G20
  -4819258.13747  -3736837.94343  21994991.8364                   21994994.2114
  -7756098.93448  -6025104.33343  21897044.0784                   21897044.3794
  -3777802.21948  -2935027.69743  21508485.9304                   21508486.7424
 -22341383.67248 -17392780.20144  19759327.7344                   19759327.6174
     -6082.789 6                  22925847.797
     27063.16447     21286.36243  21880042.5784                   21880043.4964
  10686826.070 6                  24474539.445
 11  9 25 20  7 30.0000000  0  6G09G02G17G04G10G28
  -4860800.34847  -3769208.48143  21987086.6954                   21987089.0514
  -7855951.75447  -6102911.72443  21878042.9534                   21878042.1844
  -3771548.05148  -2930154.37243  21509676.0944                   21509676.2464
 -22370362.98448 -17415361.46444  19753813.2664                   19753814.0944
   -124171.94946    -80011.94952  22903375.7344                   22903379.1254
     56180.17247     43974.80043  21885583.5164                   21885584.5004
 11  9 25 20  8  0.0000000  0  6G09G02G17G04G10G28
  -4901708.15247  -3801084.69143  21979301.8204                   21979305.4184
  -7955488.93748  -6180473.04443  21859101.7734                   21859101.4734
  -3765218.83648  -2925222.45143  21510880.8364                   21510881.2234
 -22398788.29748 -17437511.05344  19748404.3834                   19748404.7854
   -242126.10246   -171924.11643  22880930.2504                   22880934.1644
     85667.06647     66951.49543  21891195.0164                   21891195.9804
 11  9 25 20  8 30.0000000  0  6G09G02G17G04G10G28
  -4941974.80947  -3832461.29243  21971639.2344                   21971641.7664
  -8054702.80148  -6257782.44943  21840221.8984                   21840221.2894
  -3758808.06247  -2920227.12244  21512100.3444                   21512100.9224
 -22426654.01248 -17459224.57544  19743101.7424                   19743101.9964
   -359935.50846   -263723.46743  22858512.1094                   22858515.3134
    115530.40647     90221.59843  21896877.6094                   21896879.5864
 11  9 25 20  9  0.0000000  0  6G09G02G17G04G10G28
  -4981594.06647  -3863333.42243  21964100.5314                   21964102.4144
  -8153585.95748  -6334834.17644  21821404.5314                   21821404.7664
  -3752309.53547  -2915163.34644  21513337.2894                   21513338.3054
 -22453954.82848 -17480497.90544  19737906.1334                   19737906.4064
   -477590.29746   -355402.49243  22836122.5864                   22836125.4884
    145776.04347    113789.49143  21902632.7034                   21902633.6724
 11  9 25 20  9 30.0000000  0  7G12G09G02G17G04G10G28
  10865366.50856   8484523.92553  24511044.7114                   24511039.2544
  -5020565.86747  -3893701.18043  21956684.1564                   21956686.2464
  -8252137.11348  -6411627.26843  21802650.8914                   21802651.7664
  -3745722.99647  -2910031.03744  21514590.6174                   21514591.4304
 -22480691.32048 -17501331.54144  19732818.3364                   19732818.9774
   -595087.36746   -446958.87443  22813764.0164                   22813766.6454
    176404.13347    137655.45443  21908461.3674                   21908462.3324
 11  9 25 20 10  0.0000000  0  7G12G09G02G17G04G10G28
  10740435.969 6                  24487270.711
  -5058904.43047  -3923575.33643  21949388.5314                   21949390.8054
  -8350369.22348  -6488171.60643  21783958.0864                   21783957.8244
  -3739063.25848  -2904841.65744  21515857.9064                   21515857.9694
 -22506878.37148 -17521737.01444  19727834.8984                   19727835.9844
   -712436.98047   -538399.56143  22791432.1484                   22791436.7304
    207400.27747    161808.19543  21914360.2344                   21914360.9264
 11  9 25 20 10 30.0000000  0  7G12G09G02G17G04G10G28
  10615461.988 6                  24463488.945
  -5096625.65647  -3952968.45443  21942210.6254                   21942213.0984
  -8448297.19948  -6564479.02644  21765322.9454                   21765322.6334
  -3732345.65248  -2899607.20343  21517135.7734                   21517137.2154
 -22532532.71948 -17541727.39544  19722953.4924                   19722953.8594
   -829651.77047   -629735.54443  22769127.6884                   22769131.4304
    238748.45747    186234.99143  21920325.6094                   21920327.3554
 11  9 25 20 11  0.0000000  0  7G12G09G02G17G04G10G28
  10490450.242 6                  24439699.977
  -5133725.24647  -3981877.21643  21935150.6094                   21935152.2974
  -8545915.34048  -6640545.06944  21746746.6484                   21746747.3594
  -3725565.94547  -2894324.35643  21518426.4534                   21518427.2154
 -22557650.80148 -17561299.95544  19718173.6644                   19718174.7274
   -946723.98447   -720960.40543  22746849.5554                   22746852.7664
    270452.88347    210939.79743  21926359.0634                   21926359.4454
 11  9 25 20 11 30.0000000  0  7G12G09G02G17G04G10G28
  10365408.457 6                  24415905.633
  -5170197.40247  -4010297.07743  21928210.7814                   21928213.0394
  -8643216.71947  -6716364.21843  21728230.8444                   21728231.0044
  -3718717.92247  -2888988.29044  21519729.3594                   21519730.4304
 -22582227.71148 -17580450.77744  19713496.7894                   19713497.3404
  -1063644.46947   -812067.01543  22724599.8204                   22724604.1564
    302518.89547    235926.26543  21932460.9924                   21932462.7504
 11  9 25 20 12  0.0000000  0  7G12G09G02G17G04G10G28
  10240339.688 6                  24392105.148
  -5206040.94147  -4038227.29943  21921389.3834                   21921392.6334
  -8740199.15648  -6791934.82843  21709775.3594                   21709775.7424
  -3711800.63347  -2883598.23243  21521045.6644                   21521046.4734
 -22606263.00448 -17599179.56844  19708922.8134                   19708923.4184
  -1180408.46946   -903051.86843  22702380.0314                   22702384.1644
    334947.66447    261195.31243  21938632.1174                   21938634.4734
 11  9 25 20 12 30.0000000  0  7G12G09G02G17G04G10G28
  11690671.180 6                  24668094.148
  -3665833.77747  -2838065.69643  22214480.8364                   22214483.8444
  -7261437.02348  -5639652.57744  21991174.5944                   21991174.2934
  -2129392.79747  -1650553.20243  21822168.0784                   21822168.5704
 -21054335.53948 -16389885.46344  20004244.7664                   20004245.3014
    278412.87947    233692.08943  22979984.8284                   22979988.8284
   1943159.14147   1514346.94343  22244664.3524                   22244666.2074
 11  9 25 20 13  0.0000000  0  7G12G09G02G17G04G10G28
  11565556.46146   9030125.12153  24644285.5864                   24644287.2974
  -3700418.40247  -2865014.76043  22207899.9304                   22207901.7774
  -7357775.41048  -5714721.44343  21972841.9924                   21972842.0554
  -2122334.38747  -1645053.22644  21823510.9144                   21823511.3014
 -21077288.12948 -16407770.56845  19999877.1884                   19999878.1844
    161974.78146    142961.37443  22957825.6884                   22957831.8524
   1976315.23847   1540182.79043  22250973.6884                   22250975.6684
 11  9 25 20 13 30.0000000  0  7G12G09G02G17G04G10G28
  11440425.64146   8932620.49242  24620473.2734                   24620476.0434
  -3734369.66847  -2891470.26043  22201438.7974                   22201441.0164
  -7453786.03148  -5789534.76744  21954571.7424                   21954571.3714
  -2115201.18747  -1639494.89343  21824868.7034                   21824869.3524
 -21099696.42648 -16425231.55044  19995612.8134                   19995613.4924
     45709.44947     52365.28543  22935701.9844                   22935706.7114
   2009838.60547   1566304.81143  22257353.3284                   22257355.3524
 11  9 25 20 14  0.0000000  0  7G12G09G02G17G04G10G28
  11315283.09446   8835107.08242  24596659.6024                   24596663.0594
  -3767685.50047  -2917430.73943  22195099.3594                   22195101.5664
  -7549465.38748  -5864090.02243  21936364.1724                   21936364.2814
  -2107990.59047  -1633876.29244  21826240.7974                   21826241.6254
 -21121559.03948 -16442267.34144  19991452.5474                   19991453.4344
    -70377.98847    -38092.28443  22913611.1414                   22913615.7344
   2043731.45347   1592714.74043  22263803.1334                   22263804.6214
 11  9 25 20 14 30.0000000  0  7G12G09G02G17G04G10G28
  11190131.465 6                  24572844.359
  -3800365.34448  -2942895.57743  22188880.5864                   22188882.7544
  -7644811.70748  -5938385.81343  21918220.6484                   21918220.1334
  -2100701.53948  -1628196.55443  21827627.7974                   21827628.7074
 -21142876.30548 -16458878.16344  19987396.1484                   19987396.4414
   -186283.09847   -128407.89943  22891555.2814                   22891560.3484
   2077994.48047   1619412.97743  22270323.3984                   22270325.0634
 11  9 25 20 15  0.0000000  0  7G12G09G02G17G04G10G28
  11064971.941 6                  24549026.867
  -3832409.93747  -2967865.34243  22182782.5554                   22182785.0634
  -7739824.08248  -6012421.37843  21900140.1564                   21900139.6294
  -2093334.92647  -1622456.36544  21829029.6884                   21829030.7854
 -21163649.67248 -16475065.23444  19983443.1884                   19983443.3984
   -302002.82447   -218579.05643  22869534.0634                   22869539.5084
   2112626.60947   1646398.93343  22276913.7894                   22276915.3134
 11  9 25 20 15 30.0000000  0  7G12G09G02G17G04G10G28
  10939805.406 6                  24525208.484
  -3863820.73447  -2992341.35343  22176805.0314                   22176808.2734
  -7834503.12148  -6086197.15344  21882123.4224                   21882122.6644
  -2085891.60548  -1616656.42944  21830446.1174                   21830446.6684
 -21183881.31248 -16490830.09844  19979593.0634                   19979593.9064
   -417534.82047   -308603.65043  22847549.1024                   22847551.6414
   2147626.67647   1673671.59943  22283573.7584                   22283575.4654
 11  9 25 20 16  0.0000000  0  7G12G09G02G17G04G10G28
  10814634.313 6                  24501389.266
  -3894597.53147  -3016323.25043  22170948.9384                   22170950.5124
  -7928846.94548  -6159711.71644  21864169.9144                   21864170.3364
  -2078370.52347  -1610795.89843  21831877.2034                   21831878.5744
 -21203571.41848 -16506173.05244  19975846.0164                   19975846.9924
   -532874.98847   -398478.79843  22825600.7034                   22825603.3164
   2182994.60247   1701231.04543  22290304.1564                   22290305.6414
 11  9 25 20 16 30.0000000  0  7G12G09G02G17G04G10G28
  10689458.66046   8347452.20053  24477569.0784                   24477570.1454
  -3924742.55947  -3039812.79743  22165212.2974                   22165214.6994
  -8022856.31648  -6232965.72644  21846280.7664                   21846280.5084
  -2070773.80947  -1604876.37943  21833323.1254                   21833324.0594
 -21222723.06648 -16521096.38844  19972201.8914                   19972202.1254
   -648021.79346   -488203.45843  22803688.3284                   22803692.9064
   2218728.48447   1729075.35943  22297104.3364                   22297105.3444
 11  9 25 20 17  0.0000000  0  7G12G09G02G17G04G10G28
  10564280.801 6                  24453748.563
  -3954256.19547  -3062810.50643  22159595.9144                   22159599.3404
  -8116529.89848  -6305958.03844  21828455.3134                   21828455.0274
  -2063100.78147  -1598897.48143  21834783.1884                   21834784.2584
 -21241337.16048 -16535600.88844  19968659.4224                   19968660.2194
   -762971.58647   -577774.60843  22781814.3134                   22781818.4414
   2254828.07847   1757204.74643  22303973.5554                   22303976.0824
 11  9 25 20 17 30.0000000  0  7G12G09G02G17G04G10G28
  10439100.512 6                  24429926.875
  -3983140.53947  -3085317.71743  22154099.4144                   22154102.2854
  -8209868.62948  -6378689.45343  21810693.5944                   21810693.8524
  -2055353.59047  -1592860.72544  21836257.6094                   21836259.0354
 -21259416.71148 -16549688.84244  19965219.2114                   19965219.5554
   -877722.55547   -667190.75442  22759977.5394                   22759981.0274
   2291290.85547   1785617.18043  22310912.6254                   22310913.9024
 11  9 25 20 18  0.0000000  0  7G12G09G02G17G04G10G28
  10313917.160 6                  24406105.125
  -4011399.06247  -3107337.39343  22148722.2424                   22148725.5744
  -8302874.55148  -6451161.57943  21792995.3204                   21792994.7384
  -2047534.83647  -1586768.23644  21837745.0554                   21837746.2504
 -21276965.50848 -16563363.25944  19961879.7274                   19961879.7624
   -992274.29347   -756451.59743  22738178.6884                   22738181.5164
   2328113.72347   1814310.22243  22317920.1334                   22317922.2664
 11  9 25 20 18 30.0000000  0  7G12G09G02G17G04G10G28
  10188738.371 6                  24382283.422
  -4039026.60547  -3128865.32943  22143465.0164                   22143466.6994
  -8395540.69148  -6523368.85343  21775361.3594                   21775360.8874
  -2039638.38747  -1580615.20044  21839247.7734                   21839249.2154
 -21293978.96947 -16576620.49744  19958642.2974                   19958643.2704
  -1106617.40247   -845550.08143  22716420.1724                   22716423.4304
   2365302.18847   1843288.23843  22324996.6884                   22324997.5164
 11  9 25 20 19  0.0000000  0  7G12G09G02G17G04G10G28
  10063564.719 6                  24358464.117
  -4066024.71947  -3149902.82843  22138327.2974                   22138330.1844
  -8487867.50848  -6595311.73643  21757791.8284                   21757791.6484
  -2031665.54747  -1574402.59844  21840765.4304                   21840765.8674
 -21310459.57848 -16589462.51544  19955505.9304                   19955507.4884
  -1220750.12547   -934484.40343  22694701.3674                   22694705.3794
   2402854.36747   1872549.50543  22332142.5784                   22332144.3054
 11  9 25 20 19 30.0000000  0  7G12G09G02G17G04G10G28
   9938397.484 6                  24334646.320
  -4092395.13347  -3170451.19343  22133308.8524                   22133312.1054
  -8579854.92248  -6666990.22643  21740287.2504                   21740287.1094
  -2023616.51248  -1568130.68043  21842297.1954                   21842297.3794
 -21326409.36348 -16601890.92044  19952470.4224                   19952471.5314
  -1334669.67247  -1023252.81743  22673023.3524                   22673027.2304
   2440769.14147   1902093.30943  22339357.8134                   22339359.1484
 11  9 25 20 20  0.0000000  0  7G12G09G02G17G04G10G28
   9813243.33646   7664688.01053  24310828.7034                   24310829.9734
  -4118133.11747  -3190506.71543  22128411.2034                   22128413.7114
  -8671496.62148  -6738399.26444  21722848.2814                   21722848.4734
  -2015486.73447  -1561795.80943  21843844.1174                   21843844.8714
 -21341824.28948 -16613902.57544  19949537.5084                   19949537.7544
  -1448367.20347  -1111848.25743  22651387.8204                   22651390.0864
   2479051.16847   1931923.39243  22346642.9774                   22346645.1684
 11  9 25 20 20 30.0000000  0  7G12G09G02G17G04G10G28
   9688102.41447   7567175.81853  24287016.6484                   24287018.8834
  -4143241.42247  -3210071.75643  22123633.2114                   22123635.8524
  -8762794.18048  -6809540.17044  21705474.9534                   21705474.8754
  -2007278.00447  -1555399.38343  21845405.5394                   21845406.4064
 -21356707.89548 -16625500.16845  19946705.4614                   19946706.0234
  -1561841.43447  -1200269.67743  22629793.5474                   22629797.2774
   2517697.75847   1962037.46343  22353996.3204                   22353999.3164
 11  9 25 20 21  0.0000000  0  7G12G09G02G17G04G10G28
   9562975.38747   7469673.80443  24263205.6254                   24263206.4614
  -4167722.53947  -3229147.87243  22118974.5004                   22118977.3484
  -8853748.16448  -6880413.30344  21688166.5394                   21688165.9884
  -1998991.89147  -1548942.70443  21846983.3674                   21846983.5864
 -21371062.87947 -16636685.88644  19943973.4844                   19943974.6644
  -1675090.40247  -1288515.43443  22608243.0314                   22608246.8954
   2556706.91047   1992434.08843  22361420.2504                   22361422.6844
 11  9 25 20 21 30.0000000  0  7G12G09G02G17G04G10G28
   9437867.23047   7372187.38743  24239398.2814                   24239401.4654
  -4191574.07847  -3247733.52643  22114435.8054                   22114437.8914
  -8944354.45348  -6951015.54744  21670924.8674                   21670923.8204
  -1990624.52047  -1542422.68743  21848575.3594                   21848575.5164
 -21384887.52348 -16647458.34944  19941342.7194                   19941343.2934
  -1788107.39547  -1376580.48843  22586736.3594                   22586740.7154
   2596080.96147   2023115.08743  22368913.0394                   22368915.4224
 11  9 25 20 22  0.0000000  0  7G12G09G02G17G04G10G28
   9312776.12547   7274714.01543  24215593.4844                   24215596.6724
  -4214800.02747  -3265831.77443  22110016.3134                   22110018.3874
  -9034615.74648  -7021348.88043  21653749.1724                   21653748.1564
  -1982179.64847  -1535842.31043  21850182.2734                   21850183.5944
 -21398186.40248 -16657821.07744  19938812.1884                   19938812.3094
  -1900892.95747  -1464465.20943  22565273.9144                   22565277.7154
   2635816.06647   2054077.34843  22376474.6414                   22376476.4804
 11  9 25 20 22 30.0000000  0  7G12G09G02G17G04G10G28
   9187707.91447   7177258.56643  24191793.9144                   24191797.4264
  -4237398.12947  -3283440.61443  22105715.8054                   22105718.3914
  -9124527.80948  -7091410.22043  21636638.7814                   21636638.6024
  -1973653.36347  -1529198.47543  21851804.6174                   21851805.5664
 -21410957.67648 -16667772.75544  19936381.7504                   19936382.5824
  -2013440.02047  -1552164.10743  22543856.6804                   22543860.7934
   2675914.81647   2085322.93743  22384105.3444                   22384107.2704
 11  9 25 20 23  0.0000000  0  7G12G09G02G17G04G10G28
   9062664.42247   7079822.01652  24167998.5784                   24168002.6454
  -4259368.57447  -3300560.50043  22101535.5784                   22101537.5824
  -9214089.64548  -7161198.60544  21619595.8134                   21619595.6524
  -1965045.64147  -1522491.17543  21853442.9614                   21853443.7774
 -21423202.24648 -16677313.97744  19934051.6724                   19934052.2194
  -2125745.04347  -1639674.35943  22522485.7194                   22522489.4064
   2716377.32047   2116852.11443  22391805.2504                   22391807.4024
 11  9 25 20 23 30.0000000  0  7G12G09G02G17G04G10G28
   8937644.20747   6982403.64843  24144207.7114                   24144212.0124
  -4280715.89847  -3317194.83343  22097472.6804                   22097474.8524
  -9303303.77747  -7230716.05143  21602618.7814                   21602618.6254
  -1956359.97347  -1515723.14743  21855095.2814                   21855095.8914
 -21434925.23048 -16686448.74144  19931820.7424                   19931821.1644
  -2237807.97747  -1726996.04043  22501160.7814                   22501165.8674
   2757198.91847   2148660.90143  22399573.2584                   22399575.4844
 11  9 25 20 24  0.0000000  0  7G12G09G02G17G04G10G28
   8812652.63347   6885007.85942  24120423.5164                   24120426.6454
  -4301437.88347  -3333341.69543  22093529.9694                   22093531.6054
  -9392166.42248  -7299959.59143  21585709.1094                   21585707.7234
  -1947592.39547  -1508891.37344  21856764.0234                   21856764.6174
 -21446124.67648 -16695175.58744  19929689.7114                   19929690.0704
  -2349622.34447  -1814124.02543  22479883.1644                   22479885.9734
   2798382.28147   2180751.78243  22407410.0084                   22407412.8204
 11  9 25 20 24 30.0000000  0  7G12G09G02G17G04G10G28
   8687692.47347   6787636.30053  24096643.6804                   24096644.3554
  -4321534.45747  -3349001.48143  22089705.2894                   22089708.5704
  -9480675.90248  -7368927.97944  21568865.9844                   21568865.6374
  -1938742.19547  -1501995.09144  21858447.8834                   21858450.3554
 -21456801.11348 -16703494.91344  19927657.9534                   19927659.1524
  -2461183.78947  -1901054.83443  22458653.5784                   22458657.3244
   2839927.72747   2213124.63643  22415316.0864                   22415318.6484
 11  9 25 20 25  0.0000000  0  7G12G09G02G17G04G10G28
   8562765.824 6                  24072870.172
  -4341006.86347  -3364174.76343  22085999.9614                   22086002.9104
  -9568831.41048  -7437620.49944  21552090.4774                   21552089.8754
  -1929809.00848  -1495034.13843  21860147.8754                   21860148.8284
 -21466956.05148 -16711407.83744  19925725.5394                   19925725.9184
  -2572488.65647  -1987785.70643  22437473.1804                   22437477.3364
   2881834.73447   2245779.46143  22423290.8054                   22423293.0164
 11  9 25 20 25 30.0000000  0  7G12G09G02G17G04G10G28
   8437872.703 6                  24049104.414
  -4359857.76647  -3378863.83743  22082413.2034                   22082415.4384
  -9656634.03548  -7506038.10443  21535382.4924                   21535381.3284
  -1920794.82848  -1488010.16744  21861863.9224                   21861864.5204
 -21476592.72348 -16718916.93644  19923891.6644                   19923892.5124
  -2683535.68747  -2074315.79043  22416341.4304                   22416343.9384
   2924100.65647   2278713.68643  22431333.9844                   22431336.5744
 11  9 25 20 26  0.0000000  0  7G12G09G02G17G04G10G28
   8313016.496 7                  24025345.430
  -4378087.39847  -3393068.70943  22078943.7664                   22078946.8754
  -9744082.30148  -7574179.53344  21518741.5704                   21518740.9224
  -1911698.60948  -1480922.20843  21863594.5784                   21863595.5744
 -21485711.86348 -16726022.77144  19922156.5784                   19922156.6024
  -2794320.79747  -2160641.76143  22395259.6954                   22395262.9534
   2966725.68047   2311927.84043  22439445.3524                   22439448.1524
 11  9 25 20 26 30.0000000  0  7G12G09G02G17G04G10G28
   8188196.805 6                  24001592.094
  -4395698.52747  -3406791.75743  22075592.7034                   22075595.0004
  -9831177.35948  -7642045.75143  21502167.8204                   21502167.6214
  -1902521.87548  -1473771.54344  21865341.3204                   21865341.6294
 -21494316.65248 -16732727.81044  19920519.0864                   19920520.1914
  -2904842.19547  -2246762.26843  22374228.0474                   22374231.8554
   3009707.23047   2345419.76043  22447624.6024                   22447626.2854
 11  9 25 20 27  0.0000000  0  7G12G09G02G17G04G10G28
   8063416.55547   6301189.54053  23977847.4384                   23977847.3714
  -4412691.39147  -3420032.97143  22072359.2114                   22072361.6684
  -9917917.55548  -7709635.43743  21485661.3594                   21485660.9734
  -1893263.49248  -1466557.34043  21867102.6564                   21867103.6914
 -21502407.87948 -16739032.68844  19918979.5634                   19918979.7774
  -3015095.55947  -2332673.88043  22353247.4064                   22353250.4884
   3053045.21547   2379189.43443  22455871.8674                   22455873.8554
 11  9 25 20 27 30.0000000  0  7G12G09G02G17G04G10G28
   7938674.96947   6203988.29953  23954109.9694                   23954110.8244
  -4429070.36747  -3432795.73243  22069242.7664                   22069244.9264
 -10004305.14848  -7776950.39544  21469222.5164                   21469221.4734
  -1883926.23448  -1459281.57243  21868879.6804                   21868880.7774
 -21509990.15648 -16744940.89944  19917536.7664                   19917537.0474
  -3125080.50447  -2418376.21343  22332317.5864                   22332321.6454
   3096735.71547   2413233.92943  22464185.7274                   22464188.5084
 11  9 25 20 28  0.0000000  0  7G12G09G02G17G04G10G28
   7813973.46946   6106818.34743  23930379.8364                   23930383.8794
  -4444837.27048  -3445081.70643  22066241.9304                   22066244.5514
 -10090340.22348  -7843990.61844  21452850.7894                   21452850.5824
  -1874510.68047  -1451944.77043  21870671.3444                   21870672.5664
 -21517065.60948 -16750454.25744  19916190.1724                   19916190.6884
  -3234794.41447  -2503867.49143  22311439.7424                   22311443.3554
   3140777.80547   2447552.49843  22472566.4304                   22472568.5354
 11  9 25 20 28 30.0000000  0  7G12G09G02G17G04G10G28
   7689314.24246   6009681.60643  23906657.5704                   23906661.2894
  -4459992.94947  -3456891.31143  22063358.3834                   22063360.9184
 -10176021.94148  -7910755.56744  21436546.1564                   21436545.4454
  -1865016.34047  -1444546.70043  21872477.9694                   21872479.5474
 -21523635.64548 -16755573.76244  19914939.6724                   19914940.3244
  -3344233.68047  -2589144.71243  22290614.0004                   22290616.7734
   3185170.71547   2482144.03743  22481014.7584                   22481018.0984
 11  9 25 20 29  0.0000000  0  7G12G09G02G17G04G10G28
   7564699.78146   5912579.51943  23882944.7664                   23882948.5704
  -4474538.30547  -3468225.36743  22060589.9614                   22060592.3484
 -10261349.45348  -7977244.44343  21420308.6254                   21420308.4534
  -1855442.68447  -1437086.73843  21874299.9384                   21874300.2234
 -21529701.53948 -16760300.42244  19913786.0314                   19913786.2344
  -3453394.55147  -2674205.01143  22269841.7504                   22269844.2304
   3229913.77047   2517008.57543  22489529.1024                   22489530.9414
 11  9 25 20 29 30.0000000  0  7G12G09G02G17G04G10G28
   7440132.98446   5815514.83253  23859240.3984                   23859243.1254
  -4488473.39147  -3479083.84943  22057938.7734                   22057940.8204
 -10346320.94948  -8043456.01244  21404139.2034                   21404138.6484
  -1845788.79347  -1429564.27443  21876136.6334                   21876138.1414
 -21535263.71948 -16764634.59444  19912727.1414                   19912727.6054
  -3562272.71547  -2759044.98343  22249122.5164                   22249126.2894
   3275007.37147   2552146.31843  22498109.8364                   22498113.3794
 11  9 25 20 30  0.0000000  0  7G12G09G02G17G04G10G28
   7315614.79746   5718487.69343  23835545.0004                   23835547.9774
  -4501801.21947  -3489469.25143  22055402.3364                   22055404.6644
 -10430937.50848  -8109390.87144  21388037.0784                   21388036.5004
  -1836055.57847  -1421979.92444  21877989.1884                   21877990.3714
 -21540325.52748 -16768578.87044  19911764.3054                   19911764.3054
  -3670866.77747  -2843663.60243  22228457.7274                   22228461.2234
   3320449.09847   2587555.26643  22506757.5234                   22506760.9494
 11  9 25 20 30 30.0000000  0  7G12G09G02G17G04G10G28
   7191146.91046   5621499.84543  23811859.3364                   23811863.3524
  -4514522.83247  -3499382.13943  22052981.2274                   22052983.6724
 -10515198.39548  -8175048.66144  21372002.5704                   21372002.0984
  -1826242.85248  -1414333.80443  21879857.0634                   21879857.8834
 -21544888.39548 -16772134.34844  19910895.4614                   19910896.7814
  -3779172.90247  -2928057.87643  22207847.8834                   22207850.6844
   3366238.10547   2623234.88043  22515470.7664                   22515474.3364
 11  9 25 20 31  0.0000000  0  7G12G09G02G17G04G10G28
   7066730.54746   5524552.21543  23788183.1804                   23788186.7704
  -4526640.65647  -3508824.67943  22050674.9454                   22050678.3554
 -10599103.86748  -8240429.46944  21356036.0864                   21356034.5864
  -1816351.01248  -1406625.86143  21881738.6484                   21881739.9884
 -21548955.05948 -16775303.15744  19910122.1644                   19910122.1454
  -3887188.41447  -3012225.60343  22187292.5554                   22187296.0164
   3412372.695 7                  22524249.984
 11  9 25 20 31 30.0000000  0  7G12G09G02G17G04G10G28
   6942370.23446   5427648.30443  23764518.6564                   23764521.9844
  -4538154.27747  -3517796.34743  22048484.2344                   22048487.0084
 -10682651.55948  -8305531.50643  21340136.9774                   21340135.6484
  -1806378.52748  -1398855.14844  21883636.5864                   21883638.6294
 -21552525.03948 -16778085.00544  19909442.6804                   19909443.4024
  -3994908.44947  -3096163.23343  22166794.8524                   22166797.3634
   3458853.66847   2695402.65053  22533095.3524                   22533098.6254
 11  9 25 20 32  0.0000000  0  7G12G09G02G17G04G10G28
   6818070.05947   5330791.17243  23740865.0314                   23740867.4144
  -4549062.72347  -3526296.35843  22046408.3674                   22046411.5744
 -10765838.56248  -8370352.51644  21324307.2584                   21324306.0944
  -1796322.45348  -1391019.30843  21885550.6564                   21885551.8594
 -21555598.10548 -16780479.61144  19908857.6724                   19908858.1684
  -4102327.14547  -3179865.97143  22146352.6174                   22146356.0744
   3505682.82047   2731892.60743  22542007.1174                   22542009.6604
 11  9 25 20 32 30.0000000  0  7G12G09G02G17G04G10G28
   6693834.94147   5233984.51953  23717223.8524                   23717227.6214
  -4559364.37547  -3534323.63943  22044447.9844                   22044450.8834
 -10848661.52048  -8434889.81044  21308546.4304                   21308545.2304
  -1786179.82848  -1383115.95243  21887480.4144                   21887481.0634
 -21558172.78547 -16782485.82945  19908367.8054                   19908368.2304
  -4209438.39147  -3263329.19743  22125970.3284                   22125973.1134
   3552861.62147   2768655.09043  22550985.1094                   22550987.8674
 11  9 25 20 33  0.0000000  0  7G12G09G02G17G04G10G28
   6569669.89846   5137232.70843  23693595.7504                   23693598.0824
  -4569058.17247  -3541877.41243  22042603.2734                   22042606.4924
 -10931117.27048  -8499140.99344  21292855.4614                   21292854.9064
  -1775947.63748  -1375142.87243  21889427.5864                   21889428.4344
 -21560248.23848 -16784103.06144  19907972.7034                   19907973.1374
  -4316236.18447  -3346548.08943  22105647.2504                   22105651.5514
   3600391.88747   2805691.54243  22560029.7344                   22560033.6804
 11  9 25 20 33 30.0000000  0  7G12G09G02G17G04G10G28
   6445574.26247   5040535.06843  23669980.6024                   23669984.2624
  -4578148.43747  -3548960.65843  22040873.2034                   22040876.9964
 -11013208.08248  -8563107.81544  21277234.1804                   21277233.4534
  -1765628.50848  -1367102.03443  21891391.2504                   21891392.8054
 -21561829.21948 -16785335.00445  19907671.9064                   19907672.5314
  -4422719.87947  -3429522.16243  22085383.8204                   22085387.2304
   3648269.99647   2842999.10643  22569140.6484                   22569143.9614
 11  9 25 20 34  0.0000000  0  7G12G09G02G17G04G10G28
   6321552.66847   4943895.00042  23646380.1954                   23646383.2114
  -4586633.63347  -3555572.54743  22039258.6414                   22039261.7424
 -11094930.48048  -8626787.62344  21261682.7424                   21261682.0394
  -1755219.31247  -1358991.01243  21893371.7734                   21893374.1684
 -21562914.05948 -16786180.33744  19907465.8134                   19907465.6214
  -4528883.40647  -3512246.99043  22065181.6954                   22065184.8524
   3696498.24647   2880579.34443  22578318.6334                   22578320.4884
 11  9 25 20 34 30.0000000  0  7G12G09G02G17G04G10G28
   6197607.93047   4847314.88543  23622794.3914                   23622798.1134
  -4594515.15648  -3561713.93543  22037759.3134                   22037762.9964
 -11176283.79748  -8690179.72044  21246201.7814                   21246201.5314
  -1744719.41047  -1350809.39043  21895370.4924                   21895371.6954
 -21563504.73848 -16786640.60144  19907353.0314                   19907353.6484
  -4634723.27747  -3594719.55143  22045040.9924                   22045044.2304
   3745075.62947   2918431.60643  22587562.9064                   22587565.4224
 11  9 25 20 35  0.0000000  0  7G12G09G02G17G04G10G28
   6073742.35947   4750796.34153  23599223.2034                   23599226.5704
  -4601794.16047  -3567385.92043  22036374.2664                   22036376.5824
 -11257267.34047  -8753283.72244  21230790.9454                   21230790.2274
  -1734128.16447  -1342556.48443  21897385.7974                   21897386.8134
 -21563602.53947 -16786716.80944  19907334.3204                   19907334.9614
  -4740235.62547  -3676936.82243  22024962.0004                   22024965.5044
   3794001.23847   2956555.40943  22596872.3834                   22596874.7194
 11  9 25 20 35 30.0000000  0  7G12G09G02G17G04G10G28
   5949956.16047   4654339.71753  23575667.3444                   23575671.4384
  -4608474.49647  -3572591.46643  22035102.7344                   22035104.5514
 -11337882.84048  -8816100.93244  21215450.5164                   21215449.3524
  -1723447.36347  -1334233.87543  21899418.1254                   21899419.5634
 -21563211.53548 -16786412.15244  19907408.5164                   19907409.8634
  -4845419.30147  -3758897.89543  22004946.4774                   22004949.3324
   3843271.96547   2994947.97342  22606248.2114                   22606251.1884
 11  9 25 20 36  0.0000000  0  7G12G09G02G17G04G10G28
   5826254.85547   4557949.26043  23552127.7584                   23552130.7544
  -4614554.29347  -3577329.00343  22033945.9144                   22033948.0634
 -11418126.33648  -8878628.28544  21200181.0944                   21200180.6254
  -1712673.54347  -1325838.75443  21901468.2894                   21901470.1564
 -21562329.95748 -16785725.22444  19907576.3204                   19907577.0044
  -4950267.82847  -3840598.03243  21984994.2664                   21984998.3054
   3892890.39147   3033611.44043  22615690.5554                   22615694.0234
 11  9 25 20 36 30.0000000  0  7G12G09G02G17G04G10G28
   5702635.08647   4461622.25842  23528603.9064                   23528605.8054
  -4620040.64847  -3581604.16443  22032902.0084                   22032903.9494
 -11498002.78948  -8940869.63644  21184980.6954                   21184979.8634
  -1701811.89147  -1317375.09143  21903535.1094                   21903536.6564
 -21560965.24647 -16784661.81644  19907836.3754                   19907837.0634
  -5054783.48047  -3922038.70343  21965106.0394                   21965108.2424
   3942850.17647   3072541.05942  22625197.9304                   22625202.2194
 11  9 25 20 37  0.0000000  0  7G12G09G02G17G04G10G28
   5579099.12547   4365360.52243  23505095.2034                   23505098.1414
  -4624935.38347  -3585418.26743  22031970.4774                   22031972.6054
 -11577511.98048  -9002824.75844  21169850.5944                   21169849.6994
  -1690862.16447  -1308842.90143  21905618.8134                   21905619.3444
 -21559119.12548 -16783223.28944  19908187.5784                   19908188.1214
  -5158962.84447  -4003217.23443  21945280.9384                   21945284.2344
   3993149.78547   3111735.32543  22634770.4774                   22634774.3134
